GFSSGP_925_thetae_003.txt.gz
Theta_e
341 344 349 356 368 352 344 347 348 351 357 352 349 348 356 355 358 358 345 351 352 348 349 349 350 351 350 348 348 349 349 346 343 341 339 338 338 339 341 343 345 346 346 345 345 344 345 346 342
344 348 354 356 359 344 344 342 342 352 352 349 349 355 357 357 350 351 352 352 351 354 348 348 349 349 349 350 349 350 350 344 345 345 344 342 342 343 345 346 344 344 343 345 344 345 348 349 347
344 350 356 363 338 343 342 340 341 350 350 350 355 352 355 356 352 352 352 352 353 352 347 346 348 349 350 350 351 349 344 343 343 345 346 347 345 343 342 343 345 346 347 346 346 345 345 344 345
346 348 354 344 337 338 339 340 344 350 350 350 355 360 354 352 352 353 355 354 353 349 347 346 348 350 351 352 351 352 345 342 342 342 344 346 346 346 342 343 345 348 348 348 347 346 345 345 344
349 350 355 337 338 338 337 338 340 348 351 356 358 361 360 352 352 354 355 356 355 351 348 349 349 351 350 351 351 347 347 345 343 343 345 346 345 345 346 346 349 349 349 349 348 348 345 342 342
343 344 355 344 340 333 333 337 345 352 352 356 362 361 359 353 352 354 353 356 353 354 352 356 354 352 353 353 349 350 346 345 342 341 347 345 348 343 343 345 349 349 349 348 345 344 344 345 346
347 350 356 349 341 340 337 338 344 348 352 352 356 363 356 354 354 355 355 355 356 354 353 353 355 355 354 352 352 347 344 343 343 344 344 343 341 341 341 344 344 345 345 345 345 344 345 344 343
344 345 351 350 350 340 339 339 341 344 348 349 350 357 357 354 355 355 356 356 356 354 354 355 352 354 355 354 353 351 345 342 343 343 341 342 343 344 345 347 345 347 350 349 344 343 342 342 340
344 349 348 352 348 343 339 341 341 342 347 349 348 351 349 351 354 355 356 356 357 357 356 355 355 353 352 354 356 354 351 348 343 341 340 341 349 348 340 347 346 347 348 346 343 340 344 343 344
346 350 341 345 344 348 348 349 349 347 349 350 351 348 348 348 351 353 356 355 356 357 358 356 354 356 356 353 350 345 344 343 341 341 346 351 352 349 348 349 341 348 348 347 348 347 348 349 348
346 345 342 342 343 345 346 350 349 354 347 350 352 349 346 350 352 354 353 353 355 355 355 354 354 354 356 357 349 350 348 345 348 350 352 353 353 351 347 350 350 349 349 350 349 349 348 349 349
338 338 343 344 346 345 348 344 342 351 346 349 349 348 347 347 348 349 349 350 352 353 354 356 357 355 356 354 352 353 353 353 353 352 352 352 351 349 351 353 352 352 350 348 347 348 348 350 350
336 336 339 338 340 344 346 346 345 342 342 348 348 348 348 347 347 349 349 351 350 353 356 355 355 354 354 355 355 356 355 354 353 352 353 352 350 350 350 350 349 350 350 350 350 351 350 350 350
337 335 339 337 339 344 347 344 345 343 344 348 348 349 348 347 347 347 349 351 350 349 355 356 354 353 352 355 353 352 352 354 353 353 354 353 352 353 351 350 347 349 351 349 350 349 348 347 347
337 336 336 337 339 346 346 350 353 348 346 347 348 347 347 347 347 347 348 350 350 350 351 353 353 351 351 351 352 353 355 353 351 351 351 350 349 351 352 351 346 344 346 347 348 347 346 347 347
336 335 335 337 337 343 347 355 352 348 348 349 348 348 348 347 348 347 348 348 349 348 349 351 353 355 354 352 352 355 353 354 356 353 352 350 349 351 353 350 349 349 347 345 344 344 344 344 345
334 337 340 341 335 336 344 355 351 349 351 352 351 350 350 350 348 347 347 347 347 348 349 350 351 355 357 355 355 355 354 355 355 354 352 352 351 352 351 349 348 349 349 348 347 348 347 345 344
336 337 341 342 337 336 343 352 351 350 351 352 352 353 353 352 351 348 347 347 349 350 349 351 351 353 355 355 356 358 356 354 353 353 353 352 352 352 349 347 348 348 348 346 345 344 345 345 345
335 336 343 343 338 339 343 351 351 348 348 348 349 350 351 351 352 351 352 350 351 352 353 353 354 356 355 356 355 357 355 352 352 351 351 351 351 350 348 346 347 348 346 347 347 344 346 344 342
331 342 343 342 340 341 341 348 347 345 347 348 350 349 350 348 354 354 353 351 352 352 355 356 356 357 358 358 356 357 357 355 355 352 351 351 349 349 347 346 345 344 344 342 341 342 343 342 343
330 332 340 344 344 342 344 345 348 345 343 346 349 348 348 349 351 354 354 353 354 356 355 357 357 357 358 354 356 354 348 350 347 349 352 349 346 339 335 340 342 341 343 343 342 342 342 343 342
328 330 331 339 344 345 344 351 347 344 341 345 349 348 346 348 347 348 347 350 357 356 356 358 358 354 357 356 357 352 347 339 345 344 341 337 334 335 336 340 343 344 340 339 342 342 342 342 342
328 329 329 329 337 335 340 337 346 342 342 343 344 348 346 346 347 348 348 349 352 356 355 354 357 356 357 346 340 334 333 335 339 340 338 332 337 337 337 341 341 341 336 338 340 339 340 340 340
331 329 328 327 326 329 332 336 350 346 344 343 343 344 345 346 347 347 348 350 353 354 355 354 357 357 349 341 332 329 331 336 335 337 335 336 336 335 342 340 338 336 337 338 338 339 338 338 338
329 326 333 332 331 331 329 331 346 345 343 341 341 339 341 344 346 346 346 349 354 354 358 358 358 348 345 339 339 338 337 336 335 336 339 337 334 338 335 334 334 334 336 337 337 337 335 337 337
327 326 335 339 336 335 332 336 339 345 344 341 341 339 339 343 343 344 344 347 352 353 357 360 354 348 344 342 340 336 336 334 338 343 338 335 330 336 335 336 336 334 335 336 337 335 335 335 336
329 331 329 331 334 333 334 338 340 344 343 343 344 340 337 339 343 342 343 345 351 351 358 357 353 349 346 341 339 339 341 338 340 339 338 332 339 336 337 334 334 334 336 336 336 336 336 335 333
329 330 330 328 333 337 334 341 339 338 339 342 344 340 340 338 343 343 342 345 351 351 356 355 353 350 346 345 341 344 343 341 337 338 337 335 334 334 336 336 336 335 335 333 336 335 334 333 334
330 330 330 329 329 330 334 338 342 340 336 333 331 332 336 341 340 344 344 346 350 352 355 354 353 351 347 345 342 344 343 338 338 339 338 336 336 337 336 336 335 335 335 336 336 335 335 334 335
328 328 333 333 334 335 335 339 336 337 334 334 337 336 334 337 340 342 346 349 351 352 355 354 354 351 346 345 343 342 335 334 336 338 336 336 335 335 333 332 332 334 335 335 336 336 334 335 333

GFSSGP_925_thetae_006.txt.gz
Theta_e
343 345 354 356 359 344 351 356 349 354 354 352 351 353 354 354 353 355 348 348 348 348 348 351 351 352 351 346 344 344 344 341 342 340 338 340 342 342 343 345 346 347 348 349 345 343 343 342 343
342 350 354 356 355 344 343 351 356 350 351 350 353 354 355 357 350 348 351 348 347 348 348 350 350 348 347 348 347 346 342 338 338 337 337 338 338 339 342 342 343 342 343 345 344 345 344 343 342
345 351 355 359 345 342 349 352 353 348 348 352 354 352 353 357 351 351 350 349 348 347 347 349 348 348 348 347 348 343 343 342 340 338 337 337 339 341 343 344 342 342 343 344 345 344 344 344 344
347 345 349 348 337 338 352 353 352 350 349 354 356 358 353 352 352 352 352 352 346 347 348 348 349 349 349 349 343 343 343 342 343 343 342 340 341 343 348 346 344 345 346 346 346 345 344 343 342
346 344 347 337 337 338 350 350 351 356 357 357 355 360 357 352 354 353 353 351 347 347 346 349 349 351 350 350 343 342 342 341 342 343 345 344 346 347 345 344 345 346 347 347 346 345 343 342 343
340 341 352 352 341 334 346 349 352 360 359 358 358 358 356 353 355 355 354 351 347 347 347 350 349 353 352 352 353 345 343 342 342 344 346 345 344 343 342 344 348 350 350 346 345 345 345 345 346
344 348 351 349 347 348 351 349 355 361 360 360 355 360 353 353 354 355 354 350 348 349 351 352 352 351 350 347 347 347 344 341 341 343 345 345 344 340 341 343 344 345 345 346 347 346 347 347 345
342 344 347 347 347 339 348 343 350 356 356 355 352 361 359 351 354 355 354 352 352 354 354 354 353 354 353 349 345 343 343 342 340 342 342 341 342 342 343 345 345 348 351 349 344 343 344 341 341
341 346 348 348 344 344 337 345 348 348 357 352 351 353 353 352 353 355 355 355 354 351 351 352 353 354 352 352 351 343 341 340 340 340 340 342 344 344 343 346 346 347 348 347 344 341 346 344 345
342 345 346 344 343 343 341 343 345 352 354 354 354 351 354 354 355 355 356 355 355 355 353 350 350 354 353 353 350 347 345 342 339 340 340 343 350 350 349 348 346 345 348 347 348 347 347 348 347
340 344 344 342 344 345 348 350 349 351 355 353 353 351 355 354 355 355 356 356 356 356 355 354 354 353 352 350 350 346 344 342 340 340 347 352 352 351 349 349 349 349 349 348 348 348 349 348 349
343 342 343 342 347 343 348 344 341 349 351 350 349 350 353 353 353 355 354 354 356 357 356 354 354 353 355 353 348 347 347 343 347 348 350 352 352 349 347 349 352 351 350 348 348 348 348 349 349
339 341 342 343 341 342 343 342 344 350 349 347 346 348 350 352 352 352 352 354 355 355 354 355 356 353 354 355 352 352 352 352 352 352 351 352 351 349 349 349 349 350 349 350 349 349 349 348 347
339 343 344 344 344 343 341 342 341 351 349 348 347 347 347 347 348 348 349 352 353 353 354 356 355 350 353 354 355 355 355 355 354 354 352 352 352 351 351 350 349 347 347 349 349 349 348 345 346
340 343 342 344 344 348 349 352 350 346 349 349 349 348 347 346 347 348 351 350 351 354 355 355 354 354 354 355 353 351 352 353 352 353 353 351 351 349 350 351 350 347 345 345 345 345 343 343 343
334 333 336 338 345 347 346 357 348 348 349 349 350 349 348 346 346 347 350 350 348 350 354 353 353 352 351 351 351 351 350 352 352 350 352 351 350 349 349 350 348 347 347 347 346 346 346 345 344
328 333 339 339 339 345 348 354 348 345 347 348 348 348 348 346 345 347 350 350 349 350 353 353 352 351 352 351 352 353 353 352 351 353 352 350 348 348 350 349 347 347 346 346 347 345 344 342 342
332 337 339 339 336 342 350 352 350 347 347 348 347 347 347 347 346 347 347 348 348 348 349 349 352 353 354 354 355 355 356 353 354 352 350 351 350 350 351 348 346 346 346 345 345 345 344 343 344
330 338 340 339 334 350 351 352 352 349 350 350 349 350 349 348 345 346 347 347 348 347 349 349 350 353 356 356 355 356 356 355 352 350 351 352 351 350 347 344 344 346 344 343 343 342 344 344 342
328 335 340 340 336 337 351 354 351 351 352 351 351 352 351 351 347 347 348 348 349 349 349 350 351 354 355 355 355 353 353 352 352 353 353 352 348 348 343 343 345 344 342 343 342 341 342 341 342
327 337 338 340 340 340 349 351 350 351 350 348 349 351 350 352 350 349 350 350 351 350 350 352 354 354 355 356 355 355 355 353 352 350 353 350 347 343 333 337 341 340 342 340 340 341 342 341 341
325 328 338 342 342 344 342 353 346 347 346 344 347 348 350 351 352 351 350 349 351 352 351 354 354 356 355 357 354 354 348 347 345 348 351 341 333 334 335 339 340 342 339 337 339 339 340 339 340
326 327 327 342 341 338 345 345 348 340 340 339 344 348 348 350 352 352 351 350 352 353 354 354 355 355 355 355 354 356 344 340 343 346 338 334 337 337 337 340 342 340 333 337 337 337 338 339 339
327 328 324 326 327 335 340 338 339 344 343 340 339 348 346 348 352 352 352 350 353 354 355 355 356 356 354 357 350 346 333 336 340 339 337 336 337 334 338 341 336 332 332 336 337 337 335 337 337
326 321 323 325 325 325 322 342 339 342 341 338 339 348 346 347 348 349 348 348 355 356 356 357 357 355 355 349 337 331 330 332 333 334 334 338 336 339 337 334 332 331 332 334 336 335 334 334 335
322 321 323 328 332 328 325 329 329 340 341 337 339 346 346 346 346 346 345 347 352 355 355 355 357 356 355 340 331 334 336 336 333 336 336 336 334 336 334 335 334 333 334 336 337 337 335 335 336
323 324 323 327 328 330 329 331 338 339 340 338 337 340 342 345 345 345 345 347 351 353 355 356 355 356 350 346 336 337 336 336 336 338 340 335 333 336 335 334 334 333 335 333 334 336 334 335 334
324 323 327 323 329 331 330 334 335 344 342 340 339 337 337 342 345 344 345 346 351 351 354 356 354 354 351 342 340 336 337 332 339 339 337 332 337 335 334 335 335 335 334 333 333 335 335 334 333
327 327 324 323 325 328 329 330 331 342 341 342 340 339 335 339 342 343 344 345 350 351 354 356 353 352 349 341 340 338 340 340 336 336 334 331 333 335 337 337 336 334 334 334 336 335 336 334 333
325 325 324 326 327 325 326 331 334 334 334 339 340 340 335 335 339 341 341 343 347 349 354 355 353 352 349 342 340 340 342 342 340 338 337 335 336 335 334 333 332 331 333 334 334 334 335 335 333

GFSSGP_925_thetae_009.txt.gz
Theta_e
347 347 353 354 354 344 357 355 350 353 355 352 351 354 355 352 351 354 345 346 346 348 349 351 351 352 352 350 348 349 350 345 341 339 338 338 338 339 340 341 342 341 339 340 341 342 344 344 344
345 349 354 353 340 346 348 351 355 351 352 352 353 353 355 357 348 349 349 347 346 348 349 351 352 352 345 345 346 346 350 346 340 339 340 339 340 341 344 344 342 340 341 343 345 345 343 344 343
344 351 354 356 338 348 352 350 351 351 353 354 354 352 354 354 349 350 347 348 349 350 351 351 350 349 348 346 344 340 342 341 338 337 337 337 339 342 344 344 340 340 343 345 345 343 343 343 344
347 345 346 337 337 340 353 349 347 351 350 354 354 358 353 351 350 350 346 349 349 351 351 351 348 351 347 345 342 338 337 336 335 335 337 339 341 345 346 343 342 344 345 344 344 343 344 344 345
345 341 340 335 336 352 351 347 347 350 356 356 355 358 356 353 351 349 350 348 348 350 350 349 349 348 347 344 341 344 345 346 342 343 344 342 343 352 349 349 350 347 345 345 345 345 345 344 345
339 338 342 347 344 352 351 348 349 358 358 356 356 357 356 353 351 352 351 346 347 349 349 351 350 350 346 349 347 345 345 344 344 344 344 346 350 352 352 351 348 345 348 351 347 348 347 346 348
341 342 347 345 343 353 351 351 359 358 356 356 353 358 356 354 353 353 350 346 346 348 350 350 351 352 352 350 346 342 342 340 342 344 343 345 346 345 344 345 346 346 349 351 352 352 346 346 346
341 339 345 343 347 352 350 349 355 355 358 352 351 357 357 354 354 353 350 348 348 347 350 349 353 353 353 351 350 345 342 340 341 344 344 345 343 344 344 345 345 350 351 353 348 346 343 342 342
339 341 343 346 342 342 348 352 355 353 355 351 351 352 351 354 354 354 353 353 351 350 350 351 350 352 349 348 352 354 347 342 340 345 346 346 346 345 344 345 346 346 347 348 345 343 345 345 346
342 340 343 342 340 341 344 351 352 356 354 355 353 351 351 354 354 354 354 355 355 356 354 352 351 351 352 349 347 347 347 345 343 343 345 343 345 349 348 348 348 342 347 347 347 346 346 346 348
340 344 342 342 342 336 343 347 347 355 356 353 356 354 351 353 354 354 354 354 352 350 352 352 352 352 351 352 349 346 345 343 342 342 343 345 349 350 350 347 348 348 349 348 347 348 348 347 347
335 340 341 340 347 342 344 344 352 350 351 349 353 353 353 353 354 354 355 354 353 353 351 349 349 352 351 351 350 347 346 344 343 342 343 350 351 351 348 346 349 350 350 348 347 348 348 348 348
331 337 340 341 342 343 339 344 348 349 349 349 352 354 354 354 354 354 355 354 354 354 353 352 352 352 351 352 348 346 346 347 345 346 348 350 351 350 349 348 348 348 350 349 348 348 348 347 346
336 340 342 341 341 341 345 349 350 351 349 349 354 355 354 354 354 354 354 353 355 355 354 353 353 352 352 354 353 350 350 351 351 351 352 352 352 351 350 349 349 349 346 348 348 348 347 344 343
340 344 344 344 343 340 344 348 354 349 348 350 354 353 353 352 353 352 351 353 354 355 355 353 353 353 352 354 354 352 353 352 352 353 352 351 351 351 350 349 348 347 347 346 345 345 344 345 344
340 337 348 345 345 346 346 355 353 349 348 349 349 350 351 350 348 348 350 352 353 353 353 353 355 353 352 353 354 352 352 352 352 352 352 352 351 350 349 348 347 347 346 346 346 345 344 342 341
329 346 342 345 342 347 349 352 351 349 348 349 349 348 348 346 346 347 349 351 352 352 353 354 355 353 353 354 354 352 351 351 352 352 351 351 349 348 348 347 347 345 345 346 345 344 343 341 340
341 337 346 348 347 344 350 350 352 350 349 350 349 348 348 347 345 347 349 349 350 351 354 354 353 353 352 352 352 353 353 353 353 351 351 350 349 348 348 349 347 345 344 343 344 343 343 343 342
329 335 345 344 340 349 350 351 350 349 348 349 349 348 348 347 344 346 349 349 348 348 351 352 352 352 352 353 354 355 354 355 354 353 352 351 351 350 349 347 343 343 344 343 342 342 342 342 341
326 331 338 337 342 347 350 353 348 347 348 347 347 346 346 346 344 345 347 348 348 348 349 352 352 351 352 353 354 354 354 353 351 351 351 351 350 347 346 343 343 344 342 341 341 340 341 341 342
326 328 332 338 339 348 351 353 352 350 348 346 346 346 346 346 346 345 345 346 348 347 347 348 350 349 351 354 354 354 353 354 352 353 353 351 348 346 341 335 340 341 340 339 339 340 340 340 341
330 327 332 338 339 349 348 356 347 350 351 350 349 348 348 348 346 345 346 347 348 347 347 348 348 349 351 354 354 354 353 352 348 348 351 350 345 335 335 336 338 340 339 337 337 337 338 338 338
329 326 326 334 338 342 345 347 347 347 350 350 349 347 350 349 347 346 346 347 348 347 348 348 350 352 353 354 355 354 354 348 342 345 350 345 333 335 335 338 339 341 336 336 336 337 337 337 337
327 326 321 324 331 342 346 341 341 349 350 349 346 345 350 348 349 347 347 347 348 349 349 350 351 353 354 354 356 353 354 343 340 347 343 334 336 335 335 337 341 335 334 335 336 336 335 336 336
323 320 322 330 338 342 332 340 339 341 346 346 345 343 347 347 350 349 349 348 348 350 352 351 351 354 354 354 355 353 354 337 340 342 337 335 337 337 338 339 333 330 332 334 335 336 334 334 335
321 320 322 324 328 332 326 343 341 336 340 343 342 341 345 345 349 350 350 348 348 351 352 353 353 354 354 355 354 353 339 331 333 337 336 336 336 333 335 333 332 333 332 335 336 335 336 334 335
323 321 319 321 324 326 325 327 329 335 336 340 338 337 344 345 347 350 350 349 349 351 352 353 354 354 354 354 353 341 330 333 332 332 335 336 334 334 334 334 334 333 333 334 332 333 334 335 335
322 320 324 320 326 330 327 330 330 335 337 338 337 337 342 344 345 347 349 348 350 352 353 353 354 354 354 353 350 337 332 335 335 335 337 339 334 334 335 335 333 333 333 333 332 332 334 335 333
324 322 320 320 322 325 327 328 326 332 336 337 337 337 340 343 344 344 346 346 346 351 352 353 354 353 352 352 350 337 335 335 335 336 339 339 335 336 335 334 336 336 335 333 333 334 335 335 334
320 322 321 324 324 322 324 327 327 330 336 337 337 336 335 339 342 343 343 344 344 347 350 352 353 351 350 351 349 339 335 336 333 334 335 333 330 331 333 336 335 334 332 332 334 333 333 334 334

GFSSGP_925_thetae_012.txt.gz
Theta_e
349 350 353 354 345 346 355 354 350 354 354 350 351 353 353 351 352 352 344 346 348 348 346 348 351 351 351 348 348 347 347 348 345 344 340 338 337 336 338 341 342 341 340 343 343 342 344 345 346
347 351 353 351 343 352 351 350 352 353 352 351 352 353 354 354 349 348 347 346 348 349 349 348 350 351 351 351 350 348 348 349 340 338 338 337 338 340 342 343 343 342 344 344 344 345 345 345 343
349 350 352 348 337 348 353 350 354 354 352 353 354 352 353 353 349 348 346 347 348 349 350 351 351 350 351 352 350 348 343 340 338 339 339 341 343 345 343 344 342 342 344 343 344 344 344 344 346
347 345 340 332 338 344 349 348 352 354 354 353 353 358 352 350 349 348 346 347 348 349 351 351 352 352 352 352 351 352 344 342 340 342 345 346 347 347 347 346 345 345 343 343 344 344 346 346 345
345 337 333 336 340 352 349 346 348 353 357 356 354 357 355 351 349 344 348 348 349 349 350 351 351 351 352 351 350 349 347 340 340 342 346 347 348 348 346 345 345 343 344 345 346 346 347 346 346
337 334 338 343 343 352 349 345 349 358 356 355 355 355 356 350 348 348 348 348 349 350 350 351 352 352 352 352 347 340 341 341 337 341 343 345 345 344 343 342 345 345 347 351 349 350 349 348 347
344 339 343 342 351 354 351 349 357 358 356 355 352 356 354 350 350 349 348 347 349 350 351 352 352 353 350 345 343 342 343 344 342 341 345 345 343 343 343 343 345 347 349 352 353 349 344 345 344
337 335 344 341 353 354 349 354 354 352 356 350 349 356 356 352 352 350 347 348 350 350 349 351 352 352 348 346 348 345 344 343 343 343 344 343 343 341 345 345 344 345 348 354 351 342 344 344 342
337 337 342 342 345 345 348 357 353 352 354 352 351 350 350 353 353 352 350 350 349 349 349 351 351 351 349 346 351 350 349 348 347 346 344 343 342 343 346 346 346 345 345 347 347 345 345 345 346
338 339 340 338 337 347 348 355 354 355 353 354 353 352 353 354 353 352 351 351 351 351 349 348 351 351 351 347 349 351 348 345 343 344 342 342 342 343 345 347 347 346 342 346 346 346 345 346 347
340 341 340 340 337 346 348 351 348 352 354 353 354 354 353 353 353 352 351 350 351 348 349 350 348 349 348 345 345 347 344 343 342 341 342 342 345 348 349 348 347 346 348 348 347 347 347 346 346
337 339 340 340 342 341 346 346 353 350 350 349 349 352 353 353 353 352 351 352 352 353 351 352 351 350 350 350 347 345 343 342 343 342 342 343 347 349 349 346 347 349 349 349 347 348 347 347 346
329 328 338 340 338 339 343 347 352 348 348 349 349 352 353 352 353 352 352 352 351 352 350 349 350 351 351 349 350 348 346 346 345 343 342 342 348 348 348 347 348 347 347 348 348 348 348 347 344
326 336 340 341 341 340 345 348 349 350 351 353 351 352 352 352 352 353 353 353 351 349 347 346 347 348 350 349 349 348 347 345 346 346 347 347 349 348 349 349 349 349 348 346 346 346 346 344 344
338 343 342 342 339 344 344 349 350 350 351 355 355 354 353 352 353 353 353 353 352 350 350 349 350 351 351 351 352 350 349 349 350 350 351 350 351 350 349 348 347 347 347 346 345 345 345 345 342
339 340 345 344 341 343 343 349 352 349 351 355 356 355 354 353 353 353 353 353 353 353 353 351 351 352 353 351 353 353 352 352 351 352 351 350 350 350 350 348 347 347 346 345 345 345 343 341 340
334 345 344 348 342 344 347 350 351 348 349 354 356 355 354 353 351 352 352 352 352 353 353 353 352 352 353 351 352 352 353 351 352 352 351 350 350 349 349 347 347 346 345 345 344 343 342 339 339
339 343 342 349 344 347 348 349 352 348 348 351 352 352 352 352 350 349 349 351 352 352 352 352 352 353 353 351 352 354 353 352 352 353 352 350 350 348 347 348 348 345 344 342 341 340 340 340 341
333 342 344 344 342 345 348 349 353 350 348 349 348 348 349 348 346 347 347 349 350 351 351 352 352 353 354 352 354 353 353 353 353 353 352 351 350 349 349 348 345 343 343 341 340 340 341 340 340
334 338 341 339 342 345 350 352 351 351 350 348 348 347 347 346 343 344 346 348 348 350 351 351 353 353 353 353 352 352 353 354 354 353 351 350 350 350 347 344 343 343 342 340 339 340 339 339 340
326 329 335 341 344 347 350 353 349 350 348 347 346 346 345 346 344 343 345 348 348 347 349 350 352 351 352 351 352 354 353 352 351 350 351 350 349 347 346 341 335 338 338 339 337 338 339 339 339
327 325 328 339 345 346 344 345 350 348 349 347 346 345 345 345 344 343 344 346 347 348 348 347 349 350 351 351 353 354 353 352 349 349 348 350 348 345 340 332 333 335 338 338 336 338 338 338 337
327 326 329 336 339 343 350 342 341 349 350 348 346 345 344 344 344 344 344 345 346 347 348 347 347 348 349 350 351 354 353 351 349 345 346 350 347 340 333 335 335 337 339 336 336 335 336 336 336
324 321 322 324 332 340 342 344 339 350 352 349 347 347 346 345 345 344 343 344 345 346 347 346 346 347 348 348 351 353 353 351 348 342 345 349 343 333 335 336 338 340 338 333 335 336 335 336 336
320 321 323 328 337 339 333 344 341 339 346 346 346 346 346 346 346 345 344 345 345 346 346 346 346 347 348 349 352 353 354 352 349 341 345 346 334 335 334 335 338 337 331 333 335 335 334 334 334
321 321 323 326 329 337 334 347 344 339 337 342 342 344 343 346 347 346 345 345 346 347 347 347 348 348 348 350 352 353 354 351 350 337 343 340 334 335 334 337 336 331 329 331 334 335 335 335 333
320 321 319 319 321 324 326 326 329 330 331 337 340 341 342 345 347 348 346 345 346 346 347 348 349 349 349 350 352 352 353 351 344 333 340 337 335 335 336 335 333 333 332 332 334 332 333 334 335
319 318 322 317 324 328 325 327 329 331 334 331 336 340 341 342 346 348 348 347 347 347 347 348 350 350 350 350 352 352 352 351 333 328 330 331 333 334 334 333 334 334 333 332 333 331 331 333 334
320 319 317 317 318 322 323 325 323 327 329 332 334 338 338 340 343 346 348 348 348 347 348 349 350 351 351 351 351 351 352 342 330 331 329 333 335 335 332 334 334 333 333 333 333 332 333 334 333
319 318 318 322 320 319 320 323 324 326 327 333 333 336 334 337 341 343 347 348 348 348 348 349 350 351 352 351 350 350 351 339 332 334 332 335 337 337 334 334 334 334 335 334 333 332 333 332 332

GFSSGP_925_thetae_015.txt.gz
Theta_e
355 357 355 354 353 351 357 356 351 356 354 352 350 351 354 352 352 357 346 348 348 349 348 350 346 346 346 348 348 348 346 346 345 343 340 337 337 339 342 343 343 345 347 348 344 344 345 344 345
354 353 353 355 351 355 356 352 356 353 354 352 353 353 354 355 349 348 349 349 348 348 349 352 350 348 348 348 347 346 348 350 346 344 339 338 340 342 347 344 343 343 347 345 345 346 346 343 344
352 351 357 346 349 351 356 352 355 355 353 352 354 351 351 353 348 347 348 350 351 351 350 353 350 351 349 348 348 350 352 352 346 341 339 342 349 348 344 342 339 343 345 346 346 344 344 344 343
350 350 345 342 348 351 352 353 355 356 355 353 350 354 351 348 347 348 350 351 352 352 352 352 352 352 352 351 352 351 349 345 342 342 346 350 347 341 342 339 343 344 345 346 346 346 347 346 344
345 343 340 346 351 354 350 351 354 356 357 353 351 355 352 352 349 348 350 351 352 353 354 354 350 349 349 350 351 348 348 344 344 345 346 345 343 343 343 345 346 346 346 347 347 346 348 348 347
345 340 343 346 352 353 349 351 355 357 356 353 352 351 353 351 348 349 349 350 350 352 353 353 351 350 349 352 351 349 342 343 340 339 342 343 344 344 344 345 344 346 349 352 351 352 346 344 344
345 343 346 346 355 354 351 350 356 356 355 354 349 355 353 350 347 349 349 350 351 352 352 354 354 354 350 350 352 349 342 340 335 337 340 342 342 342 341 341 343 344 348 351 353 347 343 342 341
342 343 346 346 352 351 351 353 355 353 355 350 349 356 355 351 348 349 349 350 351 352 354 355 355 355 352 352 352 351 347 344 344 343 342 344 343 341 341 346 347 345 346 346 348 343 345 345 344
339 343 345 345 350 350 351 354 354 352 354 351 351 351 347 351 349 348 350 351 353 353 354 354 354 354 354 354 353 349 345 344 344 345 345 344 351 351 351 347 347 345 345 345 346 346 346 344 346
345 346 344 341 345 349 352 354 356 356 353 353 354 351 351 352 349 348 348 350 351 352 353 354 354 352 352 351 353 353 352 350 350 351 353 352 350 347 348 345 348 345 343 346 345 345 346 348 349
344 345 343 343 342 348 351 353 353 355 354 352 356 355 353 352 351 349 348 348 349 351 352 353 355 354 354 354 353 355 353 351 351 351 349 351 349 346 351 352 350 348 349 351 350 347 350 349 349
342 341 342 342 343 348 351 351 352 352 346 348 352 352 352 352 351 349 349 349 349 350 351 352 353 354 354 352 351 352 351 351 350 350 343 345 347 347 349 351 347 347 347 349 349 350 348 350 348
332 332 338 341 343 347 349 352 351 352 348 349 352 352 353 352 351 351 350 349 350 351 351 353 354 353 354 353 352 350 350 349 349 350 346 347 348 346 346 347 347 346 347 350 346 345 347 350 348
329 334 339 343 342 346 349 351 350 349 351 353 353 353 352 352 352 352 351 351 351 351 351 353 354 355 354 354 351 353 353 351 350 351 350 342 344 346 346 345 346 346 347 350 347 347 348 348 347
342 346 346 344 344 347 348 353 352 351 353 354 353 353 353 352 352 352 351 351 351 350 350 350 352 354 354 354 351 349 353 346 351 352 347 348 349 348 348 346 346 345 349 347 348 348 348 347 345
343 345 348 346 345 347 346 348 350 352 354 354 353 353 353 352 352 352 352 352 353 351 351 351 350 351 353 354 353 353 353 352 351 349 349 348 349 347 346 346 346 345 347 348 348 349 347 346 344
344 344 347 350 345 348 348 347 350 352 354 355 353 353 353 353 353 353 353 354 354 353 353 353 353 353 355 353 354 355 351 350 349 351 351 348 348 348 348 345 345 347 347 345 348 347 345 341 339
345 347 347 350 347 348 350 351 353 353 354 355 355 354 354 355 355 354 354 354 354 354 354 355 354 355 354 355 354 355 354 353 354 350 348 348 348 347 348 345 346 347 345 347 345 345 344 342 342
340 345 347 348 347 349 350 350 354 353 353 354 356 357 355 354 352 352 353 353 354 354 354 355 356 355 355 356 356 355 354 355 352 348 349 350 348 349 348 347 348 345 346 346 345 344 343 342 343
342 344 346 347 347 348 349 350 351 354 354 352 353 355 355 354 354 353 353 352 352 354 354 355 356 354 354 356 356 355 356 355 355 354 353 351 351 350 350 349 348 346 346 344 343 343 342 341 343
340 345 346 346 346 348 351 350 352 353 353 351 350 350 351 352 353 352 351 351 351 352 353 354 354 353 353 355 356 355 353 354 354 354 353 352 349 349 349 345 345 341 339 340 343 342 342 340 342
333 337 344 346 347 349 348 350 352 352 356 354 352 350 350 350 349 349 349 350 351 351 352 353 353 353 353 354 355 355 354 354 354 351 351 353 348 348 346 343 332 333 339 340 341 340 341 341 339
333 332 339 343 347 346 351 349 345 352 355 355 353 351 350 348 348 348 348 348 350 350 350 352 352 352 353 354 353 355 355 355 354 350 350 353 349 347 344 333 332 332 338 338 335 339 340 339 339
328 331 333 340 342 346 345 348 342 353 353 351 350 350 350 348 348 347 346 347 348 349 350 351 351 349 350 351 353 355 355 355 352 349 347 349 348 346 340 333 335 335 339 339 336 338 338 339 339
329 331 335 337 342 339 337 350 345 343 347 348 348 349 348 348 347 348 349 348 349 349 350 350 350 350 350 352 353 353 355 356 353 350 347 346 346 343 335 333 335 339 339 333 334 335 338 337 338
329 330 334 338 338 336 337 344 343 343 341 344 347 347 348 348 349 348 351 349 348 349 350 350 350 351 351 351 351 351 353 355 353 349 347 344 344 342 335 334 335 337 336 331 334 337 338 337 336
329 330 331 332 328 335 337 341 337 339 340 341 343 346 348 348 349 349 349 348 349 349 350 350 350 350 350 351 351 353 353 354 352 349 347 340 343 339 334 333 335 337 331 332 336 336 336 335 337
326 327 328 329 339 335 333 335 333 340 342 343 342 345 346 348 349 349 351 350 349 349 350 350 350 349 349 352 352 353 353 352 351 349 346 337 341 337 335 334 336 333 333 333 333 335 334 335 336
324 325 327 329 331 336 335 333 336 339 342 341 342 342 344 347 348 350 352 350 350 350 350 351 351 351 351 351 351 352 352 351 348 347 344 336 336 336 334 334 334 336 335 333 333 335 336 336 337
323 325 328 331 334 329 332 332 331 335 337 338 341 340 341 345 347 349 350 350 349 350 350 350 351 351 351 351 352 352 349 349 348 348 337 327 330 330 333 333 333 334 334 336 335 337 335 336 336

GFSSGP_925_thetae_021.txt.gz
Theta_e
349 352 357 360 370 361 357 354 353 357 356 351 350 358 357 359 356 357 347 351 349 350 349 349 346 346 347 351 347 346 343 344 344 346 345 347 351 353 353 353 354 354 353 352 352 352 352 351 350
354 357 360 364 361 357 356 353 354 354 353 351 351 352 355 357 350 349 349 350 349 348 349 349 348 349 350 352 350 349 346 346 345 343 342 342 352 353 353 353 354 352 350 351 351 351 351 352 351
357 358 363 366 352 356 355 353 352 351 350 351 352 351 354 355 350 351 349 348 347 349 351 349 346 348 353 353 353 349 349 352 345 341 340 344 354 354 353 353 352 350 351 349 350 351 352 352 352
358 356 358 347 343 349 352 351 350 351 351 350 352 355 351 349 350 350 351 351 351 351 352 349 347 347 353 353 353 354 354 350 344 343 346 354 354 353 352 353 352 352 352 352 351 352 352 353 352
354 355 348 340 344 347 350 350 350 352 350 351 352 357 354 350 350 350 351 351 352 352 353 351 348 350 353 353 354 354 353 349 344 345 353 354 354 352 353 352 348 349 352 352 353 353 350 349 351
355 347 339 340 340 344 348 348 348 350 350 350 353 355 356 351 351 351 352 352 351 352 352 353 353 353 354 354 354 352 352 349 345 348 350 354 352 350 352 351 347 351 353 353 355 353 344 343 344
354 348 339 339 341 341 344 345 347 348 348 351 351 358 354 352 351 351 352 351 351 351 352 352 353 352 354 354 352 353 353 350 347 349 351 348 346 342 338 340 344 347 352 353 352 347 344 343 342
351 345 339 341 341 340 342 345 344 346 348 347 350 357 357 352 350 349 349 349 350 352 351 352 352 352 354 354 353 353 353 347 347 348 345 343 339 336 344 348 351 346 345 348 350 344 344 342 343
347 347 346 340 341 340 341 343 343 346 346 346 347 351 350 350 349 348 348 349 351 352 352 352 353 351 351 352 352 351 351 350 350 343 342 341 352 352 353 353 347 346 345 344 344 345 343 344 349
348 352 346 340 343 342 341 341 344 346 346 348 347 349 349 350 349 349 348 351 351 352 352 351 351 351 350 348 352 350 350 349 349 350 352 350 351 352 350 349 347 346 346 346 345 342 349 350 352
344 349 342 340 342 343 342 342 343 346 346 347 348 351 349 349 349 349 348 349 349 352 351 350 352 350 349 352 350 350 350 350 350 352 352 351 351 350 349 351 354 354 351 353 352 352 352 351 349
343 345 342 343 340 343 342 344 341 342 344 344 347 349 349 350 350 349 349 349 350 351 349 348 350 352 351 350 349 349 348 348 348 350 352 352 351 349 351 349 352 351 350 351 351 351 353 349 350
339 342 339 338 340 340 342 344 342 340 342 343 347 349 350 349 348 347 347 348 349 350 349 349 350 353 352 354 349 349 348 348 347 348 351 350 349 349 351 351 351 352 351 350 351 350 351 350 350
337 338 337 336 338 340 343 344 343 341 343 346 349 349 349 348 347 347 347 348 349 350 350 350 352 353 354 353 355 351 350 349 348 348 348 353 351 350 350 352 351 351 349 351 351 351 352 351 349
336 336 339 338 339 341 342 344 344 344 346 347 349 349 348 347 346 347 347 348 349 350 350 351 352 353 355 354 354 352 351 349 349 349 351 352 355 354 355 354 352 350 350 353 353 353 352 351 349
336 338 340 339 339 341 342 345 344 346 346 350 348 349 348 348 347 347 347 347 348 349 349 351 351 351 354 354 355 353 351 351 351 350 352 353 354 355 355 353 351 351 351 352 351 350 349 342 340
336 339 339 340 340 345 345 352 345 347 345 346 349 348 349 349 348 347 347 348 348 349 350 351 351 351 353 354 354 353 352 354 353 352 352 353 354 355 355 351 350 354 351 352 351 348 344 341 335
339 339 340 346 341 345 345 349 348 349 347 344 347 347 348 348 349 348 348 348 348 349 350 352 352 352 352 354 355 355 354 355 352 351 354 352 354 353 353 352 353 353 352 351 349 346 343 339 336
338 340 340 340 340 344 346 346 348 350 350 346 344 347 347 347 348 348 349 348 349 349 352 353 353 353 354 355 356 355 354 352 351 352 353 355 355 354 354 352 352 353 350 349 346 343 336 336 340
336 340 341 340 341 342 344 346 348 351 351 350 348 346 347 347 347 348 349 348 350 351 353 355 356 356 357 357 355 353 350 348 350 354 354 356 354 354 354 353 352 352 346 348 343 339 338 336 339
335 338 340 340 343 345 346 348 346 347 350 350 349 347 347 346 346 348 350 350 350 351 353 357 358 359 359 357 355 356 354 351 352 347 350 354 352 352 354 354 350 351 345 336 341 341 340 338 338
334 336 338 339 348 352 344 350 348 346 347 350 351 350 348 347 346 346 349 351 351 351 354 357 360 360 360 360 357 354 354 351 347 346 347 347 348 348 351 348 347 347 338 339 339 339 341 338 337
333 336 338 338 341 346 344 345 346 345 346 346 350 351 349 347 347 346 348 349 350 351 353 356 360 362 361 361 357 356 354 349 349 347 349 347 349 348 346 348 347 343 335 340 342 340 341 341 336
330 335 337 338 339 346 347 347 347 347 346 346 345 349 351 349 348 348 346 347 348 350 352 353 360 363 364 362 362 360 358 352 351 350 350 347 348 347 347 348 346 342 337 342 342 340 341 339 340
329 334 339 341 342 342 346 346 352 344 345 344 343 344 348 351 347 347 349 348 348 350 351 352 359 365 365 363 362 361 360 358 355 355 350 346 346 346 347 348 348 343 342 344 342 341 340 338 339
329 332 338 343 342 341 341 346 346 345 341 342 342 340 344 350 350 346 347 347 347 348 353 354 357 364 365 364 364 362 362 358 356 353 351 345 344 344 348 351 347 343 343 343 342 339 338 338 338
328 332 334 337 338 340 340 340 340 342 342 341 340 339 339 348 350 347 346 345 345 348 352 355 356 362 364 364 365 364 362 360 354 352 352 350 343 342 344 349 346 344 342 343 341 338 339 339 338
326 330 335 338 345 345 340 340 341 343 341 340 339 338 339 341 348 348 347 346 346 346 349 353 356 362 364 363 365 364 363 362 359 357 357 352 346 343 345 347 345 343 342 342 341 338 338 339 337
325 329 332 335 338 341 342 342 338 341 341 340 339 338 338 339 345 349 348 346 347 346 347 352 357 360 363 363 363 362 362 360 361 358 357 355 350 347 345 347 345 342 343 340 341 341 340 338 338
327 327 330 342 341 338 339 338 338 337 338 337 338 338 338 338 340 345 348 348 347 349 348 350 353 356 361 361 364 363 362 359 359 360 358 358 353 349 346 346 345 343 341 337 332 340 339 337 338

GFSSGP_925_thetae_024.txt.gz
Theta_e
347 353 356 350 365 365 364 360 356 357 356 352 352 359 355 358 354 362 349 351 351 351 351 351 348 346 347 348 344 344 344 346 344 345 348 351 352 351 352 352 353 354 353 353 352 352 352 351 351
352 355 358 354 366 365 362 356 361 356 351 354 354 356 353 354 349 351 351 350 349 349 349 348 344 344 347 345 342 344 344 346 345 345 349 351 352 352 353 354 354 351 352 352 353 352 352 352 351
354 355 365 372 356 365 359 355 351 353 352 352 354 354 352 355 350 350 349 348 348 348 351 347 347 350 350 348 347 348 350 347 344 345 349 352 353 352 353 353 350 350 352 352 352 353 352 352 352
359 360 363 368 354 354 353 349 350 350 352 351 351 356 351 349 349 350 348 349 350 352 350 346 349 353 353 351 352 352 349 345 344 348 353 351 350 351 353 353 352 352 352 353 353 353 352 352 349
361 361 367 347 350 352 349 351 350 350 353 353 352 357 357 350 348 349 349 350 351 352 351 350 348 353 353 352 353 353 351 345 345 350 352 354 352 353 351 351 351 352 353 354 355 352 349 346 344
362 357 363 341 341 348 347 351 348 349 351 353 353 356 354 350 352 351 350 351 352 352 352 353 352 353 351 353 352 353 349 346 345 349 348 345 345 344 346 344 349 352 353 354 351 346 344 343 341
357 357 351 338 339 343 344 344 348 347 350 352 353 357 352 351 351 350 350 351 351 352 353 354 354 355 352 353 353 351 349 344 346 345 342 343 345 341 339 343 344 344 345 347 348 345 343 342 341
352 354 352 342 340 339 341 344 343 343 350 348 350 354 355 351 351 350 351 351 351 352 353 354 354 355 354 353 352 348 345 345 343 339 339 343 346 344 345 351 351 345 345 343 343 342 342 343 345
348 354 352 344 340 340 341 341 345 345 346 349 349 349 350 347 348 352 352 350 350 351 351 353 354 355 354 352 349 348 347 345 341 338 340 341 341 350 353 354 349 343 343 344 343 342 344 348 351
350 353 348 345 343 339 342 341 342 343 345 346 352 349 348 347 348 349 352 352 351 351 350 352 351 351 353 351 349 350 350 349 345 349 351 347 352 353 352 348 349 350 348 349 349 345 346 351 352
347 352 347 347 343 340 340 341 340 344 345 345 352 351 349 348 347 346 351 350 352 352 351 353 351 350 349 351 346 351 351 350 350 352 352 354 352 351 351 352 353 351 353 354 353 347 341 352 352
349 346 345 344 341 343 341 340 340 344 343 344 349 350 350 349 347 346 350 348 352 350 351 352 351 351 352 350 347 351 352 350 352 352 351 349 353 348 349 352 350 351 351 352 353 350 350 351 350
339 347 344 339 339 341 342 342 339 341 343 344 347 349 350 349 347 345 346 348 351 350 350 354 353 349 352 354 350 350 350 348 348 351 351 350 351 350 351 349 349 352 350 349 351 350 351 349 349
336 338 340 337 337 338 343 343 340 340 342 344 347 348 348 348 347 347 347 348 351 350 349 351 352 352 351 353 354 352 351 350 347 348 353 350 348 351 354 351 351 351 350 350 351 352 350 350 352
335 336 337 337 337 339 341 344 342 340 342 345 346 348 347 347 347 348 347 349 350 349 349 351 352 354 350 352 354 355 351 349 349 348 352 353 354 353 349 354 353 352 351 351 353 349 351 351 352
333 335 338 338 337 339 340 348 341 342 341 344 347 347 348 347 346 347 347 349 349 350 351 352 351 354 353 355 355 352 350 351 351 352 350 350 352 352 351 352 353 352 351 351 351 351 348 348 340
333 335 338 339 338 340 339 349 346 345 342 344 346 347 347 348 347 347 347 348 350 350 352 351 352 353 356 354 354 354 354 352 350 351 351 352 352 354 352 353 352 353 353 351 350 350 346 343 338
333 335 337 340 340 340 342 349 345 344 343 344 345 347 348 347 347 348 347 347 349 350 351 352 352 352 355 354 354 356 354 356 353 355 350 352 354 350 353 353 354 352 352 352 348 348 344 338 336
333 336 338 340 342 341 347 353 350 348 346 342 345 345 346 347 348 347 347 348 349 350 353 353 353 352 358 359 357 355 356 355 350 353 352 354 355 354 352 352 352 351 350 350 347 343 338 338 339
333 336 340 340 345 346 342 354 351 351 348 344 343 345 345 346 348 349 349 349 349 350 352 355 354 356 353 356 356 355 353 356 351 351 349 352 354 353 350 351 352 352 350 349 344 340 339 337 338
332 335 339 341 342 342 342 343 344 348 348 348 346 344 344 345 346 350 351 350 350 352 355 356 356 357 355 357 355 353 355 357 354 355 352 355 356 353 352 354 352 352 345 346 341 341 341 339 341
333 334 336 337 343 346 344 346 350 347 351 348 346 346 345 345 346 346 350 352 351 352 355 358 359 357 361 353 359 356 356 354 347 347 353 356 353 351 354 351 349 349 342 343 340 340 340 338 339
333 334 335 335 339 346 350 347 348 349 352 351 348 346 345 346 345 345 348 350 350 352 355 360 361 361 361 360 359 359 357 348 350 349 349 353 350 347 352 348 348 347 335 340 342 340 336 343 337
331 332 334 335 338 346 347 348 351 351 349 347 348 347 349 347 347 346 346 348 351 352 355 357 364 364 361 362 359 357 358 352 351 351 350 348 351 349 347 347 348 343 337 344 342 340 341 339 340
327 330 336 339 342 342 344 351 352 348 347 346 345 346 349 350 348 349 348 349 352 352 354 358 364 366 365 364 365 355 358 355 351 355 353 349 348 348 347 350 347 344 337 342 342 341 342 340 338
326 329 336 341 342 340 340 342 350 348 346 344 344 345 347 349 350 350 351 349 352 352 354 356 364 366 367 364 366 364 354 363 358 353 356 349 348 349 348 347 347 345 340 344 343 341 337 339 338
327 328 329 332 336 340 340 340 340 346 344 347 344 343 343 349 351 350 352 351 351 353 354 355 364 366 368 368 365 367 363 359 362 356 354 352 345 348 349 347 348 344 344 342 343 339 338 341 340
327 328 328 330 338 344 341 344 345 349 348 347 345 344 342 346 349 351 349 351 351 352 354 356 359 366 368 368 368 366 366 362 359 358 354 350 353 345 349 349 349 345 343 343 342 338 339 339 339
327 326 327 329 333 339 344 343 343 347 350 348 346 344 342 340 347 350 349 348 349 350 353 356 357 365 368 368 368 367 367 366 362 360 357 358 350 348 351 351 349 346 344 343 342 340 340 339 339
328 327 327 331 339 336 340 342 339 342 345 347 344 343 341 341 341 346 350 350 349 349 351 354 357 359 366 367 367 368 367 366 366 361 362 358 356 353 345 349 347 346 345 343 342 338 342 340 340

GFSSGP_925_thetae_027.txt.gz
Theta_e
347 349 353 346 365 362 365 363 355 354 356 353 352 355 356 357 355 356 349 348 347 345 346 345 348 350 349 347 347 349 345 341 343 347 350 347 348 349 349 350 352 351 352 352 349 349 350 351 350
347 355 341 347 364 367 366 356 360 357 356 354 355 352 353 356 350 350 350 350 349 348 345 345 343 346 346 344 344 346 348 345 347 349 349 348 348 349 351 352 353 352 352 351 350 350 352 351 349
353 350 350 354 362 366 364 357 356 358 355 354 356 351 353 355 351 350 350 350 350 349 345 343 342 343 344 344 343 344 346 343 343 347 349 351 351 352 352 353 352 350 353 353 351 352 353 352 345
353 355 359 369 362 357 355 352 353 355 354 354 353 355 350 350 349 350 349 349 349 348 343 345 345 344 346 344 345 345 343 343 345 349 350 350 348 350 351 349 350 351 353 353 353 352 347 346 344
356 360 366 368 356 352 348 349 352 354 356 354 353 356 354 349 349 348 348 351 350 347 346 350 350 349 347 348 346 346 346 344 348 348 349 347 349 350 345 346 348 352 353 354 354 350 343 339 342
362 360 366 365 351 351 348 347 352 354 356 356 356 354 353 349 348 349 350 352 351 347 347 351 351 350 350 350 351 348 344 345 349 347 346 347 343 340 342 344 345 347 352 352 348 345 343 340 339
366 359 362 359 351 344 349 347 354 354 355 355 352 355 351 349 348 349 351 352 351 351 349 350 351 352 353 351 353 349 344 345 345 342 342 342 339 340 342 345 345 345 344 345 344 344 342 342 342
352 355 358 351 343 341 347 344 351 353 355 350 352 360 357 350 350 350 351 352 352 352 351 351 349 353 352 348 352 351 344 342 340 337 336 339 339 339 346 350 350 344 344 342 341 342 343 345 348
347 355 357 351 340 340 339 346 348 351 353 351 350 353 351 351 350 351 352 352 353 353 352 351 351 350 348 346 351 346 340 337 336 334 338 339 340 348 351 352 347 346 344 347 342 345 347 349 351
353 354 349 345 343 338 342 347 347 350 352 352 351 350 351 350 350 351 351 352 353 353 353 351 352 351 349 346 343 338 335 334 332 337 346 345 347 349 351 351 349 348 350 349 348 344 339 346 350
349 351 345 344 343 341 338 340 341 343 352 351 352 350 350 351 351 351 351 351 351 352 354 353 353 354 352 350 338 335 338 340 345 348 350 352 352 351 350 349 351 350 351 351 350 351 348 350 352
346 344 342 342 343 340 339 338 342 342 344 349 348 346 346 351 351 351 351 350 350 350 351 351 349 353 352 351 343 344 348 348 350 351 351 353 350 346 350 352 351 352 352 352 351 349 349 348 350
346 345 341 341 341 340 338 339 342 343 349 349 348 347 347 345 350 351 351 351 350 350 351 351 349 350 348 351 347 350 351 351 351 351 353 345 347 351 351 352 349 350 349 350 351 351 350 348 348
343 345 342 338 339 340 341 339 341 344 349 350 350 348 347 345 344 349 349 352 352 352 352 353 351 351 352 350 352 355 353 353 353 352 351 348 350 351 352 351 348 351 352 350 350 350 346 345 349
332 335 343 341 334 341 341 340 342 343 348 350 350 349 348 346 345 345 350 351 349 346 350 353 350 353 353 352 353 352 352 350 348 350 352 350 350 348 349 349 350 351 351 351 350 349 347 349 347
330 329 330 333 334 336 340 345 339 340 346 349 349 349 349 347 345 346 349 351 348 346 354 353 351 348 345 345 351 350 350 351 348 350 351 354 350 351 350 348 349 352 351 351 349 348 349 345 339
325 328 329 332 334 338 340 344 342 338 344 346 347 347 347 346 345 346 348 350 350 349 353 353 354 352 351 344 346 353 347 350 351 350 351 350 351 351 352 348 351 353 352 351 350 350 344 341 338
325 328 328 332 338 338 342 343 342 339 341 345 346 346 346 345 345 347 347 348 350 348 350 351 351 354 353 350 350 352 351 353 353 349 350 352 352 351 351 351 352 352 351 352 348 346 341 335 337
327 328 330 332 339 340 345 344 342 340 340 342 345 345 345 345 343 346 346 349 349 350 350 350 352 356 354 354 354 354 357 355 354 353 354 352 352 352 353 350 352 351 349 348 349 343 338 336 338
326 328 330 332 339 341 348 347 343 339 339 341 343 345 345 345 344 346 346 348 350 351 351 351 350 352 357 354 353 355 355 353 353 352 349 353 352 353 350 348 348 350 352 349 345 336 337 339 339
326 327 329 333 341 342 347 354 344 341 342 343 342 343 344 344 344 346 346 347 349 350 353 352 351 352 357 356 355 355 353 351 355 355 353 354 354 353 349 350 351 353 349 348 339 338 339 338 340
325 328 330 332 340 344 346 354 350 345 345 345 342 342 342 344 344 345 346 347 348 351 352 353 352 352 354 356 356 356 356 357 356 354 352 350 353 354 352 350 352 349 339 342 338 341 340 337 336
325 328 330 331 332 344 344 345 346 349 349 347 343 341 341 341 343 345 347 347 349 351 353 354 352 352 354 354 356 353 353 352 354 351 352 352 355 349 350 348 351 347 341 341 341 339 338 342 341
325 326 328 330 331 339 343 343 344 343 349 347 345 343 341 340 342 344 346 348 348 351 355 357 355 354 356 356 354 358 355 356 351 349 350 356 354 350 352 350 347 346 338 342 341 340 332 340 340
323 322 327 331 332 333 341 345 344 342 344 347 347 345 342 341 341 341 345 348 348 351 354 359 358 358 357 358 355 354 358 356 353 354 351 352 349 348 348 346 347 348 334 342 340 339 338 337 337
322 321 326 330 332 332 332 345 345 343 343 346 344 343 340 344 342 341 342 346 349 349 354 361 360 360 361 359 358 355 355 359 354 352 352 349 349 349 348 347 348 347 335 343 341 341 340 340 336
323 321 322 323 327 331 333 334 335 342 344 343 342 341 341 341 344 343 342 344 348 349 354 356 362 361 362 362 359 357 354 353 360 354 353 351 346 346 348 346 349 348 337 342 343 341 337 339 338
323 323 322 322 324 329 330 333 339 342 345 343 342 341 341 343 341 343 343 344 348 350 352 356 363 363 363 361 363 361 358 356 355 361 356 354 350 349 350 346 348 346 340 339 343 343 337 338 339
322 322 321 321 323 326 330 331 334 345 345 344 342 342 342 342 345 343 345 344 349 350 352 355 362 363 365 364 362 364 363 361 357 357 360 352 354 349 347 349 347 346 344 343 342 343 338 339 339
325 322 320 323 324 325 325 328 332 332 344 343 343 341 339 340 341 345 346 346 348 350 351 355 363 363 365 365 365 363 364 365 362 358 358 356 352 352 352 349 348 347 344 342 343 342 339 338 340

GFSSGP_925_thetae_030.txt.gz
Theta_e
345 350 352 346 363 360 365 362 350 354 356 351 351 355 354 354 352 355 345 346 346 346 346 347 349 351 350 348 343 343 341 340 344 342 342 345 348 350 351 349 349 352 352 351 352 352 351 350 347
349 353 343 349 363 366 363 357 355 356 354 352 351 352 355 355 350 350 348 345 345 345 346 347 348 349 350 345 343 344 344 347 348 345 348 351 352 352 352 352 352 352 350 348 351 352 351 347 344
354 347 354 355 361 365 363 358 358 356 353 353 354 350 351 354 349 348 347 345 345 345 345 348 347 348 350 346 348 345 350 349 348 346 346 350 352 352 352 352 352 352 348 347 349 348 349 345 342
352 350 352 363 366 358 357 359 357 356 353 351 351 356 351 350 350 349 348 346 345 345 343 347 345 350 349 350 350 346 344 345 347 348 347 351 352 352 352 350 350 353 349 349 346 345 345 345 342
355 356 364 365 360 353 354 356 356 356 354 353 352 355 353 349 349 350 350 349 345 344 345 346 345 346 348 348 347 346 346 344 348 347 349 347 351 351 345 347 348 349 350 352 346 343 341 343 343
360 358 363 360 359 352 353 354 354 354 354 353 354 354 351 349 350 349 349 348 343 344 348 349 347 343 344 351 348 343 345 347 345 347 346 342 345 341 343 345 346 348 351 349 347 344 343 342 342
352 358 360 357 359 357 356 353 355 356 355 354 351 354 350 348 348 350 349 349 345 346 351 351 349 349 349 350 349 345 344 346 344 346 343 343 341 339 343 346 346 346 345 347 346 345 344 343 343
354 356 356 352 351 351 353 354 353 355 356 349 349 355 353 347 349 351 351 349 345 347 350 350 351 352 350 350 351 347 342 341 343 342 340 338 336 343 349 350 346 344 345 345 343 344 345 347 348
346 354 353 352 347 348 351 354 352 349 353 350 351 350 347 348 349 350 350 351 349 348 349 349 350 352 349 349 350 347 342 341 337 334 336 337 342 347 349 348 346 346 346 344 344 346 347 349 349
347 352 350 345 342 343 349 353 352 353 354 354 352 349 348 348 349 350 350 351 352 352 350 348 350 351 348 344 348 340 338 334 332 334 337 341 345 349 351 350 348 348 349 351 347 344 344 347 349
349 350 346 344 343 341 350 353 351 354 356 352 354 352 350 349 349 350 351 352 353 351 351 349 348 348 342 340 339 336 333 332 332 336 348 350 350 350 350 349 349 348 349 348 347 349 346 348 348
347 343 342 341 341 338 351 350 353 351 351 349 350 351 350 349 350 351 351 352 352 352 350 348 348 346 340 335 334 333 334 334 338 346 350 351 352 351 351 349 350 350 347 349 349 348 346 348 348
344 343 343 342 339 337 338 342 352 349 348 349 350 351 350 349 350 350 351 351 351 353 352 350 350 350 348 344 336 333 340 342 348 348 349 350 351 351 352 351 350 350 350 350 350 348 347 348 348
343 343 343 341 338 340 337 340 343 349 349 349 351 351 350 351 350 350 350 350 351 352 352 351 351 352 350 350 347 342 348 349 349 350 350 352 349 351 351 351 349 351 349 350 350 348 348 346 350
331 340 344 344 340 340 337 345 352 350 349 348 347 349 351 350 350 350 349 350 350 349 350 350 350 350 350 351 350 350 352 352 351 351 351 352 349 349 348 348 348 347 349 350 347 349 347 347 341
324 325 327 330 340 340 336 346 352 349 349 348 347 347 347 349 350 350 350 349 349 349 351 351 350 348 350 349 351 354 352 350 350 350 351 351 349 350 349 349 348 351 352 351 349 347 347 341 338
321 323 325 326 330 341 340 341 350 350 350 350 348 347 348 346 344 349 350 350 350 350 351 352 351 350 350 352 353 352 351 350 351 350 351 351 352 351 351 350 350 350 352 351 349 348 344 339 336
322 324 324 326 330 341 340 339 345 351 351 351 350 349 348 347 345 345 350 350 349 348 350 351 352 351 352 353 350 350 349 348 351 352 350 351 349 351 351 350 349 351 349 350 347 346 341 334 338
322 323 324 326 329 341 340 340 340 348 349 350 349 349 348 347 345 344 350 350 348 348 351 352 352 350 349 347 347 347 348 347 351 352 349 351 351 351 351 350 351 352 351 349 348 344 341 336 338
321 322 323 325 327 339 342 343 339 344 346 348 348 347 347 346 344 344 347 349 349 349 352 352 352 351 350 351 348 347 348 349 349 352 352 352 353 352 352 350 350 351 350 348 346 339 333 337 338
322 322 323 325 328 342 344 347 344 340 342 344 345 345 345 345 344 344 344 348 349 348 351 351 352 353 352 352 351 351 350 354 355 354 353 352 352 352 352 349 348 350 350 349 345 333 336 339 340
321 323 324 326 328 339 341 346 347 343 338 338 344 344 344 344 343 343 344 347 348 349 350 350 351 351 354 353 353 353 354 355 352 351 352 350 351 352 353 350 348 348 351 348 345 337 336 337 339
323 323 324 325 326 334 343 343 341 343 345 340 340 343 343 343 343 343 344 345 348 348 350 350 350 352 353 354 354 353 353 352 348 351 356 353 352 353 352 351 351 350 347 346 338 339 338 336 336
323 321 321 325 324 335 332 344 340 344 345 343 342 341 343 343 343 342 344 345 346 348 350 351 351 353 353 354 354 354 354 353 350 353 353 354 353 353 349 350 350 349 341 339 338 338 335 340 338
321 318 319 322 324 327 330 339 340 339 344 344 343 341 341 342 342 342 343 344 345 347 350 352 352 354 355 356 356 355 354 350 351 350 352 352 353 353 349 351 350 348 345 339 340 340 339 337 338
317 319 320 322 325 326 325 338 339 337 340 344 343 343 340 340 341 342 342 344 345 347 350 353 353 353 355 355 355 354 353 350 353 354 352 350 352 353 350 351 349 347 346 339 339 339 337 334 336
320 318 318 318 322 326 327 331 331 337 338 344 345 344 342 340 340 341 343 344 345 347 351 353 353 353 355 355 353 354 354 353 354 354 354 352 352 350 348 349 347 346 346 336 341 341 339 337 337
322 317 319 313 320 321 323 329 332 332 340 340 345 344 343 340 339 340 340 343 346 346 350 353 354 353 354 356 355 354 352 353 355 356 356 351 349 348 347 347 347 346 347 338 339 340 340 335 337
322 319 317 316 317 321 321 323 323 327 332 338 344 343 342 341 340 340 340 341 344 347 350 355 355 354 355 356 356 356 355 353 353 357 358 355 352 349 346 347 347 346 347 342 337 340 341 338 334
324 322 317 321 318 318 321 323 327 325 331 339 340 341 341 341 339 341 340 340 343 347 348 353 358 356 357 358 358 357 357 356 354 353 354 359 355 352 347 348 348 346 347 345 337 339 340 340 337

GFSSGP_925_thetae_033.txt.gz
Theta_e
351 354 352 347 362 360 362 361 350 355 356 352 352 353 354 353 352 354 345 346 346 346 345 345 347 351 351 350 350 345 342 339 339 339 343 345 346 348 351 351 348 347 350 351 351 350 346 344 345
352 352 344 347 359 362 361 356 354 356 353 351 352 352 353 356 349 348 347 346 345 346 347 347 350 350 351 350 349 348 352 347 344 342 350 351 352 351 352 351 349 348 349 351 351 350 346 347 345
353 349 349 356 359 362 362 357 357 354 353 353 352 350 351 352 348 347 346 345 346 346 347 348 350 348 350 351 350 348 353 350 341 351 352 350 351 351 351 351 351 347 348 350 344 345 346 347 346
349 348 351 363 364 360 357 358 356 354 353 350 352 355 351 348 348 347 346 344 345 346 347 350 351 351 351 351 351 352 352 346 346 345 345 350 346 347 351 351 351 348 350 346 340 342 345 347 346
354 356 363 361 357 356 354 355 354 355 354 352 351 355 353 349 347 345 345 345 345 346 348 348 349 350 351 351 351 351 344 344 347 346 344 346 346 351 351 349 352 349 349 347 345 342 343 345 344
351 357 363 362 358 354 355 354 354 354 353 352 353 353 351 349 347 347 345 345 344 344 347 348 350 350 351 351 351 348 342 349 347 344 343 343 345 347 346 347 350 351 349 346 345 343 343 343 344
350 355 359 356 357 358 355 353 354 354 353 352 349 353 350 349 349 348 348 345 344 344 346 348 350 350 351 351 351 345 346 347 345 342 342 341 342 344 345 346 346 346 346 346 344 343 344 343 343
352 354 356 356 359 360 355 353 352 352 354 348 347 353 353 349 349 348 348 345 344 346 347 348 348 351 349 350 350 347 345 347 342 341 340 339 341 345 349 348 347 344 344 344 343 344 346 347 346
349 352 351 351 355 354 354 356 352 350 351 348 348 347 347 347 349 349 350 349 349 349 348 348 348 350 346 347 348 348 344 343 340 338 338 340 341 345 348 347 347 346 345 344 345 347 347 348 345
345 348 347 344 344 353 354 355 353 353 351 353 350 346 347 348 349 349 349 349 350 352 352 350 350 352 350 348 345 344 342 341 338 335 337 339 343 347 349 348 347 348 348 348 345 345 344 347 347
348 353 345 344 341 351 353 353 350 353 353 352 351 349 347 348 350 349 349 349 348 349 350 349 349 349 348 347 343 341 338 337 334 334 337 340 345 349 349 347 348 348 348 347 347 348 346 348 348
349 346 345 341 346 348 352 350 352 351 349 348 348 347 347 348 349 349 350 350 349 349 348 347 348 351 348 342 339 336 336 334 333 333 340 349 350 351 350 348 348 349 346 347 349 347 346 348 348
345 342 340 341 339 348 350 352 352 352 349 347 348 347 347 348 349 350 350 350 351 350 348 347 346 349 344 338 336 336 336 334 333 335 344 349 351 351 350 350 350 348 349 349 348 347 347 346 348
338 339 337 338 338 348 352 352 350 351 348 351 350 350 348 348 349 349 350 351 351 350 350 347 346 345 341 335 335 335 334 334 340 343 347 348 350 350 351 349 350 349 345 349 349 347 345 345 349
329 335 336 341 341 342 343 347 353 348 348 352 352 350 349 348 349 350 350 350 351 350 349 350 347 346 342 338 336 336 334 339 345 348 349 350 351 350 350 349 350 350 349 349 348 349 347 346 341
324 324 325 326 336 339 339 343 347 348 350 353 353 351 350 349 350 350 350 350 350 350 351 350 348 347 348 346 345 347 345 347 350 350 350 350 350 349 349 349 348 348 349 350 349 347 346 340 337
318 324 324 324 330 337 338 341 350 349 350 353 353 352 350 349 349 349 349 349 350 350 350 351 350 348 349 349 349 350 353 351 350 348 349 350 351 350 350 349 347 348 350 351 349 348 346 341 338
322 322 322 324 328 335 338 340 351 350 349 350 351 352 351 351 350 349 349 348 349 349 349 349 350 349 347 349 349 349 353 350 349 349 349 350 350 349 351 350 348 349 351 350 348 347 342 334 337
321 322 322 323 331 339 339 340 353 350 349 348 347 348 350 350 349 349 349 349 349 348 348 349 350 349 349 349 351 351 351 350 348 351 352 350 351 351 351 350 349 348 350 349 349 346 343 335 337
320 321 321 321 324 329 333 340 352 351 350 349 348 347 347 346 344 345 348 350 349 348 348 349 351 351 350 349 350 353 351 350 348 347 352 350 351 350 351 351 350 351 351 348 349 346 339 334 339
320 320 322 322 324 332 339 342 348 352 350 349 348 347 346 346 345 342 346 349 349 347 348 349 350 351 351 350 351 351 349 348 348 348 351 351 351 352 351 352 350 349 351 349 347 344 331 336 338
321 321 322 323 324 325 338 346 341 348 351 349 349 348 347 346 344 343 345 348 348 347 348 349 350 351 350 350 350 349 348 348 348 350 348 349 352 351 352 352 350 348 348 349 347 341 331 337 338
322 322 322 323 323 324 330 340 339 341 348 346 345 346 346 345 345 344 343 346 348 348 348 349 349 351 351 350 350 350 350 349 347 348 352 352 352 352 352 352 351 348 348 349 346 341 335 338 337
322 323 319 321 319 324 324 333 334 343 342 341 339 344 344 344 344 343 342 344 347 348 347 349 350 351 351 351 351 351 351 351 349 350 351 349 352 353 352 353 351 349 348 349 346 340 338 337 336
320 317 320 319 320 323 320 328 328 333 340 340 339 338 342 343 343 343 342 342 345 347 347 349 349 351 352 352 352 352 352 352 350 351 350 352 353 353 353 353 349 350 349 346 341 337 337 336 337
318 319 317 320 320 321 322 327 327 332 334 339 340 339 338 342 342 342 342 341 343 346 347 348 349 350 353 353 352 352 353 352 351 352 349 349 352 351 353 352 348 348 348 345 341 338 339 338 337
319 320 318 316 320 319 322 324 329 330 332 334 339 339 339 339 342 341 342 341 343 344 346 348 349 350 352 353 353 352 352 352 352 352 350 348 350 351 351 352 348 349 349 346 343 339 339 338 335
320 314 318 310 319 320 318 324 327 331 332 333 337 339 340 339 340 341 341 341 342 343 345 347 349 350 351 352 353 352 352 353 353 352 350 350 352 351 350 352 349 350 349 346 342 338 339 339 336
319 318 315 315 313 318 317 320 321 327 331 334 337 340 340 340 339 340 340 341 342 343 344 347 350 350 351 352 352 353 353 353 353 352 350 350 353 351 350 351 350 349 349 345 342 338 338 339 337
321 319 314 316 316 315 319 319 322 324 324 328 333 338 341 341 340 338 338 340 341 343 344 348 350 350 350 352 352 352 352 352 353 353 351 351 352 353 351 350 348 348 347 345 344 341 338 338 339

GFSSGP_925_thetae_036.txt.gz
Theta_e
350 350 350 349 363 359 362 360 350 355 354 351 350 350 353 352 352 357 346 347 344 344 345 346 348 350 349 347 342 344 342 343 342 348 347 351 350 350 348 348 345 347 349 350 350 350 348 345 341
352 351 346 345 357 360 358 354 355 354 353 350 351 352 353 355 347 346 347 346 344 343 343 343 347 349 351 350 346 343 343 344 340 342 349 351 351 351 351 348 346 349 351 351 350 350 350 344 344
351 349 344 354 356 361 360 355 356 353 351 352 352 350 350 353 346 346 346 346 344 344 344 345 347 349 351 350 346 346 350 343 341 351 352 351 351 350 346 346 346 349 349 350 348 349 349 346 344
351 347 350 361 359 358 356 357 353 354 351 350 351 354 349 347 346 347 346 346 346 346 346 349 350 352 351 351 352 352 351 346 348 350 347 345 346 346 345 348 350 350 349 349 347 348 347 343 343
353 353 356 360 356 356 352 353 352 354 353 352 351 354 351 348 348 346 346 346 346 346 347 350 349 350 351 351 352 352 351 344 339 343 344 345 343 345 347 350 351 351 351 351 345 343 343 342 344
349 355 360 360 357 353 354 353 353 353 353 351 351 351 352 347 346 346 345 345 345 347 348 350 349 349 351 351 351 351 346 342 342 343 344 341 343 346 347 348 351 352 353 349 344 342 341 343 344
349 354 357 355 357 356 355 351 353 353 352 352 348 353 350 346 346 345 344 344 345 347 347 348 350 351 351 352 349 345 343 342 343 342 342 339 343 345 347 347 347 348 347 345 343 342 342 343 344
347 348 355 355 356 357 355 352 351 351 353 347 347 352 352 347 346 346 345 344 344 345 345 346 348 349 350 351 351 345 343 343 344 344 339 341 343 346 349 348 347 346 344 343 344 345 345 345 345
348 350 352 353 353 356 353 354 350 348 350 348 347 347 345 348 348 347 347 346 346 346 346 346 348 349 347 346 348 349 345 346 344 343 341 340 342 347 348 347 346 346 344 344 345 346 347 346 344
345 347 349 343 347 352 353 354 351 352 350 351 348 347 347 348 348 348 347 347 348 349 347 347 346 347 345 345 344 346 344 345 342 341 340 342 344 346 348 348 346 347 347 347 343 345 343 347 345
346 353 346 343 342 350 353 354 350 353 352 350 350 350 348 348 348 348 346 346 346 348 349 348 346 345 343 345 344 346 341 340 339 337 338 340 344 347 348 348 346 347 348 347 346 346 346 347 344
352 347 349 344 341 349 354 351 352 350 347 346 346 347 348 348 348 348 348 347 347 349 349 347 346 347 349 349 345 341 339 337 337 336 336 340 344 348 348 348 347 347 345 346 348 347 346 347 347
351 348 342 343 341 349 350 352 352 351 348 345 345 347 349 349 348 348 348 347 346 348 349 348 348 348 349 348 343 339 337 336 334 334 336 343 348 349 348 349 348 348 347 347 347 347 347 346 347
334 344 342 335 337 345 351 351 351 350 347 347 347 347 348 348 349 348 349 349 347 346 347 346 346 345 347 345 342 336 334 334 334 334 335 344 348 349 348 348 349 349 347 349 349 347 345 345 348
325 328 330 337 338 346 349 354 353 349 348 349 348 347 347 347 348 348 349 349 349 347 346 347 345 344 346 346 339 335 334 334 334 337 340 345 348 348 348 349 349 348 349 349 349 347 346 344 342
321 322 324 325 338 342 349 357 351 348 350 351 349 348 348 347 348 348 349 349 350 349 348 346 346 346 344 344 337 334 334 335 336 340 345 348 349 348 348 349 350 349 348 349 350 347 345 342 335
317 324 323 325 332 336 347 343 341 347 349 353 351 349 349 348 347 348 349 349 350 350 349 348 347 347 345 343 339 334 336 339 341 344 348 349 350 349 348 349 349 348 350 350 350 348 346 342 336
322 321 322 326 326 334 338 336 341 349 348 352 351 350 350 349 348 348 349 349 350 350 350 348 347 347 345 344 343 342 345 348 351 350 349 348 349 350 349 350 350 348 349 351 350 346 343 334 335
321 321 324 323 327 335 333 338 350 349 349 351 351 351 350 349 347 348 349 349 349 349 349 349 349 348 347 347 349 348 349 350 351 348 348 348 348 349 350 350 350 348 349 350 349 346 344 337 337
320 321 321 321 322 324 324 336 351 350 351 351 352 351 351 349 348 348 348 348 348 348 349 349 349 349 348 347 347 348 348 348 352 349 349 349 349 350 350 350 351 349 348 349 348 347 344 337 337
319 320 321 322 322 324 336 336 350 351 349 348 347 349 349 350 349 348 348 348 348 348 347 348 349 348 349 348 347 348 349 349 351 349 348 350 350 349 348 351 351 349 349 350 347 347 343 332 338
318 319 321 321 321 322 332 334 343 352 352 349 347 345 347 347 347 346 348 347 348 348 347 347 348 348 348 349 348 348 350 351 351 350 349 347 350 350 350 350 351 350 348 350 349 346 341 332 337
321 320 320 320 320 321 326 334 335 347 354 352 349 347 345 344 344 344 343 347 347 348 347 347 348 348 348 349 350 349 349 350 350 349 346 348 349 351 351 351 351 351 349 347 348 347 341 333 337
320 321 316 316 317 321 320 325 324 341 352 352 349 348 347 346 344 343 341 343 346 348 347 346 347 348 349 349 350 350 349 349 348 347 347 348 350 351 351 351 351 351 349 347 348 346 341 335 336
319 317 319 319 320 324 318 324 325 332 339 345 348 347 346 346 345 344 343 342 345 346 347 347 348 348 349 349 349 349 349 349 348 348 348 347 350 350 348 353 351 352 350 348 348 346 342 336 336
318 316 318 320 319 322 317 322 323 325 335 337 340 342 342 344 345 345 344 342 342 346 347 346 348 348 348 349 349 349 349 349 349 350 350 349 348 347 350 351 350 352 349 348 348 345 339 336 335
317 319 315 315 316 316 318 320 324 325 327 336 337 337 338 339 343 343 343 342 342 343 346 346 348 347 348 349 349 350 350 350 350 350 350 350 349 346 351 351 351 352 349 347 347 343 339 337 337
316 315 319 311 320 319 316 320 324 328 327 329 332 336 337 336 338 341 341 342 341 342 345 346 347 348 348 349 350 350 350 350 350 350 350 350 350 348 348 350 351 352 350 348 347 343 341 338 338
316 316 314 316 313 318 317 318 318 325 325 326 328 333 336 337 336 338 340 341 341 341 343 345 346 347 347 350 351 351 351 351 351 351 350 350 351 349 348 350 350 351 350 349 348 345 342 339 338
322 319 312 317 315 314 314 318 318 320 324 326 326 328 333 336 337 337 339 340 341 340 341 344 346 347 348 348 351 351 351 351 351 351 350 350 351 350 348 349 351 349 350 349 349 346 343 339 337

GFSSGP_925_thetae_039.txt.gz
Theta_e
351 352 350 351 365 363 364 361 353 356 354 352 350 351 354 353 354 362 347 348 346 347 346 347 346 351 351 350 348 345 343 344 350 346 349 351 347 350 351 350 350 349 350 351 350 350 349 348 342
352 351 348 349 363 365 363 355 357 355 354 351 351 352 354 355 347 348 349 347 348 349 348 349 347 350 351 350 343 344 351 351 350 349 347 344 350 352 351 351 349 345 346 345 347 350 347 343 342
352 350 350 358 360 365 364 356 357 355 352 352 354 350 352 354 348 347 347 347 347 348 348 350 346 347 350 347 347 350 350 351 349 346 347 351 351 351 351 351 347 346 348 347 347 348 346 344 343
353 347 351 362 359 359 357 357 355 355 353 351 351 356 349 347 347 348 348 347 346 346 347 349 350 351 351 351 351 351 350 351 346 347 351 351 351 351 351 350 348 348 350 350 349 346 342 343 342
352 355 359 360 356 356 354 355 354 355 354 353 351 354 353 348 348 348 348 347 346 347 349 350 350 350 351 352 352 351 351 344 344 350 351 351 352 351 350 349 347 348 351 350 346 344 343 343 343
354 355 359 361 355 353 356 353 353 354 354 352 352 353 353 349 347 347 347 348 347 348 348 349 350 350 351 352 352 352 346 341 344 348 349 351 349 347 349 350 351 350 352 349 341 341 342 344 345
353 356 356 354 355 355 357 352 355 355 354 352 349 354 351 348 347 347 347 348 348 349 349 349 349 351 352 352 352 347 345 342 344 346 347 348 347 347 348 347 346 348 350 345 342 342 343 344 344
348 351 355 354 354 358 356 354 352 352 353 347 347 354 353 348 346 346 347 348 348 349 350 350 350 350 350 350 348 345 347 342 345 344 343 342 345 348 349 347 346 344 343 343 344 344 345 346 346
348 356 356 352 353 355 355 356 350 349 351 349 348 348 346 347 346 346 347 347 349 349 348 349 348 350 351 351 350 350 344 342 344 344 343 346 352 351 351 347 346 345 344 345 344 346 346 345 345
357 358 354 349 347 352 356 355 353 353 351 350 350 347 347 346 347 346 347 347 347 348 348 348 347 348 349 348 350 351 349 349 351 351 350 351 350 347 349 348 346 347 347 346 343 345 343 347 349
355 359 351 347 344 349 355 355 352 354 353 350 353 351 348 347 347 347 346 346 346 346 346 347 348 349 348 348 349 349 347 348 350 345 343 345 347 347 349 349 349 348 348 347 349 345 348 349 347
356 353 352 349 344 348 355 354 354 352 348 345 349 348 348 348 348 346 346 346 346 347 347 347 348 349 349 349 348 348 347 347 347 347 337 340 346 346 348 351 349 347 348 344 346 347 346 348 349
356 350 346 347 344 344 351 355 355 353 347 347 349 347 348 348 347 345 344 345 345 347 347 349 349 349 350 349 349 348 348 345 346 344 338 340 346 348 349 349 349 348 348 345 345 346 348 347 350
342 344 341 340 338 346 351 352 353 353 349 350 350 349 348 347 346 346 346 346 346 347 347 349 349 350 350 351 351 349 347 346 345 344 339 337 343 348 348 348 350 352 350 351 347 344 343 342 346
330 329 329 332 335 340 349 356 356 351 350 351 350 349 348 348 346 347 348 348 347 347 348 349 350 350 351 351 350 349 346 345 343 343 333 336 343 347 348 348 349 352 348 347 346 346 346 347 343
326 327 331 330 336 340 349 346 352 351 352 352 350 350 350 349 348 348 348 349 348 347 348 349 349 349 350 350 349 347 345 344 343 343 344 340 344 348 348 350 352 350 348 345 350 351 348 344 335
325 330 329 330 335 345 349 344 345 351 352 353 350 350 350 350 349 348 348 349 349 349 348 348 349 348 349 349 349 346 342 338 343 343 338 342 346 348 349 351 352 349 350 347 351 350 348 344 339
326 327 329 331 333 339 349 346 342 351 353 354 351 350 350 350 349 348 349 349 350 351 351 349 349 350 350 349 349 347 345 343 344 345 348 347 348 349 350 350 349 350 352 347 350 349 343 339 340
323 326 329 330 329 332 337 343 341 347 353 355 353 351 350 349 347 347 349 349 350 351 352 351 351 350 350 349 348 347 345 344 348 351 350 350 349 349 349 352 350 351 351 351 350 348 345 341 338
322 324 328 328 325 326 330 333 336 346 351 353 354 353 351 349 349 349 349 349 350 351 352 352 352 351 349 349 348 347 347 348 351 353 350 348 348 348 349 350 353 352 352 349 349 347 345 341 338
322 322 326 328 325 326 330 332 340 349 350 351 352 352 351 351 351 350 349 350 350 351 352 352 351 351 349 349 350 350 350 351 351 352 353 350 348 349 349 349 350 351 351 352 352 348 346 343 341
324 322 323 325 327 331 332 337 340 345 353 352 352 353 352 352 351 350 350 350 350 351 352 351 352 351 351 350 349 349 348 350 350 351 353 352 348 349 349 348 350 351 353 352 351 348 345 339 339
323 323 324 325 327 328 329 332 335 346 353 354 352 351 352 351 351 351 350 350 350 351 351 351 351 350 350 350 350 350 350 350 352 352 353 352 351 348 350 350 350 351 352 351 348 348 346 340 338
324 324 324 324 326 328 329 330 334 338 348 351 351 351 350 351 350 350 349 350 350 350 350 351 351 350 350 350 350 350 351 351 352 353 353 353 353 352 350 351 352 351 352 351 348 347 347 340 337
324 324 326 325 326 327 328 329 332 333 341 340 349 351 350 348 349 350 351 350 351 351 351 351 350 351 351 351 351 351 351 352 352 352 352 352 351 352 353 350 351 351 351 351 348 347 347 342 338
324 324 323 325 324 324 327 329 331 330 331 338 342 346 349 350 349 348 351 348 348 351 351 351 350 351 351 351 351 351 351 352 352 352 352 351 351 351 351 349 350 350 351 351 349 347 346 344 339
324 326 323 322 321 323 325 327 328 329 330 336 340 344 348 349 350 349 348 348 347 348 350 351 351 351 351 351 351 351 351 351 352 351 351 351 351 352 350 348 348 352 350 351 349 348 347 344 337
322 323 323 324 324 324 324 327 329 333 332 333 338 340 343 346 348 348 350 350 348 347 348 350 350 351 351 351 351 351 351 351 351 351 351 351 351 351 352 348 349 351 350 351 350 348 346 343 340
321 324 323 323 323 322 322 324 328 333 336 334 333 336 339 341 343 345 349 349 348 347 346 349 350 351 351 351 351 352 352 352 352 352 351 351 350 350 350 349 349 350 351 351 351 347 346 343 342
322 323 324 325 327 323 323 323 325 329 333 333 334 335 336 340 341 342 344 346 346 348 347 347 349 350 351 351 351 352 352 352 352 352 352 351 351 350 350 350 349 351 350 350 351 349 346 345 344

GFSSGP_925_thetae_042.txt.gz
Theta_e
349 349 351 352 368 364 364 361 354 355 356 353 351 353 357 355 360 364 346 346 343 345 349 350 350 351 352 351 350 343 346 344 345 350 351 351 351 352 352 352 352 351 351 350 351 351 350 350 349
351 352 352 354 369 362 359 356 357 356 355 353 353 353 355 357 352 349 351 347 344 348 349 350 349 350 351 352 348 347 349 348 350 351 351 351 351 349 352 350 346 345 347 346 351 351 350 348 345
353 351 354 361 359 362 360 356 357 356 353 353 355 353 355 355 351 349 347 348 349 349 350 351 351 351 352 350 344 347 351 352 351 352 352 352 351 351 352 345 348 344 348 352 350 348 346 344 343
352 352 354 369 359 358 357 356 356 357 354 353 353 358 352 350 350 349 349 349 350 350 351 349 351 353 352 351 348 352 352 352 351 352 352 352 352 352 349 349 351 352 349 345 345 345 344 343 342
353 357 363 362 356 356 355 355 355 356 355 354 353 357 355 349 350 349 349 349 349 349 350 350 349 351 351 352 352 351 352 352 352 352 352 352 352 352 347 348 350 353 350 349 344 344 343 343 343
360 354 361 354 350 353 357 355 354 354 354 354 355 356 356 350 350 349 349 348 348 348 348 349 349 351 351 353 352 352 352 350 349 349 352 352 352 351 351 347 349 353 351 345 342 343 344 345 345
361 357 353 349 351 351 357 354 355 354 355 354 352 359 355 350 350 349 348 347 347 347 346 347 348 350 353 352 352 352 351 344 350 350 350 350 347 346 347 346 345 346 348 345 343 344 344 345 344
354 353 353 351 351 353 356 355 354 352 355 350 350 357 359 350 349 349 349 348 348 347 346 346 348 348 349 350 352 352 350 344 347 346 345 344 345 347 346 350 344 342 343 344 345 346 346 345 346
350 356 353 351 351 355 355 357 352 349 352 351 350 351 351 349 349 349 349 348 349 346 345 345 346 348 348 348 348 349 345 345 344 343 342 349 352 353 352 346 346 344 344 345 345 345 345 344 344
353 356 351 348 348 352 356 355 354 352 353 352 352 349 349 348 349 350 350 349 349 347 345 345 345 346 348 347 349 349 346 346 348 351 352 352 354 354 353 349 346 346 345 344 343 344 345 348 350
349 354 349 346 346 349 355 356 353 352 353 352 354 352 350 349 349 349 349 349 349 347 345 344 344 347 347 346 348 348 346 347 349 353 353 353 353 354 353 352 351 352 349 350 350 350 349 348 348
351 347 350 347 344 346 353 354 355 352 349 348 351 350 350 350 350 349 348 348 348 348 346 345 346 347 347 346 346 346 344 346 346 348 352 352 351 353 354 352 351 353 350 350 350 349 349 350 348
350 345 346 346 344 343 348 353 353 354 348 347 350 350 351 350 349 348 347 347 347 348 347 347 348 349 349 349 346 345 344 343 344 347 348 349 351 353 354 354 353 352 352 350 350 351 349 347 346
342 344 343 342 343 340 347 350 353 353 350 350 351 351 350 350 349 348 348 347 347 347 346 347 348 349 349 349 349 348 347 344 345 345 346 349 350 353 350 352 352 352 353 351 349 349 348 346 347
340 339 334 334 338 338 345 350 354 353 353 353 352 351 350 350 348 349 348 347 347 347 347 347 349 349 350 350 351 350 345 344 344 343 346 348 350 352 349 353 351 351 350 352 350 349 347 348 347
332 332 335 337 337 337 343 348 352 353 355 355 353 351 350 350 348 347 346 346 346 346 347 348 348 348 351 351 351 348 345 344 343 343 346 348 350 353 355 353 353 354 351 350 351 350 350 347 338
330 334 335 339 336 339 344 346 346 353 354 356 355 352 350 350 348 346 347 347 347 347 348 349 349 348 349 351 350 348 346 345 342 344 347 350 352 355 356 353 353 351 353 350 351 351 350 347 343
332 333 335 339 337 339 346 345 343 350 352 355 355 353 352 350 349 346 347 347 348 348 348 349 349 349 350 350 351 347 345 344 342 345 347 349 352 356 357 354 353 356 353 351 351 351 347 344 342
331 332 334 337 336 338 341 343 344 344 350 351 354 354 353 351 348 346 347 346 347 348 349 350 350 350 350 350 349 346 344 343 343 345 349 354 357 357 357 353 357 355 354 353 352 351 350 344 342
328 329 332 335 334 334 337 339 340 340 346 349 353 354 354 352 350 348 347 347 347 348 350 352 352 352 353 351 348 344 343 343 344 348 353 357 357 358 357 353 354 355 353 354 354 352 346 345 342
327 329 331 333 334 332 334 337 337 337 340 345 348 352 352 352 351 350 348 347 347 348 351 353 354 353 354 351 350 349 346 346 347 350 354 356 356 357 357 356 353 355 352 352 354 354 350 344 339
327 326 327 329 332 337 334 341 341 340 342 346 347 351 353 352 351 350 348 347 347 349 351 353 355 356 356 354 349 350 347 346 348 350 351 352 356 355 355 358 350 355 353 354 354 353 350 349 338
324 325 326 326 329 331 334 336 338 339 340 346 348 349 352 352 352 351 350 347 346 348 351 353 355 357 356 355 351 351 350 345 349 350 351 353 353 356 355 356 357 357 356 356 356 354 353 348 340
324 324 325 326 327 331 333 335 337 338 341 341 346 348 351 351 352 352 349 346 347 348 350 353 356 358 357 357 356 354 352 348 350 353 353 353 353 353 356 355 356 356 357 357 357 356 353 350 345
324 325 327 327 328 330 331 333 335 335 336 339 342 346 349 352 352 352 353 351 348 348 350 352 356 359 358 357 357 356 355 353 354 355 355 353 351 352 352 357 356 356 359 357 358 357 353 352 348
325 326 326 328 327 327 329 331 333 333 334 335 338 340 347 350 351 352 353 352 351 349 351 353 356 358 359 358 358 358 357 354 354 355 354 354 351 350 351 354 356 358 357 358 358 356 353 351 351
327 328 325 325 327 327 327 328 329 331 333 334 334 337 340 348 351 351 352 351 352 352 353 354 357 359 359 358 359 359 358 357 354 354 357 355 354 351 353 354 357 357 357 358 358 355 353 350 351
327 326 325 326 327 328 325 328 329 331 332 334 334 336 339 343 349 351 350 350 350 352 353 355 357 359 359 357 358 358 358 358 357 356 357 356 355 355 352 356 356 357 357 359 358 355 353 352 350
326 327 326 326 326 328 328 328 329 330 333 332 334 337 340 343 347 350 351 349 350 350 351 355 357 358 358 357 358 358 358 358 358 357 358 358 357 357 356 355 356 355 358 359 358 355 353 353 351
326 326 327 327 330 327 328 327 326 328 329 333 334 336 338 340 343 346 347 348 349 350 350 351 354 356 357 357 358 358 358 358 358 359 358 358 358 358 357 357 357 355 356 358 358 357 353 353 351

GFSSGP_925_thetae_045.txt.gz
Theta_e
348 348 351 352 368 371 366 358 355 357 357 353 351 357 358 357 361 365 345 344 339 347 350 350 352 354 352 347 341 339 346 352 352 349 350 349 351 353 353 352 352 352 352 352 352 351 350 349 350
350 351 353 360 370 371 358 356 357 357 355 353 353 355 356 361 352 348 348 344 342 348 349 351 351 353 352 351 347 350 352 352 352 350 348 352 353 353 352 351 352 352 351 352 351 351 350 349 349
353 353 358 365 370 364 358 355 357 355 354 354 356 353 356 360 349 348 347 342 346 349 350 352 350 353 353 353 351 352 353 353 349 347 350 351 352 352 352 352 350 350 353 352 351 350 350 350 349
354 354 357 368 367 354 355 354 354 355 354 353 354 358 354 352 351 349 345 344 349 349 351 350 351 353 354 353 352 353 353 352 350 350 352 350 352 348 353 353 353 347 349 351 351 348 346 346 344
355 360 367 368 355 352 352 352 355 356 355 354 355 359 358 351 350 349 346 350 350 351 351 352 352 352 353 352 353 353 352 351 353 352 352 352 352 350 353 352 354 352 351 350 350 347 345 344 344
364 360 370 367 350 350 351 352 352 354 356 355 358 358 357 351 350 349 349 350 351 351 349 352 352 351 352 353 353 353 351 352 353 353 352 352 352 348 350 353 354 352 351 349 347 345 345 345 345
366 362 362 349 347 351 351 351 352 353 355 356 354 360 357 352 350 350 350 351 350 349 350 351 350 351 354 353 353 353 352 352 353 352 352 350 348 345 343 343 347 351 351 350 344 345 345 344 343
357 357 357 349 345 349 349 350 348 352 355 352 355 362 361 353 350 349 349 349 348 349 349 346 348 349 350 351 353 353 352 350 345 348 346 344 344 344 349 349 341 345 349 346 345 346 345 345 342
351 355 360 353 356 350 348 346 347 349 353 353 352 355 353 352 350 349 349 348 348 347 347 345 347 348 348 349 350 351 351 347 341 341 342 349 354 353 351 346 343 344 344 345 345 345 343 343 344
353 354 360 349 352 350 350 348 346 349 352 353 353 354 351 351 350 349 349 349 348 347 345 344 344 346 347 345 349 348 347 346 351 352 347 351 353 352 352 349 345 344 344 342 342 343 345 349 348
350 351 354 345 346 348 349 352 348 345 352 351 355 356 352 351 350 349 350 349 349 346 344 343 344 346 346 346 347 347 345 346 349 352 353 353 352 353 351 352 351 351 350 352 350 350 349 350 347
349 347 348 346 345 346 349 351 351 349 345 349 351 353 352 352 352 352 349 351 349 345 344 343 345 347 346 347 346 345 344 346 347 350 353 354 352 351 352 351 353 351 350 351 351 350 350 348 344
347 346 345 349 346 344 348 351 352 350 345 347 350 352 352 352 351 350 349 349 347 346 344 344 345 348 348 348 346 345 344 344 345 349 352 351 349 350 352 352 352 353 351 350 350 350 349 348 345
343 345 344 346 345 343 346 349 350 351 348 348 350 352 352 351 351 350 349 348 347 346 345 345 347 349 350 349 349 346 345 343 345 345 348 351 350 350 350 351 352 352 351 350 350 352 349 349 347
342 343 344 345 345 344 343 348 350 351 351 351 352 351 351 351 349 349 349 348 347 347 346 347 348 349 351 351 351 350 346 345 344 345 347 351 352 353 353 353 352 352 353 353 351 351 349 348 348
342 343 346 343 340 342 343 348 347 352 354 354 353 351 350 350 350 349 348 347 347 347 346 347 347 348 351 350 351 350 346 344 344 343 346 351 352 354 356 354 352 353 352 351 351 350 349 346 343
336 339 343 342 340 341 341 348 348 351 353 355 354 353 350 350 349 348 348 348 347 347 347 347 347 347 350 351 351 350 346 345 343 343 345 352 353 354 357 354 354 354 355 350 351 350 349 349 342
336 335 338 340 341 341 342 344 350 351 352 353 355 354 352 349 349 348 347 347 347 347 348 349 349 348 350 351 352 349 347 346 344 343 346 351 353 355 358 354 355 354 352 350 351 352 348 343 339
334 334 335 338 340 340 343 344 346 349 350 349 353 355 353 350 348 346 346 345 346 347 348 350 351 350 350 351 350 348 346 345 344 343 346 350 353 355 355 356 355 352 354 354 353 353 348 342 338
335 334 335 335 338 340 342 345 345 345 348 349 350 354 353 352 349 347 346 346 346 347 349 351 353 354 353 351 350 346 345 343 343 343 346 351 355 358 356 355 352 354 354 355 353 351 348 343 339
335 335 334 334 336 340 340 343 342 343 343 347 346 353 352 353 352 349 347 346 346 347 349 351 354 354 354 351 350 349 346 344 344 344 347 353 356 358 356 357 356 353 352 354 355 353 347 349 338
327 330 332 333 336 342 338 344 342 341 342 343 345 350 353 353 353 351 348 347 346 346 348 352 356 356 356 355 351 349 347 345 344 345 347 352 355 357 357 358 355 354 352 354 355 352 352 343 340
327 328 330 332 334 337 339 342 341 341 342 341 343 344 350 352 353 352 350 346 346 345 347 350 357 358 356 357 353 352 351 346 345 346 348 351 355 356 355 356 358 355 354 352 354 355 354 349 344
327 327 328 329 331 335 337 341 342 340 342 342 343 344 345 351 351 352 350 346 345 344 345 349 358 361 359 359 357 356 352 350 345 348 350 351 352 355 356 355 356 357 356 356 357 355 355 354 345
326 326 327 329 331 333 333 337 339 338 338 340 341 344 345 349 351 352 352 349 346 345 348 349 358 363 363 362 360 357 357 355 352 353 352 352 350 350 353 354 356 356 357 357 356 359 356 355 351
327 326 327 331 329 330 332 335 336 336 336 337 340 341 344 347 351 352 352 351 348 348 349 351 357 363 364 363 362 361 359 355 353 352 353 352 351 349 350 358 358 357 358 358 357 357 356 354 354
328 329 327 328 329 329 329 331 332 334 335 336 337 339 343 346 349 351 352 351 349 349 351 353 357 362 364 364 364 363 362 359 355 353 354 356 354 351 351 353 357 357 357 358 358 356 358 353 355
329 328 327 328 331 331 330 331 332 333 333 335 336 339 340 344 348 351 352 352 351 350 351 354 356 363 364 364 364 365 364 363 359 357 358 357 356 356 353 354 356 357 358 358 359 355 356 355 353
328 330 328 328 328 330 332 331 332 333 334 333 335 336 337 340 346 349 351 351 352 352 351 354 357 360 365 364 364 365 365 364 364 361 360 359 360 360 355 357 357 358 358 359 360 358 355 356 354
328 329 330 333 334 329 331 332 331 332 331 333 334 336 337 339 342 346 349 351 351 353 352 354 356 358 363 363 364 365 365 365 365 364 362 362 361 361 362 357 359 359 358 359 361 360 354 356 356

GFSSGP_925_thetae_048.txt.gz
Theta_e
344 346 351 352 369 369 368 361 355 359 358 352 352 355 360 359 360 362 343 345 344 349 350 353 353 353 349 341 342 344 351 348 346 350 346 351 353 352 352 353 352 352 352 352 351 350 349 350 349
349 350 352 359 377 372 366 358 361 358 355 354 354 356 359 361 351 346 345 343 347 348 350 353 353 352 351 345 342 350 352 347 350 345 347 353 353 351 352 353 353 352 353 352 351 350 349 350 350
351 352 361 367 369 370 363 359 358 356 353 355 357 355 358 358 348 344 344 343 348 348 351 352 353 350 349 349 350 350 350 348 347 352 351 352 352 353 353 350 352 353 352 352 351 351 350 350 350
355 355 358 364 367 362 357 357 355 356 354 355 355 360 354 349 346 346 343 345 349 351 352 350 353 354 351 350 351 350 350 346 350 348 353 353 353 354 354 353 351 351 351 351 351 350 350 348 347
354 360 368 369 368 359 353 355 355 357 356 356 357 361 357 351 350 346 342 347 350 352 353 353 353 352 352 350 351 351 350 347 348 352 353 352 354 355 353 354 352 351 351 351 351 350 346 347 346
362 361 362 365 358 352 351 354 355 356 358 358 359 359 357 350 346 343 347 349 349 351 350 352 352 350 350 352 352 350 350 353 353 353 353 347 348 352 353 354 353 351 350 349 346 346 346 345 343
363 366 368 364 357 351 351 350 351 357 355 359 355 360 355 350 345 343 350 349 349 349 352 353 354 353 352 350 351 350 351 353 353 350 348 346 345 345 346 347 351 351 349 345 344 344 344 343 342
356 357 359 357 349 350 349 348 347 354 358 353 354 360 359 351 347 348 348 350 349 350 351 353 351 351 351 352 353 352 353 353 349 345 345 346 346 348 346 342 342 344 345 344 344 344 345 343 340
350 360 363 357 352 347 347 349 351 350 355 356 356 354 353 350 349 350 350 350 350 350 349 348 349 351 350 351 352 353 353 348 342 343 345 347 349 352 354 349 342 343 343 345 345 345 343 343 340
352 357 356 351 350 350 349 344 348 350 352 356 357 354 350 351 351 350 350 350 349 350 347 345 347 348 350 348 347 351 350 348 347 350 338 345 350 351 350 346 343 342 342 342 343 345 346 345 346
349 354 349 350 348 348 352 351 347 349 350 358 360 356 352 351 351 350 349 349 349 351 346 344 346 347 348 348 343 349 347 347 350 351 343 343 353 351 352 350 349 347 350 350 348 349 350 350 350
348 350 349 348 348 347 353 351 345 348 348 353 354 354 352 352 350 350 349 348 349 348 345 344 347 345 348 348 344 348 346 347 351 350 352 353 348 352 341 351 349 352 351 349 351 352 350 346 345
346 347 349 348 346 349 349 352 347 345 347 351 353 353 353 352 350 350 349 348 349 349 345 345 348 345 348 349 345 346 345 346 348 353 346 354 352 353 349 350 350 352 352 351 349 351 350 345 346
344 345 346 347 348 346 350 353 347 345 345 350 353 353 353 351 352 351 350 349 350 346 345 346 350 346 348 349 349 346 344 343 346 347 351 346 352 353 351 353 350 350 353 352 351 351 350 348 348
340 343 345 345 345 346 342 350 351 347 347 348 352 352 351 353 352 352 351 351 351 346 344 347 348 349 349 349 351 348 347 346 344 347 349 351 350 353 348 348 352 351 353 353 350 351 351 347 347
342 342 345 345 345 345 344 346 352 349 350 350 350 351 351 350 350 352 351 351 348 345 345 348 347 350 349 350 351 350 349 345 345 344 347 350 351 353 356 352 351 355 351 351 350 351 348 343 345
341 343 344 344 344 344 344 343 350 349 348 353 351 350 351 351 350 349 348 349 348 346 348 347 347 350 351 352 353 350 349 347 344 344 345 349 351 353 352 354 351 351 354 352 349 349 350 348 345
341 342 341 343 344 342 342 342 348 346 349 352 353 351 351 351 350 349 347 347 348 348 349 347 348 349 351 352 351 352 351 347 346 344 343 351 353 355 356 355 354 352 351 352 349 351 347 345 339
339 340 337 338 341 341 341 345 348 349 352 351 352 354 350 350 349 349 348 347 348 349 350 349 350 349 352 354 354 354 351 348 346 345 343 354 352 353 356 357 353 352 352 354 352 353 348 347 336
338 337 336 335 337 341 342 343 352 352 351 351 355 355 354 350 350 351 349 348 348 349 350 352 351 350 354 354 354 352 350 348 346 345 344 348 351 354 354 353 355 352 351 353 351 351 350 345 338
337 338 336 335 335 341 342 343 346 353 351 347 348 355 353 353 351 351 351 349 348 350 352 353 353 356 354 353 352 351 348 347 347 345 344 347 349 356 356 354 353 354 354 352 353 348 348 348 338
333 337 337 335 335 337 342 346 348 345 347 351 351 353 352 353 352 350 350 349 348 350 351 354 355 355 356 353 353 352 350 349 346 345 345 349 350 356 357 355 354 354 353 353 354 353 352 344 341
330 331 334 335 335 335 336 344 343 347 346 343 348 347 352 351 352 351 349 348 348 349 352 354 357 356 358 354 355 351 351 348 346 344 347 346 354 355 358 358 357 354 352 354 355 352 345 352 345
328 328 329 332 334 337 336 342 343 344 346 342 344 343 352 351 353 353 349 348 348 348 351 353 357 358 358 358 351 357 352 351 348 347 348 352 356 356 355 357 358 356 352 352 355 356 352 349 352
327 327 329 330 333 336 334 338 342 342 343 342 343 343 345 352 353 354 353 350 349 349 349 352 358 360 359 360 359 351 360 351 352 351 346 353 355 358 356 354 358 356 355 355 355 355 354 351 351
327 327 330 333 332 330 333 337 339 340 340 342 342 343 344 347 353 354 354 352 349 348 349 351 358 361 362 360 361 359 354 361 350 351 356 350 354 354 355 356 353 357 355 353 357 359 357 357 353
327 328 328 328 328 329 330 332 333 336 337 339 338 343 345 345 353 354 355 353 350 349 349 349 356 362 363 363 362 363 359 358 360 352 352 358 351 353 352 354 353 358 357 358 354 358 358 356 355
329 328 327 328 332 334 331 336 336 337 339 338 337 338 342 346 349 353 354 354 351 349 349 350 355 362 365 365 364 364 364 358 357 358 351 353 357 353 354 357 356 358 357 359 355 360 356 358 358
328 330 328 327 328 331 333 332 335 339 338 339 338 339 339 345 348 351 353 353 352 350 349 351 353 362 365 365 366 365 365 364 360 357 358 353 354 354 357 361 361 357 358 358 361 359 359 356 357
328 329 331 333 335 331 334 333 334 334 337 336 337 339 339 342 348 350 352 354 354 353 351 351 353 356 364 366 366 366 366 366 365 362 359 360 360 359 355 360 359 359 357 360 360 362 358 359 359

GFSSGP_925_thetae_051.txt.gz
Theta_e
337 349 351 351 367 367 369 366 360 358 355 352 350 353 359 358 356 356 343 345 349 349 351 351 351 351 351 346 347 347 349 349 345 349 351 352 352 352 352 352 352 352 353 351 349 349 350 347 345
341 347 352 358 370 371 370 361 360 357 356 353 355 356 358 358 348 344 345 345 350 349 352 352 350 346 347 341 347 346 350 349 346 347 347 351 350 351 354 352 352 353 351 351 350 349 350 348 343
348 350 359 366 368 370 368 359 357 356 355 356 357 355 357 354 344 344 344 349 349 352 351 352 350 348 344 349 347 345 352 351 347 346 352 352 353 352 351 353 353 352 352 351 351 350 350 348 342
353 353 356 367 368 362 360 358 355 355 355 355 356 359 349 345 343 343 346 348 350 351 351 351 349 347 350 350 347 348 349 350 349 349 352 353 353 354 352 351 351 352 352 351 351 349 348 345 341
355 358 366 365 363 360 357 355 354 358 357 358 356 357 350 343 344 343 346 349 352 350 350 351 351 346 349 347 347 346 351 350 345 350 353 353 353 353 354 352 352 351 351 349 346 345 346 346 344
359 355 363 366 362 358 355 354 355 357 359 356 356 356 354 347 343 344 347 348 352 349 350 353 351 349 347 348 346 350 346 344 348 352 351 351 351 351 353 353 352 351 350 345 344 344 345 345 343
360 355 355 363 364 360 360 354 357 358 359 358 355 359 351 345 342 343 348 350 352 350 350 352 351 351 350 349 351 350 345 350 350 349 346 345 346 347 346 350 351 348 346 345 344 344 345 343 342
358 360 361 356 355 355 353 352 355 358 359 353 352 358 351 344 341 347 349 349 351 351 350 352 350 350 348 349 352 348 347 352 351 346 345 343 345 348 343 343 345 346 346 345 343 343 343 341 339
354 358 362 356 355 354 350 355 355 354 356 355 353 352 345 342 347 349 348 349 352 351 348 353 349 349 348 349 349 344 348 350 346 344 345 347 348 351 352 347 343 344 344 345 342 341 341 342 339
357 358 360 350 349 352 349 350 350 358 358 357 355 350 344 343 348 349 348 349 352 352 352 351 347 348 349 347 343 339 340 341 346 348 342 342 349 349 348 343 343 344 343 344 344 344 345 345 342
351 354 354 348 348 348 348 347 349 355 361 357 356 352 347 346 349 349 350 350 350 351 350 348 348 350 349 347 338 342 342 348 350 350 337 346 347 348 348 346 347 344 346 348 347 349 348 348 348
349 347 347 348 346 345 345 349 350 350 359 354 352 350 349 351 350 350 350 349 349 348 346 346 348 349 349 347 342 345 345 347 351 348 343 346 346 346 346 349 348 348 351 351 349 349 350 348 346
346 345 347 346 346 343 347 348 350 356 357 353 351 351 351 351 350 349 349 349 349 348 345 345 346 347 349 348 343 347 346 347 350 349 349 349 349 347 344 346 348 349 352 350 349 351 349 345 345
343 343 345 346 348 348 349 347 347 357 355 354 352 352 351 350 349 349 347 348 348 350 345 345 345 346 350 348 345 348 348 347 351 351 347 354 350 351 348 349 349 350 349 350 351 348 347 345 344
340 341 341 348 349 350 349 351 354 352 355 356 354 353 351 350 349 349 348 348 349 348 345 347 344 344 348 349 349 347 347 343 348 350 348 346 347 352 351 351 350 351 351 350 350 350 349 346 346
337 339 342 340 347 349 351 356 351 351 354 355 355 354 353 350 349 348 348 349 348 349 350 347 346 343 345 347 348 346 347 346 343 348 348 346 348 354 350 350 350 351 352 351 350 351 348 345 345
334 341 341 341 342 344 350 355 350 348 352 353 353 354 352 352 349 349 349 349 348 348 350 349 348 346 344 345 346 348 348 348 345 345 348 345 344 349 353 351 351 351 353 351 346 348 348 347 343
335 340 339 340 341 343 344 353 350 350 350 354 354 351 350 352 351 350 351 349 349 346 348 347 349 348 347 345 345 348 346 348 348 345 346 349 347 348 352 352 352 351 351 350 351 349 347 345 344
335 339 339 338 339 341 343 351 351 351 347 350 354 349 350 348 350 351 350 351 347 346 348 346 349 350 349 349 349 351 348 350 348 345 347 348 350 352 352 351 353 352 352 351 351 349 348 344 337
334 336 338 338 337 338 342 349 352 351 351 351 354 350 347 348 347 348 349 348 348 350 346 349 348 351 350 350 349 351 352 349 348 344 345 352 352 351 354 354 355 351 353 352 350 348 348 346 336
332 334 335 337 335 333 337 350 349 346 349 347 350 346 345 348 348 347 346 347 348 349 348 346 348 349 351 350 350 349 353 350 348 345 343 350 351 350 352 354 352 354 353 351 351 352 348 344 339
333 333 335 337 336 334 336 343 352 349 352 349 348 347 348 347 347 347 346 347 348 350 350 347 348 348 352 351 353 352 351 350 350 346 344 343 347 346 351 355 351 353 354 354 351 349 345 346 343
333 331 333 335 336 334 335 340 347 353 354 351 349 347 345 347 347 348 347 348 348 350 352 350 348 351 354 352 353 352 351 350 347 349 344 344 345 347 350 357 354 350 354 352 351 353 352 348 344
332 331 329 331 334 335 333 337 340 351 354 352 345 345 346 348 348 346 347 347 347 350 352 353 351 353 353 354 352 350 352 350 349 346 346 345 346 348 353 358 356 355 353 353 354 354 349 348 348
330 329 328 329 332 333 329 331 331 339 343 348 348 347 349 350 348 347 347 346 347 349 351 355 354 354 357 354 352 355 351 350 347 347 346 344 349 352 354 354 359 356 356 351 353 356 355 349 350
330 326 324 326 328 329 326 330 331 333 336 341 344 349 350 350 349 347 347 346 346 347 351 354 356 355 355 358 355 351 356 351 349 348 346 346 352 352 354 354 353 358 356 353 353 354 355 353 345
326 325 323 323 327 326 325 326 327 328 331 336 338 340 350 350 350 349 346 346 346 347 350 353 357 356 356 356 357 354 351 358 355 348 350 355 349 354 353 353 354 355 357 354 352 354 358 356 354
324 324 323 323 325 327 327 326 328 327 328 330 332 338 342 349 350 350 348 347 346 346 349 351 356 357 357 356 358 358 354 350 359 357 349 348 355 351 354 355 355 354 356 355 353 353 357 358 356
324 325 323 322 322 325 329 329 328 328 329 330 331 335 339 349 351 351 349 348 347 346 348 350 354 358 359 359 358 359 359 356 352 360 357 348 347 353 358 353 357 357 356 356 357 356 355 358 358
326 325 324 325 323 323 323 327 332 331 330 331 332 332 337 344 350 351 350 349 348 347 347 348 352 357 359 360 360 359 361 362 359 354 358 357 346 346 353 360 360 357 354 356 356 356 355 358 357

GFSSGP_925_thetae_054.txt.gz
Theta_e
343 349 350 351 366 365 371 368 361 357 355 350 351 353 356 355 355 354 343 344 344 348 350 351 350 350 350 351 345 351 350 344 350 351 351 352 352 351 352 352 352 353 351 349 350 350 350 349 347
344 350 352 358 369 372 369 362 363 355 354 349 354 355 357 357 346 343 344 348 347 349 350 351 349 350 350 346 348 348 351 351 349 348 349 351 352 352 352 352 350 351 351 349 350 349 349 349 348
343 349 358 365 367 368 368 360 357 356 352 355 358 354 355 352 343 344 346 349 349 350 349 351 345 345 347 347 347 351 351 351 350 351 350 351 352 352 353 351 351 351 351 351 350 346 346 347 342
347 350 356 367 367 361 361 357 356 357 355 354 355 356 346 345 343 344 349 349 350 351 350 348 341 345 347 351 346 352 351 351 351 351 350 350 353 351 351 352 352 352 351 351 349 347 345 344 339
352 357 363 365 360 358 356 356 356 358 358 357 353 351 347 343 343 347 349 350 350 351 351 350 342 343 350 347 351 352 352 351 349 349 351 351 352 353 352 352 352 352 352 350 348 346 346 344 341
357 353 356 362 360 357 357 356 356 359 356 351 347 347 347 343 344 345 348 351 349 351 350 349 345 347 347 350 351 351 351 349 349 350 351 352 352 351 351 352 352 352 351 347 346 346 344 343 340
352 354 357 357 359 355 361 357 357 359 357 355 352 355 346 342 344 345 351 350 349 349 351 350 349 351 349 346 352 347 344 345 349 349 346 348 348 349 350 351 350 346 345 344 344 345 343 341 341
353 354 356 358 356 355 358 354 356 358 358 351 350 355 350 343 344 346 352 351 350 350 351 351 350 349 344 351 353 341 343 345 347 347 345 344 345 346 346 345 347 346 344 344 344 344 341 339 342
355 363 364 357 356 353 353 355 355 353 355 353 352 349 345 343 344 349 351 351 351 351 350 351 348 344 343 355 352 340 344 346 346 347 345 347 350 348 347 343 344 345 343 343 343 342 342 340 341
360 361 362 352 348 351 353 355 357 357 357 355 350 347 343 342 344 348 349 349 351 351 351 350 344 342 344 350 347 338 343 345 344 344 342 347 348 347 345 344 344 344 343 343 344 343 344 343 343
354 362 355 352 347 347 348 347 352 358 360 353 350 346 342 343 348 348 348 351 351 350 351 348 342 342 341 341 335 335 339 343 347 345 338 344 347 348 348 344 343 344 343 345 347 348 347 347 345
351 350 352 350 347 347 347 346 358 356 357 350 345 343 343 348 348 348 348 351 351 351 350 346 342 346 344 334 331 334 341 348 350 344 343 342 344 346 345 348 346 348 348 349 349 348 348 347 347
340 346 347 347 346 345 344 348 350 354 353 348 343 343 345 347 348 348 349 350 350 350 349 344 345 348 347 338 336 341 346 349 349 340 345 348 345 344 340 342 345 348 349 349 347 349 347 345 345
339 340 344 345 347 347 347 347 356 357 352 350 346 344 345 348 348 348 349 349 348 349 348 344 345 348 348 346 341 345 345 346 349 350 348 351 348 349 346 347 348 349 348 351 349 348 347 346 342
330 339 341 342 348 350 346 350 363 356 353 352 350 348 349 349 348 349 349 349 348 347 346 346 346 348 348 348 345 347 348 347 347 350 350 352 351 349 349 349 349 350 349 351 351 348 348 345 344
332 333 337 337 348 348 347 354 359 355 355 355 353 351 350 350 349 347 348 348 348 348 344 344 346 346 349 348 348 350 349 347 348 350 348 351 350 350 348 350 350 351 351 349 349 349 347 345 344
325 332 335 337 348 350 351 358 359 356 355 355 353 352 351 350 348 348 347 347 347 348 346 344 346 346 350 350 349 346 347 347 346 349 349 347 349 352 348 349 350 348 351 352 349 348 345 342 343
326 333 334 336 346 350 353 354 357 356 357 357 354 353 351 351 349 348 348 347 347 347 346 345 345 346 350 347 346 344 347 345 348 347 346 346 345 346 351 350 350 350 350 352 349 348 347 347 346
327 330 334 336 337 349 353 353 355 357 355 357 356 356 353 351 348 348 348 347 347 347 347 346 346 345 346 346 347 345 346 347 347 348 346 347 347 344 346 348 350 350 350 350 349 349 344 341 339
325 329 333 335 336 336 350 353 352 354 353 354 354 351 353 352 350 348 348 348 347 346 348 347 347 345 344 344 344 345 344 346 347 347 345 348 348 349 351 348 352 352 351 352 352 351 346 342 337
326 327 331 334 334 333 351 355 352 350 347 348 352 351 350 349 351 350 348 349 349 346 347 347 348 346 347 346 345 344 343 343 348 349 345 347 349 351 351 352 351 353 351 352 349 349 348 344 337
327 327 330 333 333 336 335 362 354 352 349 352 351 352 350 348 345 349 349 349 349 347 347 346 348 348 348 348 347 346 348 350 349 349 345 344 350 351 351 351 353 352 353 352 349 350 350 345 338
328 327 329 331 332 332 334 347 354 352 352 352 352 351 347 345 346 345 349 350 349 347 346 347 349 349 349 349 349 348 349 351 351 349 346 345 348 351 350 348 354 350 352 353 351 351 347 346 343
328 328 329 330 327 332 333 332 346 356 352 350 349 349 347 340 342 343 347 348 348 347 347 347 350 350 350 350 350 349 348 348 351 349 348 345 344 347 349 347 355 353 349 353 352 351 352 351 344
331 327 331 330 330 331 329 329 331 348 349 348 347 349 346 341 341 344 345 345 346 348 348 346 350 352 351 350 351 349 349 348 347 347 347 348 344 345 346 348 355 355 353 351 352 352 353 350 349
330 330 328 332 329 329 324 328 328 341 344 346 345 346 345 343 343 344 345 345 347 348 349 348 348 351 352 351 351 351 350 349 349 348 348 345 345 345 344 347 352 356 356 353 353 352 353 353 350
331 331 323 320 320 322 323 324 325 326 341 346 347 346 345 343 343 345 345 346 346 348 349 350 349 349 352 352 352 352 351 350 349 349 347 346 347 343 346 347 352 353 356 356 355 351 355 355 353
330 323 325 317 325 324 322 323 326 324 323 335 343 347 345 343 345 346 346 346 346 348 349 351 350 349 351 353 352 351 352 352 351 349 348 346 345 349 348 351 352 354 353 356 356 352 353 354 355
325 328 324 322 318 323 323 324 322 322 322 323 333 345 345 346 347 348 346 346 346 346 349 351 352 351 351 352 354 353 351 350 354 355 350 347 348 350 352 352 354 354 354 354 357 355 352 353 357
330 321 321 324 320 318 320 325 326 324 323 324 324 340 344 348 349 348 346 346 345 345 347 350 352 352 352 352 353 355 354 353 350 352 357 354 350 347 348 355 357 354 353 355 355 356 354 353 355

GFSSGP_925_thetae_057.txt.gz
Theta_e
348 348 349 351 369 366 368 367 360 358 355 349 349 353 355 353 355 355 342 343 345 347 350 351 349 351 350 351 350 350 350 351 351 350 349 351 351 350 350 351 351 351 349 351 350 350 348 348 348
348 350 350 357 368 372 369 362 363 354 351 348 353 355 355 355 344 342 344 345 345 349 350 351 348 349 351 351 351 351 352 351 351 349 350 351 351 352 352 352 352 350 349 350 350 349 348 348 348
349 351 357 364 364 368 367 361 358 353 350 354 357 351 352 349 343 343 345 345 347 350 350 350 346 349 351 351 352 352 352 350 351 349 351 351 352 352 352 352 348 352 351 351 349 350 349 348 347
349 347 354 367 365 361 361 359 356 353 356 354 353 353 345 343 343 345 347 348 347 349 350 350 349 350 351 351 351 351 351 350 347 349 346 350 352 353 352 352 351 351 351 344 344 344 348 341 342
349 357 363 365 361 358 357 356 356 357 359 356 350 350 348 343 344 348 349 350 349 349 350 350 349 350 351 351 352 351 351 350 347 349 349 351 351 351 351 352 352 351 351 349 346 347 347 343 341
357 349 354 361 360 357 355 357 356 358 354 348 348 348 347 343 347 348 350 350 349 349 348 347 348 350 351 352 349 352 351 348 349 350 351 347 351 352 352 352 352 352 351 350 345 342 342 342 341
353 350 356 358 359 355 357 358 359 358 354 349 345 351 344 345 346 348 350 350 350 350 347 345 349 350 351 350 352 351 350 345 349 349 350 349 350 352 353 353 352 352 350 345 344 341 341 340 341
352 351 357 358 355 359 355 356 354 357 358 346 345 350 349 344 345 351 350 350 351 349 347 346 351 351 348 351 351 351 346 346 351 349 348 349 350 350 351 349 347 348 347 345 344 341 340 340 341
355 361 362 359 357 355 352 355 353 353 354 353 349 344 344 343 349 351 352 352 351 351 347 348 352 348 344 352 349 349 345 347 349 350 349 347 344 344 345 345 347 346 346 343 342 343 340 341 342
357 361 362 355 349 353 354 356 357 356 356 353 347 343 344 343 350 350 350 349 351 352 351 350 349 343 346 352 349 345 345 347 348 347 346 348 349 347 344 342 344 345 346 345 344 343 343 342 343
357 362 357 354 346 351 354 354 354 357 358 352 348 346 344 342 349 350 349 349 350 351 350 350 346 340 346 349 345 341 342 343 344 344 343 348 346 345 343 342 342 342 343 346 346 347 345 344 344
354 353 356 353 349 347 350 348 358 357 357 349 344 345 344 343 348 349 349 349 350 351 349 348 343 338 340 344 338 337 341 342 344 343 338 345 347 347 346 344 344 347 348 349 349 348 348 347 346
342 346 345 347 347 346 345 352 358 357 351 347 343 345 344 345 347 348 349 349 349 350 348 346 342 337 335 338 334 335 338 345 348 341 342 342 345 343 345 348 347 348 348 347 347 346 345 346 345
332 335 337 339 341 345 347 353 356 356 347 347 344 344 345 347 347 347 349 350 349 349 347 345 340 337 337 337 333 335 342 348 348 342 344 348 345 346 341 343 346 348 348 347 348 347 346 345 343
327 331 331 335 341 348 345 352 362 353 346 346 345 343 346 347 347 347 348 350 350 348 347 346 337 340 339 337 336 339 344 346 348 349 345 349 348 349 347 346 348 347 348 348 349 346 345 344 339
328 327 330 334 339 347 345 352 359 352 348 346 345 345 346 347 347 347 348 349 349 349 348 346 339 344 342 345 345 342 345 346 346 346 349 349 351 348 348 349 349 349 349 349 345 346 347 345 343
319 328 333 334 339 349 348 357 359 353 351 348 345 345 347 348 347 347 348 348 348 347 348 345 342 345 346 345 347 347 346 348 348 347 348 350 351 350 347 348 349 349 349 350 347 347 346 343 343
321 327 330 332 343 349 351 353 360 355 354 353 349 347 348 350 349 347 348 348 347 347 346 346 343 345 346 347 347 348 348 345 348 347 350 348 348 350 348 348 349 349 350 348 346 346 347 346 343
322 328 332 333 341 350 351 354 361 357 355 355 353 351 349 350 348 348 347 347 347 347 347 345 344 344 345 347 349 349 348 348 347 347 350 349 349 349 350 349 349 347 350 350 348 346 346 343 344
320 321 325 329 334 347 349 351 358 359 357 355 354 353 352 349 348 347 347 346 346 346 347 346 345 344 344 346 349 348 345 346 347 347 347 348 347 347 347 346 348 349 351 349 349 348 345 338 338
319 321 322 328 332 339 343 353 358 357 357 355 354 353 351 350 349 347 347 347 346 345 346 346 346 344 344 347 348 347 346 345 346 347 348 345 348 348 348 348 347 350 349 351 350 349 346 342 336
320 322 323 326 330 334 345 358 356 355 358 352 355 355 354 351 349 347 347 347 347 345 346 347 346 344 345 346 347 347 346 345 345 346 346 346 346 348 350 349 351 350 351 351 350 348 348 344 336
323 324 325 326 328 330 337 354 351 351 356 354 349 352 352 351 351 349 347 347 347 346 346 347 346 345 345 346 346 345 346 344 344 344 345 347 345 347 350 350 352 352 350 351 351 350 349 348 339
326 326 325 326 325 331 330 334 332 352 352 350 349 347 348 349 349 348 348 347 347 347 346 346 346 346 346 345 345 346 346 345 344 343 344 348 345 344 350 351 351 353 349 352 351 351 349 346 344
328 323 327 328 328 332 327 331 333 346 348 348 348 346 345 347 347 346 348 348 348 347 346 346 346 347 347 347 347 347 346 346 344 343 345 347 347 345 347 351 350 352 354 350 351 352 351 351 349
328 324 326 330 330 330 325 329 329 335 345 346 345 345 344 346 345 342 344 348 348 348 347 346 346 348 348 347 348 348 347 347 346 345 346 347 346 345 344 344 349 347 353 354 351 351 351 352 351
330 330 325 324 317 326 329 323 324 329 339 344 346 344 344 345 344 338 342 345 348 348 347 346 347 348 348 348 348 349 348 348 347 346 346 347 346 346 346 343 344 346 349 355 354 352 351 352 351
329 324 329 322 327 324 321 322 329 326 332 339 343 345 344 344 344 341 339 343 346 347 347 346 346 348 349 349 349 349 349 348 348 347 347 345 346 346 344 343 345 346 347 352 356 354 353 351 353
323 329 326 327 323 332 322 323 319 323 326 336 340 343 343 343 344 342 341 343 344 346 347 347 346 347 348 349 349 349 349 348 349 349 348 347 347 346 346 346 344 347 349 351 353 354 355 353 353
320 324 321 332 327 317 321 328 322 320 321 324 337 341 342 342 342 341 341 343 345 346 347 348 347 346 347 349 350 349 349 349 350 349 349 348 346 347 345 344 348 350 353 353 353 354 354 355 353

GFSSGP_925_thetae_060.txt.gz
Theta_e
350 349 348 350 368 365 368 367 358 356 354 348 348 349 353 352 355 356 342 344 344 346 346 347 348 350 351 351 351 350 351 349 350 349 350 350 349 348 347 351 351 348 351 349 349 347 346 347 348
347 349 349 357 369 370 367 361 361 353 350 351 353 353 354 354 344 344 343 346 344 346 346 348 348 349 351 350 350 352 351 350 351 349 351 351 351 351 350 349 349 350 350 349 348 348 348 349 349
348 351 358 364 362 367 365 360 359 351 349 354 355 350 351 350 343 342 344 346 346 349 348 348 348 349 351 350 351 351 351 350 349 351 351 351 350 352 351 351 351 350 350 350 349 348 348 348 348
350 349 352 367 363 360 360 358 354 353 355 353 351 351 344 342 342 343 346 347 347 350 348 348 350 351 351 350 352 351 351 350 350 349 351 351 351 351 352 352 350 344 347 349 350 349 344 343 343
346 356 362 364 361 357 356 355 354 356 358 353 350 350 349 343 344 346 347 348 348 350 348 348 349 350 351 351 351 351 350 350 349 352 350 351 352 350 350 352 352 351 350 346 348 349 343 342 343
358 348 352 360 359 356 354 359 356 358 352 348 348 348 347 345 347 348 348 350 348 348 347 348 349 350 352 352 351 350 350 350 349 350 348 351 350 350 351 352 352 351 351 350 342 343 340 341 342
352 347 354 358 359 355 357 358 357 357 352 350 345 349 346 347 348 348 348 349 349 349 347 348 349 350 352 351 352 350 351 351 350 349 347 348 348 349 350 351 352 352 345 346 341 341 339 340 342
352 349 356 355 356 358 354 357 355 356 356 344 343 349 351 345 348 348 349 349 349 348 347 347 348 350 350 352 352 351 350 351 348 346 347 347 350 351 353 350 352 346 347 343 341 341 339 340 344
351 359 360 359 356 355 353 357 356 352 348 350 345 344 344 346 349 350 350 351 349 347 346 347 349 349 346 351 350 351 350 351 347 348 346 345 346 348 348 348 351 351 349 342 343 341 341 341 343
357 359 358 353 350 351 356 355 357 356 353 350 346 345 345 348 349 347 347 348 351 350 348 348 349 346 347 350 350 350 351 347 345 348 347 345 344 342 343 345 345 346 344 343 343 343 341 342 343
356 360 358 354 346 349 355 356 355 356 357 349 349 347 344 349 347 346 346 346 347 348 347 348 348 344 348 351 348 347 347 344 345 347 345 347 346 343 343 343 344 344 344 346 345 344 344 343 343
355 353 356 355 352 349 351 350 357 355 355 347 345 345 345 349 347 346 346 346 347 348 349 347 347 343 347 350 345 343 344 342 343 342 344 347 346 346 343 342 343 344 347 347 347 345 345 346 344
348 348 347 351 348 346 346 353 357 356 349 344 344 344 345 348 347 347 347 347 348 349 349 346 344 340 342 348 342 340 341 342 342 341 339 343 346 345 345 344 346 346 346 345 345 345 345 345 345
334 341 341 340 339 342 347 350 355 353 347 345 346 345 344 348 348 348 348 348 349 349 348 345 341 338 336 342 338 337 339 342 345 343 344 342 343 343 341 345 344 347 346 345 345 343 345 343 345
327 326 327 330 337 344 348 358 360 351 347 346 347 346 344 347 348 348 349 348 347 347 346 343 339 337 334 335 334 334 336 343 345 341 341 346 347 347 343 346 347 347 348 346 344 345 344 342 339
324 325 329 330 332 341 345 350 358 348 348 347 347 346 346 347 347 347 349 348 347 346 346 343 340 336 335 335 334 334 338 344 347 348 348 346 349 348 348 347 347 347 348 345 344 344 344 343 339
317 328 328 332 333 346 345 349 357 347 348 347 346 346 346 347 347 346 348 349 348 346 345 344 342 336 336 335 337 338 341 344 345 346 346 348 349 350 348 349 348 349 348 349 345 345 344 343 341
323 322 328 334 335 344 349 350 357 349 348 349 346 345 346 347 347 346 347 348 349 348 345 344 344 336 338 339 344 345 346 345 345 347 347 346 349 350 350 347 348 348 349 345 344 345 346 342 341
322 325 328 330 335 348 349 348 360 354 349 347 346 345 345 346 345 347 347 347 348 348 347 346 346 340 341 345 346 346 347 348 346 347 346 348 348 349 350 347 349 348 348 347 342 345 344 345 344
320 321 323 325 331 344 346 349 358 356 354 349 347 346 346 346 346 346 347 347 347 347 346 346 346 340 341 345 346 347 347 348 345 345 345 348 349 348 348 350 349 348 348 348 348 346 345 337 339
316 320 320 326 329 345 346 351 359 359 356 353 351 347 345 346 348 347 346 347 347 346 346 345 346 343 341 343 345 347 347 348 347 347 347 348 348 347 347 348 347 349 349 349 348 348 345 339 337
313 317 321 322 325 334 342 346 352 358 360 356 354 352 350 348 347 347 347 346 346 346 346 346 346 345 343 343 344 346 347 346 346 346 347 346 345 347 347 348 349 348 350 348 348 348 346 345 336
316 318 319 321 324 329 333 348 345 354 362 360 356 353 351 350 348 347 346 346 346 345 345 346 346 345 344 343 344 345 348 346 345 345 345 346 345 345 347 348 350 350 350 350 349 349 348 347 338
319 323 321 322 322 328 326 339 332 352 355 355 355 353 353 351 349 347 346 346 346 346 344 345 345 345 345 345 345 345 346 347 345 344 344 345 345 345 345 348 350 350 351 350 349 350 350 348 346
321 320 324 326 326 329 324 328 331 333 347 348 350 351 350 352 351 349 347 346 346 346 345 345 345 345 345 345 345 345 345 345 345 344 343 342 344 345 344 346 350 350 350 351 349 350 350 348 346
322 321 323 328 328 326 323 329 329 328 337 342 344 346 346 349 350 350 349 348 346 346 346 345 345 345 345 345 345 345 345 344 344 344 344 340 339 342 345 344 345 349 349 351 353 349 351 351 351
324 325 322 322 320 324 326 324 324 325 329 334 341 342 344 345 347 348 348 348 348 346 346 345 345 345 345 345 345 345 345 345 344 345 345 343 339 341 344 344 343 344 347 348 352 352 350 350 350
319 323 329 322 329 326 324 323 332 326 327 331 339 344 343 343 344 345 346 345 348 347 346 346 345 345 346 346 346 346 346 345 345 345 346 345 344 342 344 345 346 344 344 345 348 354 353 351 351
320 321 324 327 324 329 323 324 319 325 328 329 334 342 342 343 343 343 343 343 345 348 347 346 345 345 346 346 346 347 347 346 346 346 346 346 345 345 344 345 345 344 344 345 347 350 354 354 353
318 320 322 332 329 323 323 329 322 322 324 327 329 337 341 342 342 342 342 340 343 347 348 347 345 345 346 346 347 347 347 347 347 347 346 346 346 346 343 344 345 345 345 344 347 349 351 353 354

GFSSGP_925_thetae_063.txt.gz
Theta_e
348 349 349 350 370 365 370 367 360 358 357 350 347 350 351 352 354 360 345 347 347 348 350 349 347 351 350 343 344 348 350 348 350 350 350 350 351 351 348 348 347 351 347 349 347 346 347 349 350
348 349 349 357 369 371 369 362 361 356 352 349 351 352 353 354 346 345 346 347 346 347 349 348 348 350 347 351 349 349 348 348 348 350 350 351 351 349 351 351 350 351 349 348 349 348 349 349 349
349 351 358 364 366 370 368 360 357 352 350 352 355 350 351 352 345 344 345 347 346 348 350 349 348 349 351 347 352 350 351 351 349 349 351 350 351 349 351 349 350 350 349 349 348 349 349 348 347
351 351 353 367 365 360 361 359 353 354 355 353 353 354 345 343 344 344 347 347 346 348 348 349 347 350 351 352 352 351 351 350 349 349 352 349 348 350 351 350 349 349 349 349 349 349 349 343 342
349 354 363 366 363 358 357 355 353 355 356 355 351 351 349 344 344 346 348 348 348 347 348 351 348 351 352 352 351 350 351 349 351 350 349 351 351 352 351 350 347 349 349 350 349 347 347 347 343
358 352 359 362 359 356 357 356 355 358 355 351 351 350 348 345 346 347 348 348 348 347 346 350 349 350 351 352 351 351 352 351 351 352 351 352 351 348 349 348 351 351 350 349 347 343 341 342 343
357 353 357 358 359 356 357 358 356 358 356 354 347 352 349 346 346 349 348 348 349 347 346 348 349 351 353 352 351 351 351 350 350 351 351 351 348 348 347 348 348 345 347 348 345 338 340 341 343
357 352 361 357 358 359 358 357 356 356 356 346 345 352 352 347 348 349 349 349 350 348 347 348 350 351 353 353 351 351 349 350 351 349 351 349 348 348 348 347 344 342 344 348 347 339 340 343 342
350 363 364 360 356 357 355 358 358 351 349 349 346 346 345 346 348 349 350 350 350 348 346 346 349 350 352 354 350 351 348 350 348 346 345 348 352 351 350 347 343 342 344 341 343 340 340 342 342
359 363 358 354 351 352 354 356 359 354 352 352 348 345 346 347 348 348 348 350 349 347 346 346 347 348 350 349 350 351 351 350 350 350 344 345 343 344 347 347 344 344 342 343 343 341 341 344 346
355 359 356 353 349 352 357 355 356 356 358 353 352 349 347 348 347 346 346 348 346 344 344 345 349 349 349 349 349 350 351 350 351 347 347 346 344 344 346 347 343 344 346 348 348 348 347 346 347
356 354 356 356 353 351 353 356 358 356 356 351 348 347 347 348 346 346 346 348 346 344 344 346 349 350 353 350 348 349 350 350 351 347 345 346 347 344 342 347 343 344 345 345 347 347 345 348 347
353 351 349 351 350 348 348 356 358 357 353 348 347 347 348 347 345 344 344 346 346 344 344 347 349 349 351 351 349 349 350 349 349 345 342 345 346 346 344 343 345 346 345 346 345 346 349 350 350
336 339 346 343 344 346 346 348 356 356 350 350 348 348 348 347 344 344 344 345 345 344 344 346 349 348 349 351 344 347 348 348 347 347 340 342 345 344 342 345 344 346 345 342 344 343 345 346 346
332 335 332 331 333 343 344 352 357 354 350 351 349 348 348 347 344 345 344 345 345 346 345 346 348 346 343 347 343 343 344 346 348 349 345 345 345 346 343 343 348 349 346 344 344 345 343 342 343
323 324 325 330 333 341 346 353 357 352 352 352 350 348 349 348 345 345 346 345 346 346 347 347 345 344 343 343 340 342 342 345 346 347 344 344 346 348 346 346 349 347 344 344 342 343 347 347 345
325 321 322 325 335 344 347 350 356 352 353 354 351 349 348 349 347 347 347 346 346 346 348 347 346 343 344 338 339 337 338 342 347 347 347 347 348 349 348 348 347 348 345 342 343 344 346 347 342
323 322 327 324 335 343 349 349 357 354 353 354 352 350 348 348 349 347 347 347 347 346 347 347 345 345 342 344 339 343 344 344 345 346 347 346 347 349 350 348 348 348 345 344 343 346 343 345 344
323 326 324 331 331 341 346 347 356 354 354 353 352 351 349 348 346 346 347 348 348 347 347 347 346 345 343 345 345 346 347 348 347 346 346 346 346 348 349 351 349 348 346 345 344 346 344 347 343
320 325 327 328 332 344 344 347 348 356 355 354 352 351 349 348 348 347 347 348 348 349 348 347 346 346 340 344 346 348 349 350 351 346 346 346 347 347 348 349 350 348 347 346 344 346 347 343 343
319 320 323 327 328 337 343 345 352 357 355 352 351 350 346 348 349 349 347 347 348 349 349 348 346 346 344 342 347 347 347 347 349 347 346 345 347 347 347 348 350 348 347 347 346 348 349 342 341
319 319 320 323 327 334 340 347 350 355 360 357 353 350 349 347 347 348 347 347 347 348 349 348 348 347 346 342 346 347 348 348 349 350 348 345 346 346 346 347 348 347 353 347 347 349 347 344 341
318 317 318 320 324 328 331 343 342 350 360 360 357 354 350 348 347 348 347 347 347 348 348 348 348 347 346 345 343 348 349 349 349 349 347 346 345 345 346 347 348 350 352 348 349 349 347 348 342
318 321 319 319 319 322 329 335 342 349 354 357 357 356 354 351 348 348 347 347 347 348 348 348 348 347 346 346 345 345 348 350 349 349 348 349 349 348 344 346 347 350 351 350 350 349 349 349 348
319 319 322 325 324 321 322 330 333 337 347 348 354 356 355 353 351 349 349 348 348 347 348 348 349 347 346 347 347 345 346 348 349 349 348 347 348 349 347 344 346 350 349 349 350 350 349 351 349
323 323 323 326 325 322 322 329 332 331 331 344 348 351 354 354 353 352 351 349 349 349 348 348 349 349 347 346 347 346 345 348 348 348 347 348 346 347 347 344 344 344 349 349 351 352 353 354 353
324 325 323 324 326 328 323 325 327 331 332 333 338 347 352 354 354 353 351 350 349 349 350 348 349 348 348 347 347 347 347 347 348 347 346 347 346 346 343 342 343 343 345 348 350 354 353 351 352
323 324 326 326 327 328 328 327 326 329 332 334 335 339 345 350 352 353 353 351 350 349 349 349 348 349 348 347 347 348 347 346 346 347 346 345 346 345 344 340 343 344 344 345 348 353 354 355 354
323 324 327 327 328 328 327 329 329 329 333 333 334 336 342 344 348 350 352 352 351 349 349 349 349 349 349 348 347 348 348 348 348 348 348 346 343 345 344 341 342 343 345 346 346 346 352 356 357
317 322 325 330 332 332 330 329 327 331 330 333 334 335 338 343 344 347 348 350 351 351 350 349 349 349 349 349 348 348 348 349 349 349 349 348 345 344 345 344 343 344 346 347 350 350 352 354 355

GFSSGP_925_thetae_069.txt.gz
Theta_e
348 350 353 354 369 369 373 367 358 361 358 354 353 353 357 356 361 369 350 350 350 350 350 350 350 352 352 350 351 349 350 348 352 352 351 351 352 351 351 348 351 351 349 348 350 350 350 350 351
351 353 354 358 374 376 372 359 360 358 355 353 353 354 355 358 353 352 351 350 350 349 348 348 348 350 351 352 352 352 352 353 352 352 352 351 352 351 348 348 352 350 352 350 348 349 350 350 351
353 353 359 369 368 374 372 359 358 355 353 355 356 351 357 356 352 352 349 350 349 346 344 352 349 350 353 353 353 352 353 352 350 352 351 352 351 352 353 352 350 350 350 350 350 350 350 349 349
353 355 360 372 371 365 362 358 357 356 354 354 353 357 352 351 350 350 349 350 347 345 347 351 352 353 353 353 352 353 352 352 352 352 353 352 353 349 351 351 352 351 350 351 349 348 346 349 350
354 359 369 372 369 361 359 355 355 357 356 355 353 358 355 350 350 349 348 348 346 344 348 351 350 353 352 353 353 352 352 351 350 352 352 351 353 352 351 350 350 350 351 349 348 348 347 348 348
359 358 373 370 367 360 358 355 357 357 356 356 358 357 355 349 350 349 348 346 343 343 347 348 350 352 353 354 352 350 353 352 352 352 353 354 352 352 352 352 351 351 350 349 347 342 347 347 344
359 366 362 362 361 360 359 356 358 358 357 357 355 361 354 349 349 348 347 345 342 343 346 348 351 353 353 353 350 353 353 353 353 353 353 351 346 352 352 351 351 350 349 348 345 342 342 344 345
352 360 359 358 361 364 360 358 357 356 359 353 353 361 358 350 348 347 346 343 342 345 345 348 350 348 348 350 350 353 353 349 353 350 352 349 350 343 345 343 349 350 349 348 348 343 342 341 340
347 364 364 360 360 364 357 360 359 357 356 354 352 356 352 349 348 347 345 343 342 345 345 346 348 350 348 348 352 351 353 352 350 347 346 348 348 351 350 341 348 349 349 348 344 342 341 340 340
351 363 361 357 354 360 359 359 361 359 358 356 355 352 350 349 348 347 345 344 342 344 344 344 347 353 347 346 352 352 349 350 352 350 354 351 351 350 346 343 341 347 341 340 340 341 343 345 346
347 356 354 356 354 354 357 358 356 357 358 356 357 355 351 348 348 348 345 344 342 343 343 343 349 347 348 347 349 347 350 348 350 351 352 348 347 347 348 348 349 348 349 346 345 347 348 345 346
349 347 349 354 353 354 356 357 357 357 359 354 354 353 351 351 350 348 346 345 342 343 343 344 346 349 347 346 347 347 347 347 347 350 351 350 351 350 349 349 349 349 349 348 348 349 348 346 347
345 347 344 348 354 353 353 356 353 353 354 353 353 352 352 351 349 347 345 344 343 343 343 345 346 347 350 349 348 347 346 347 349 349 351 349 348 350 350 350 350 350 348 347 349 347 347 344 342
337 342 343 345 354 351 353 354 355 355 355 356 354 354 352 351 349 348 346 345 343 342 343 345 347 348 350 349 350 348 347 350 348 350 351 353 352 351 350 351 350 350 349 349 351 348 348 349 343
333 334 337 341 351 353 351 355 355 357 355 357 355 354 353 351 348 348 346 346 344 342 343 345 346 348 350 351 349 348 348 348 350 350 352 352 354 353 352 352 350 350 351 351 350 348 341 348 342
329 332 336 336 345 348 350 356 352 358 357 358 357 354 353 351 349 347 347 346 343 340 342 345 344 346 350 350 350 348 346 347 348 348 351 353 354 354 353 352 349 349 350 348 349 350 341 347 341
325 329 333 335 340 343 345 355 350 357 357 358 357 354 353 352 349 347 346 346 343 340 341 344 344 345 348 351 349 348 348 350 349 350 351 354 354 354 355 351 352 351 348 348 347 348 343 346 344
325 325 327 332 335 337 342 352 353 358 356 358 358 355 354 352 351 347 346 346 344 341 341 343 344 344 347 350 350 348 349 349 349 350 352 355 355 354 355 354 354 352 347 347 349 351 348 343 341
326 326 325 329 333 337 339 350 361 356 355 358 358 357 353 354 350 348 346 346 344 343 342 343 344 346 346 347 348 347 347 347 350 348 352 354 354 352 355 352 353 353 351 351 349 348 345 343 342
325 326 326 326 330 332 340 346 354 355 355 356 357 358 355 354 352 349 347 346 345 343 343 345 345 348 347 346 345 346 346 347 348 348 351 353 353 354 353 353 353 353 352 352 350 352 346 343 340
325 326 326 327 328 332 333 346 350 355 355 354 356 357 355 353 354 351 349 347 346 344 344 347 348 348 348 344 344 345 348 349 349 350 352 353 353 354 356 355 353 354 352 351 351 350 351 345 341
326 325 326 325 327 331 333 339 350 352 357 354 355 356 356 355 352 352 351 349 348 346 345 347 349 349 349 346 343 346 348 348 348 349 348 350 353 353 355 355 355 354 352 352 352 350 349 351 341
325 325 325 324 325 328 333 336 342 351 355 356 354 354 355 355 352 352 352 350 349 347 346 346 350 351 349 348 344 347 349 346 347 347 350 350 352 353 352 354 355 353 353 354 354 355 353 345 348
325 324 325 325 325 326 326 332 337 346 353 352 353 352 354 355 354 351 350 351 350 349 348 346 351 353 351 350 345 349 348 348 345 347 350 350 351 353 353 353 355 356 354 356 354 354 354 355 347
325 327 328 329 327 326 325 325 333 337 342 348 351 352 352 353 355 353 352 351 351 350 350 349 351 355 353 353 349 350 352 349 351 350 349 348 347 347 351 354 355 355 355 356 355 356 354 354 352
327 327 330 333 330 328 326 326 326 331 336 340 346 350 351 352 354 354 353 351 352 352 352 352 354 357 356 354 352 349 350 347 349 351 348 347 345 346 352 356 354 355 355 355 356 356 355 354 353
327 328 327 328 331 330 328 327 327 327 330 336 342 348 351 352 351 354 353 351 351 352 354 354 356 358 358 355 354 356 352 346 346 348 350 351 348 347 348 351 355 355 354 354 355 354 355 354 356
325 327 329 328 332 334 332 331 328 327 327 332 340 345 347 351 352 352 352 352 351 351 352 354 355 359 360 357 356 356 356 353 347 350 355 351 351 349 351 351 352 354 353 353 355 353 353 357 355
324 327 329 329 328 331 333 331 331 330 328 329 334 341 344 347 350 351 351 351 352 351 351 353 355 358 359 358 358 356 355 355 351 352 354 354 354 354 353 353 354 352 352 353 355 355 354 356 356
319 323 326 332 332 329 331 332 332 331 330 329 331 333 336 340 346 349 350 351 351 352 352 352 353 354 358 358 358 357 357 355 354 349 353 355 357 357 356 356 354 354 350 353 355 356 353 355 355

GFSSGP_925_thetae_072.txt.gz
Theta_e
345 348 350 352 370 369 373 368 361 359 358 354 353 357 358 357 360 369 351 351 351 350 351 351 350 350 350 345 344 344 345 349 350 351 351 349 351 352 347 351 349 349 348 351 350 352 350 351 352
350 351 353 359 370 365 371 362 362 359 355 354 354 356 357 360 353 352 351 350 349 350 351 351 350 350 349 347 347 351 352 351 348 348 352 349 352 349 351 352 350 352 350 349 351 351 350 352 352
353 353 361 368 372 369 372 360 358 355 354 355 358 356 355 357 351 352 350 349 349 348 349 348 348 349 352 353 353 353 353 353 350 352 349 349 352 351 352 351 350 350 351 349 350 351 349 350 347
354 356 360 373 370 366 367 360 355 356 355 353 354 359 353 351 350 351 350 348 346 350 351 348 349 352 352 350 352 352 351 352 352 352 351 351 350 351 351 351 351 351 351 350 349 349 350 350 345
353 359 371 373 364 363 361 356 355 357 355 355 355 359 355 351 351 350 348 347 344 350 350 352 351 352 352 352 352 353 353 352 351 353 352 354 353 352 351 351 351 351 350 349 349 348 348 347 339
360 360 373 372 363 363 357 356 356 356 356 357 356 357 354 350 350 348 347 346 347 347 348 351 351 352 352 354 353 353 352 352 352 353 353 353 351 351 352 352 351 351 350 349 348 349 347 343 337
357 365 369 369 368 366 359 356 359 358 357 357 354 359 353 351 350 350 347 343 344 348 347 350 354 354 353 352 352 353 352 350 352 353 351 349 351 353 352 352 351 349 349 346 346 343 343 340 335
352 355 364 363 366 368 361 359 356 358 357 354 354 358 357 350 349 347 345 343 343 347 348 351 353 351 353 353 354 353 352 353 353 352 346 344 343 344 348 346 350 350 349 344 342 342 341 336 334
348 353 365 363 364 366 354 358 358 356 356 355 355 353 351 349 348 347 344 343 347 345 347 349 349 349 351 352 353 353 348 346 351 354 346 348 351 351 350 344 349 350 348 345 344 344 340 339 339
350 355 366 357 360 355 350 357 365 357 357 356 357 352 350 349 348 347 344 344 346 345 345 345 347 348 348 351 350 352 351 348 350 352 348 351 350 350 347 342 347 346 341 341 343 342 341 344 345
349 352 354 355 356 354 364 359 363 357 358 355 359 354 351 349 348 347 344 343 346 344 344 347 349 348 347 347 353 352 350 353 351 350 349 352 351 348 348 344 346 341 345 346 345 344 339 343 341
349 348 347 349 352 355 356 359 363 358 357 353 354 352 351 350 348 346 344 342 344 343 344 349 349 347 347 346 352 348 350 353 349 350 350 350 349 348 344 351 351 348 347 343 346 348 346 344 341
344 347 347 347 347 354 354 358 361 356 348 345 353 352 351 350 347 346 345 342 343 343 347 349 349 351 348 346 348 348 348 347 349 345 351 348 351 349 348 349 350 345 348 349 346 347 346 347 344
340 342 343 345 344 353 352 357 356 358 350 356 354 352 351 350 348 349 345 344 343 343 346 347 346 350 347 350 350 347 350 350 351 349 351 353 351 349 351 351 349 348 339 348 348 347 346 347 345
333 336 336 341 343 355 351 356 358 357 356 355 355 353 351 351 349 347 346 345 343 343 346 347 347 349 347 352 351 347 348 344 350 351 350 353 353 354 351 351 348 347 349 351 350 345 348 344 343
330 331 336 335 340 346 353 357 360 357 360 356 355 354 354 352 349 348 348 345 343 343 345 346 346 347 348 352 349 349 350 351 351 351 352 352 354 355 353 352 351 351 351 343 350 347 340 344 343
329 327 331 334 337 341 352 357 361 355 354 358 355 355 354 353 350 349 348 346 344 343 344 346 347 346 349 351 347 349 348 349 348 350 352 354 355 354 349 351 351 348 352 349 348 342 340 348 344
329 327 327 332 335 338 346 352 355 347 349 352 356 354 355 353 351 349 348 347 344 343 344 346 347 346 349 351 348 349 350 351 348 350 352 355 355 354 352 353 351 350 352 347 342 350 344 348 341
327 327 326 326 330 334 341 350 352 348 346 353 355 353 353 353 350 349 348 348 345 342 345 347 345 348 347 351 351 349 350 348 352 350 351 355 354 353 354 352 353 354 352 351 349 350 346 346 342
330 329 327 328 327 331 335 342 352 350 351 349 349 355 353 353 353 351 349 348 346 344 345 345 346 349 347 352 350 349 350 346 349 352 355 352 352 353 354 351 353 353 353 352 351 343 344 346 338
329 328 327 327 328 328 332 338 357 352 352 355 351 355 351 355 353 353 350 349 347 346 346 345 348 352 348 348 347 348 348 346 350 351 351 351 353 353 355 354 355 355 355 352 351 349 348 348 339
327 327 326 327 327 327 329 332 354 363 361 358 357 355 352 353 353 352 350 350 348 347 347 347 348 353 347 346 346 348 349 351 348 351 353 351 354 353 353 355 354 354 353 352 350 353 350 350 345
327 327 327 326 327 327 327 330 331 349 355 354 352 355 353 350 353 352 351 349 349 348 348 350 349 353 349 345 349 346 348 350 352 348 351 354 352 354 353 354 355 353 352 353 352 354 352 352 349
326 326 326 327 327 328 326 328 333 341 360 350 348 354 353 352 351 353 351 350 350 349 348 351 351 352 351 344 349 347 347 350 349 347 353 356 352 352 354 355 354 353 353 353 355 355 351 353 350
326 326 326 329 329 328 326 326 331 333 352 354 348 349 353 355 354 353 353 353 351 350 349 349 353 353 353 351 347 353 346 347 351 348 353 351 354 352 352 354 354 353 353 354 354 354 355 354 355
325 327 329 331 329 328 327 329 329 329 330 351 346 349 346 352 355 354 354 353 353 352 350 349 354 354 354 355 347 349 352 346 349 354 348 352 348 351 352 350 354 355 354 355 355 355 355 355 350
327 328 327 328 329 330 329 329 329 329 329 331 348 346 349 350 357 355 354 353 355 353 352 351 353 356 355 354 354 347 353 354 351 352 350 348 349 349 352 350 356 354 356 354 355 353 352 355 354
323 324 327 329 332 334 330 334 332 332 331 330 333 346 351 352 353 356 354 354 355 354 354 354 354 356 357 354 356 353 351 352 349 348 352 351 350 346 355 355 355 355 356 353 356 354 352 353 353
323 326 326 327 330 332 333 332 334 336 332 331 330 335 350 349 352 354 355 354 354 355 355 355 356 357 358 358 356 355 353 350 347 350 345 353 351 356 351 354 353 356 354 356 355 353 356 355 354
322 324 324 332 333 333 332 332 333 336 332 330 330 332 340 347 350 347 346 355 355 355 355 356 356 359 360 360 359 356 357 354 352 346 350 356 351 350 357 352 356 354 355 355 355 356 355 357 355

GFSSGP_925_thetae_075.txt.gz
Theta_e
340 345 346 350 368 365 364 359 357 359 358 353 353 357 359 358 360 363 349 349 350 348 339 347 350 351 345 343 343 343 344 346 349 351 348 349 351 351 351 351 348 350 351 350 349 351 352 351 350
344 349 351 358 368 364 364 363 365 358 355 353 355 356 357 359 352 351 350 350 349 345 347 349 347 349 345 344 344 345 350 350 348 346 351 349 349 350 352 350 351 349 349 352 350 349 351 351 345
349 352 359 362 365 365 370 364 362 356 356 357 357 353 356 357 352 351 351 350 350 349 350 347 348 347 347 343 344 348 349 350 352 348 347 351 351 352 351 350 351 351 345 350 351 350 350 344 341
353 354 357 363 363 361 364 362 357 357 356 355 354 357 352 351 350 350 350 349 350 350 348 347 349 352 352 352 352 352 351 351 351 349 349 351 353 351 351 351 351 350 350 350 350 349 349 336 341
354 357 367 357 359 358 355 357 357 357 357 358 356 358 356 350 349 349 349 349 349 348 345 349 349 351 352 352 352 352 352 352 350 350 351 346 352 352 351 352 351 350 350 349 349 348 340 333 336
360 359 369 366 361 360 359 356 355 357 357 357 357 357 355 350 349 347 348 350 349 343 347 351 351 351 349 353 352 352 352 351 349 351 351 352 351 351 351 351 351 350 349 349 348 345 339 335 337
358 360 367 367 364 365 365 358 356 358 357 356 353 358 353 350 348 348 348 349 347 347 350 350 352 353 353 352 353 352 352 351 350 350 351 347 351 352 352 352 351 350 349 348 345 341 337 334 338
356 354 360 364 366 368 362 357 357 358 357 352 351 358 356 350 349 347 347 347 349 347 347 350 353 348 349 351 353 352 351 348 349 346 345 346 349 349 350 349 349 350 349 348 343 341 343 337 339
351 357 359 365 365 359 349 357 355 357 355 353 353 352 350 349 348 344 346 347 348 347 351 351 349 350 350 351 353 350 351 346 348 346 346 348 349 349 350 347 350 349 348 343 341 342 339 338 339
349 354 358 359 358 360 352 355 356 362 358 356 353 351 350 349 349 343 347 347 347 350 350 350 347 352 349 351 346 345 345 346 344 345 347 349 350 347 341 344 343 344 344 343 343 339 340 342 342
344 351 353 353 356 356 359 348 349 359 358 356 355 352 349 349 346 344 346 345 347 349 350 347 348 349 351 344 344 344 344 349 349 348 348 350 349 345 341 340 342 345 342 345 344 337 338 334 342
344 345 347 348 353 356 357 360 363 356 359 353 352 349 349 347 345 344 345 344 346 348 346 348 347 347 350 347 349 349 352 352 349 349 350 349 346 346 347 348 346 344 342 343 342 341 342 338 344
341 342 344 345 351 354 359 363 353 358 355 352 351 349 349 347 345 343 345 344 345 345 347 347 348 348 348 350 351 353 351 351 350 350 350 349 349 346 346 349 347 346 339 339 334 343 344 343 344
338 340 340 342 343 351 361 361 352 352 352 353 352 350 348 347 344 343 343 344 346 350 348 348 348 348 348 349 351 347 349 352 348 348 348 349 349 349 349 348 346 346 345 344 345 344 343 344 343
335 331 330 334 336 343 354 363 362 358 356 355 353 350 348 347 345 344 342 342 344 349 346 351 350 347 348 352 350 350 350 350 351 351 348 346 351 350 352 348 346 347 344 345 347 346 344 343 345
328 326 329 330 333 337 351 368 363 354 358 355 353 351 350 347 345 345 343 342 341 349 348 347 351 351 347 350 351 348 347 344 349 351 351 350 354 349 350 350 349 347 347 345 347 344 345 343 346
330 325 325 328 329 334 345 368 359 347 352 357 354 351 350 349 347 345 343 342 341 347 346 346 346 351 348 349 348 349 350 349 351 351 352 354 353 349 350 351 350 349 349 347 347 342 345 343 344
332 326 324 324 326 330 337 365 360 354 354 349 355 349 351 350 349 346 344 342 341 347 346 347 345 345 348 350 346 348 350 349 350 350 352 353 353 351 349 349 347 350 349 347 346 340 344 346 343
328 329 326 324 324 326 336 362 363 358 355 358 352 348 353 351 349 348 345 343 342 347 345 346 345 350 348 350 343 348 351 349 350 353 354 352 354 352 351 348 351 352 349 347 349 349 348 343 341
327 328 328 327 326 321 328 356 356 348 348 348 349 351 352 351 349 348 346 343 344 345 346 344 347 349 351 349 344 348 351 348 349 350 350 354 352 352 352 351 351 352 351 351 349 346 345 344 342
326 326 327 327 327 324 324 354 352 349 348 349 354 353 349 351 350 348 347 344 344 344 346 345 347 347 351 350 347 347 350 345 353 351 354 351 353 353 353 352 354 354 352 349 349 342 344 347 339
324 325 327 327 325 323 324 325 355 350 351 352 354 353 350 343 348 349 347 345 343 345 344 347 346 347 348 350 348 349 351 347 349 352 354 353 351 352 351 350 352 352 353 351 347 346 350 352 346
324 325 325 325 323 322 324 323 328 352 355 351 353 347 346 343 348 348 347 347 344 345 344 346 348 348 345 350 345 347 348 349 350 353 351 347 352 352 352 354 350 351 352 351 349 352 353 352 351
326 325 324 322 322 323 322 324 325 359 354 353 353 345 350 346 346 349 347 348 346 346 345 344 350 350 346 345 347 345 346 348 351 349 353 352 352 352 354 354 351 350 352 354 352 354 351 350 348
323 322 323 323 323 325 322 323 323 327 353 356 354 344 342 343 347 350 347 347 347 347 347 345 349 352 348 344 348 346 345 346 351 351 352 353 351 352 354 355 353 352 350 352 352 354 352 352 350
325 320 323 326 325 324 323 324 324 324 342 349 349 343 343 349 348 350 348 347 348 347 348 348 348 351 351 346 344 348 345 344 347 354 354 354 353 351 349 355 353 350 349 354 350 353 351 353 350
321 323 321 322 323 325 325 325 325 325 325 347 345 344 345 349 351 351 349 348 348 348 347 350 349 349 352 349 345 347 348 343 345 347 354 349 350 352 351 350 354 351 353 350 354 353 351 353 354
318 322 322 321 325 327 326 326 327 328 325 333 347 345 349 350 350 351 347 349 348 349 348 348 351 350 352 352 348 345 350 345 342 344 351 352 351 350 352 351 352 353 353 353 354 354 353 351 353
316 319 320 319 322 325 326 326 325 328 330 329 331 343 347 347 346 347 346 349 350 349 349 348 353 352 353 352 352 346 346 352 349 348 348 351 349 350 349 354 351 355 353 354 355 355 353 353 351
315 315 318 321 323 325 327 329 328 327 333 334 326 345 347 342 342 342 347 348 349 351 351 350 352 354 353 352 354 353 346 348 351 352 346 350 350 350 357 354 352 354 355 355 355 354 353 355 354

GFSSGP_925_thetae_078.txt.gz
Theta_e
345 339 345 350 364 366 364 361 357 361 356 352 349 353 355 356 359 359 346 348 337 339 344 346 345 347 349 345 342 345 350 350 351 348 350 351 349 348 350 348 351 349 350 351 351 351 351 352 352
342 346 350 358 366 364 364 359 361 359 355 353 355 356 357 359 351 347 348 346 337 339 345 347 345 348 350 345 348 350 351 351 346 350 349 350 350 351 351 349 348 351 350 351 349 351 351 350 346
346 350 357 363 360 363 366 363 362 356 355 355 356 353 355 356 348 348 349 344 339 339 346 347 347 348 348 348 350 350 350 348 350 350 350 351 350 350 351 350 350 349 350 350 351 351 350 346 344
351 353 357 358 364 359 362 362 360 358 356 353 354 357 352 350 350 349 349 346 342 345 347 346 348 351 349 344 346 350 351 352 348 351 351 352 351 350 351 350 350 351 350 349 348 350 349 345 345
353 356 359 359 358 356 357 355 356 359 358 356 354 358 355 349 350 350 349 347 345 348 347 346 347 351 352 352 351 352 351 351 351 351 351 350 351 351 352 351 350 349 349 349 349 349 347 343 344
356 357 362 367 359 359 357 353 358 358 357 356 356 356 353 349 350 349 349 348 347 346 348 350 350 351 352 352 349 351 352 352 352 352 351 351 351 351 351 351 351 350 350 349 348 345 337 340 346
358 359 365 363 359 367 356 351 361 359 357 356 353 358 350 348 348 349 350 348 344 345 348 350 351 353 352 352 352 352 352 352 352 351 351 351 350 347 349 352 351 350 349 349 346 341 338 341 344
355 357 360 361 364 364 355 359 358 358 357 351 351 357 354 347 348 350 349 346 341 347 349 350 350 353 349 351 352 353 352 352 350 352 346 347 350 352 351 346 350 350 349 348 342 340 339 341 343
351 363 361 361 365 360 355 358 353 355 356 353 352 352 349 347 349 348 348 349 350 349 349 350 350 349 349 349 353 352 352 352 351 347 345 346 350 349 346 344 350 350 349 347 341 340 339 341 342
355 359 359 356 356 359 351 355 359 361 357 355 354 350 348 347 347 347 348 348 348 350 350 350 346 347 349 351 351 349 348 345 344 346 350 349 349 347 346 348 350 350 343 338 340 342 342 341 342
341 351 350 356 354 356 352 353 356 359 360 357 354 351 348 347 346 347 347 347 347 350 348 347 347 346 345 346 345 344 343 343 345 346 348 348 348 343 343 346 348 349 344 339 339 335 336 337 343
340 341 343 346 356 354 350 352 355 356 357 353 349 348 348 346 347 347 347 346 349 350 348 343 346 347 345 343 342 344 346 346 348 348 348 348 346 343 343 343 343 342 343 342 340 340 337 342 337
337 338 339 341 349 355 354 355 354 355 355 353 350 349 349 348 346 346 346 346 348 350 348 346 345 349 347 343 346 348 349 348 349 350 347 347 346 345 347 342 345 341 337 338 338 341 342 342 342
336 336 337 337 355 356 361 358 347 350 354 354 351 349 349 345 346 345 344 346 348 348 347 347 347 350 348 347 348 350 350 349 350 351 348 348 348 345 347 347 345 346 337 340 337 342 342 343 344
335 333 327 328 352 362 357 356 352 354 353 354 352 350 349 344 344 344 343 344 345 345 346 347 346 349 349 349 351 351 350 350 350 349 345 350 348 349 348 346 345 342 344 344 343 341 343 343 344
331 324 325 325 328 359 354 365 358 357 353 355 353 350 349 346 343 344 342 345 348 347 347 347 348 349 351 349 350 348 350 350 348 350 347 346 349 350 348 347 346 343 344 340 343 343 343 343 344
325 331 328 324 324 347 353 364 358 353 357 355 353 352 349 347 344 342 342 347 348 347 347 348 348 347 350 351 349 350 348 350 349 350 348 348 349 350 349 348 347 345 344 344 344 345 343 343 344
331 331 324 323 323 325 361 364 358 351 357 358 355 352 351 348 345 342 342 347 347 347 349 349 348 347 347 350 350 350 345 349 351 351 351 353 350 346 350 349 346 347 347 345 347 342 346 343 343
326 327 326 327 326 322 337 362 356 351 354 355 353 351 349 350 347 343 342 345 347 347 348 349 349 347 348 348 348 349 349 349 352 351 353 351 351 350 349 347 349 350 349 345 346 340 345 346 343
327 327 325 324 326 324 355 364 358 352 347 352 346 352 350 349 348 345 342 342 347 346 345 345 347 344 347 345 345 349 350 349 349 350 353 351 351 351 350 347 349 348 348 347 348 343 345 345 342
327 325 325 325 326 324 357 364 363 356 350 347 348 349 349 349 349 346 342 341 347 346 346 345 345 343 343 344 343 348 350 349 351 353 353 353 352 351 351 349 350 351 350 351 349 344 345 343 340
327 325 325 326 323 322 322 332 360 358 355 354 350 351 350 351 348 346 343 341 346 346 345 346 345 347 346 343 345 347 349 347 350 350 349 353 353 352 351 351 352 352 352 348 347 347 349 350 340
326 325 323 324 321 320 321 320 326 351 351 350 351 355 350 350 349 348 344 342 343 345 345 346 346 347 347 345 346 345 348 349 345 351 351 351 353 351 351 348 350 351 352 351 349 351 350 350 350
324 323 320 318 318 320 320 321 330 354 352 351 350 353 351 348 345 343 346 343 343 344 346 346 347 347 348 347 347 343 347 349 347 350 352 353 353 352 352 352 350 349 351 349 348 349 351 350 350
321 317 319 322 321 320 319 320 320 347 346 349 350 352 348 348 346 345 344 344 342 343 345 348 347 347 348 348 347 343 346 347 349 350 352 351 351 353 354 353 352 348 351 352 352 351 352 349 350
316 317 319 324 323 321 320 322 322 326 336 345 346 347 343 340 344 344 345 346 343 344 343 348 349 347 347 348 348 343 344 346 347 350 352 351 349 349 352 354 353 351 348 351 350 352 352 350 350
315 319 317 319 318 321 322 322 323 323 323 345 347 341 340 340 344 344 346 347 344 344 343 343 349 348 347 346 346 345 343 345 345 348 353 351 350 350 350 351 354 352 349 350 352 350 351 350 349
312 313 317 315 324 324 323 324 323 325 332 335 351 348 341 340 345 347 348 347 346 345 344 343 345 348 347 347 345 344 344 344 344 345 350 354 351 349 350 350 352 352 349 349 350 351 351 350 352
313 312 311 313 317 321 322 322 321 327 329 331 331 334 346 341 346 349 349 347 347 346 346 345 344 346 349 348 346 345 344 346 345 344 345 351 353 350 351 351 349 352 351 351 352 351 352 352 351
314 312 311 313 316 319 320 323 328 328 326 328 331 332 335 344 345 349 350 348 347 347 346 347 347 345 348 349 348 346 344 344 346 345 343 345 353 352 349 349 351 351 351 352 352 353 353 353 353

GFSSGP_925_thetae_081.txt.gz
Theta_e
349 346 342 348 362 367 364 360 357 361 357 350 347 349 351 353 356 357 343 340 337 342 344 346 349 350 350 350 346 345 350 350 347 348 350 344 350 350 348 350 348 348 350 351 351 351 352 351 351
347 344 349 357 367 363 363 358 361 358 354 348 351 355 356 359 349 344 345 342 336 342 343 345 347 350 350 350 348 351 351 350 350 350 348 351 348 350 347 350 350 350 348 350 350 351 350 349 347
345 349 354 362 360 365 366 360 360 358 351 354 357 353 355 355 345 344 346 339 340 342 343 346 346 350 351 350 351 351 351 349 349 350 349 348 351 350 351 350 351 350 350 350 351 350 348 349 346
348 352 350 358 363 360 361 360 359 358 356 354 354 358 351 347 345 348 345 337 340 344 345 349 350 350 350 351 351 349 349 351 350 350 351 351 349 350 351 350 350 350 350 349 350 349 345 345 345
351 355 357 360 360 358 358 358 358 359 358 356 354 357 354 349 349 347 343 338 340 346 348 349 350 352 351 350 351 351 350 350 350 351 351 350 352 351 349 349 349 350 348 349 349 347 344 344 346
355 356 364 366 361 359 359 353 354 359 357 355 355 355 353 349 348 347 344 340 341 346 348 349 350 350 351 351 351 351 351 351 349 350 351 352 350 350 351 351 350 349 348 348 348 343 342 345 346
359 356 365 362 361 363 359 351 360 359 357 357 352 356 352 349 348 348 346 343 346 346 347 349 351 352 352 351 351 352 352 351 351 352 351 350 351 350 351 351 350 351 349 348 347 339 342 345 345
355 358 360 362 365 361 356 359 358 359 360 351 349 356 355 348 348 349 347 347 346 348 349 350 352 351 348 352 352 352 350 351 350 351 350 346 349 351 352 348 350 349 349 349 347 338 342 344 345
352 362 363 361 363 362 359 360 356 353 356 352 352 350 348 348 349 348 348 349 348 349 349 350 351 348 349 351 352 352 351 351 350 348 347 351 350 349 348 349 350 350 349 349 348 344 341 343 344
353 361 361 356 356 356 357 358 355 352 355 356 352 347 347 349 348 347 348 348 350 350 350 349 351 348 349 349 351 350 351 349 345 346 347 349 348 347 345 349 351 350 350 350 344 339 341 342 343
346 356 352 353 355 352 354 357 351 353 358 356 353 349 348 348 347 347 347 346 349 349 349 349 348 345 348 348 352 349 348 342 345 349 349 348 345 345 348 349 348 349 347 342 340 339 338 341 342
339 340 345 345 354 350 354 356 355 353 358 353 350 347 348 348 347 347 346 346 347 348 348 346 343 347 347 347 346 346 343 342 345 347 348 347 343 342 343 341 341 343 343 341 338 336 341 341 343
336 338 338 337 352 349 352 355 355 355 353 353 350 347 347 346 347 346 346 344 347 349 348 346 344 346 346 345 344 345 344 346 347 348 347 346 343 343 343 343 340 342 342 339 339 340 341 339 341
334 335 336 334 337 350 354 352 350 350 354 354 350 349 346 346 346 346 345 345 348 348 346 343 346 346 347 342 342 345 346 347 348 348 348 346 345 345 346 343 344 342 336 339 339 341 342 342 343
333 336 331 343 355 358 351 356 353 354 353 354 351 349 347 344 346 345 345 345 346 346 345 343 345 346 344 343 347 348 348 348 349 350 348 348 347 344 347 346 345 345 339 340 340 342 343 343 342
329 323 325 337 358 359 352 362 354 355 355 355 352 349 349 345 346 345 345 345 347 345 345 345 346 348 347 346 348 349 350 349 350 350 347 349 348 348 345 345 345 342 343 343 341 341 342 342 343
324 331 330 327 355 361 354 360 358 355 355 356 352 350 350 345 345 344 343 345 347 345 345 345 346 348 348 348 349 350 349 350 351 349 346 348 349 347 345 346 344 343 341 341 343 343 342 343 344
331 331 327 325 333 340 361 359 358 355 357 356 352 350 350 345 344 343 342 344 345 345 345 345 346 347 349 349 349 349 348 350 349 350 348 347 349 349 348 346 344 345 344 343 343 343 343 342 343
327 326 326 325 325 325 346 360 356 355 357 356 353 351 350 347 341 343 342 346 346 346 346 346 347 348 351 349 348 349 348 348 350 350 350 351 350 347 349 346 344 347 346 345 346 343 345 346 343
327 327 326 324 323 321 352 360 356 352 356 355 353 352 350 347 343 342 341 346 345 347 347 347 348 348 350 349 349 349 349 348 349 350 351 350 350 349 349 346 348 348 347 345 346 342 346 344 342
326 325 326 326 324 344 356 361 358 354 350 345 348 347 349 348 346 341 341 347 346 346 346 347 347 346 347 349 347 348 350 348 349 350 350 350 350 349 350 346 349 348 346 346 348 344 345 342 341
328 324 326 325 321 322 327 323 357 356 355 352 347 349 347 349 347 341 340 346 346 346 346 347 348 347 346 346 345 346 350 349 349 350 350 352 351 351 350 347 347 349 349 349 347 343 344 343 340
326 325 324 323 320 319 320 322 328 357 359 354 350 350 347 347 347 344 340 344 345 345 345 346 347 347 344 343 343 344 348 349 348 350 351 350 351 351 351 350 350 348 351 348 346 345 347 347 343
324 323 317 314 316 320 319 319 320 355 358 353 349 348 348 348 347 346 343 340 345 345 345 345 345 345 344 344 342 343 346 348 348 347 350 349 351 352 352 352 348 350 351 349 347 348 347 349 348
315 316 318 321 320 321 316 319 320 335 347 351 349 348 346 349 347 348 343 341 342 345 344 345 345 346 345 345 343 343 342 346 348 347 348 350 351 351 352 351 351 350 350 350 348 349 350 350 349
314 315 318 323 321 320 316 321 321 320 331 343 345 345 345 349 347 347 344 342 340 344 344 346 345 346 347 346 344 343 342 344 346 348 348 350 351 351 351 352 352 349 347 350 350 350 347 350 348
314 313 316 316 316 319 319 320 322 328 331 339 342 343 345 348 348 347 345 343 341 342 344 345 346 345 347 347 345 344 343 341 344 346 348 349 350 350 349 351 352 352 350 348 351 350 350 350 350
312 312 315 313 322 324 320 322 321 329 330 329 330 341 343 340 341 342 345 345 342 342 343 345 346 345 345 346 347 345 344 343 341 345 346 350 351 351 349 350 351 353 352 349 350 351 349 350 348
311 312 310 309 314 319 321 321 323 328 328 328 328 332 334 331 339 339 342 345 344 342 342 343 346 346 345 345 346 346 345 344 341 342 345 345 352 352 351 350 350 351 353 351 348 349 351 351 349
311 312 309 313 315 313 316 320 322 322 324 328 332 340 344 340 334 338 341 344 346 343 343 342 343 346 345 345 345 345 345 345 342 339 341 344 344 349 353 350 350 349 350 352 350 350 350 351 351

GFSSGP_925_thetae_084.txt.gz
Theta_e
349 343 343 348 360 365 364 361 358 360 355 349 345 346 347 348 352 353 342 341 338 341 345 346 348 350 349 347 349 350 348 343 348 349 346 348 349 348 345 343 346 351 350 351 351 351 351 351 352
347 344 348 353 367 363 364 359 363 359 352 346 352 351 355 357 348 342 343 341 337 340 345 346 347 349 350 348 349 350 350 345 347 347 344 347 350 347 350 349 349 350 351 351 350 351 351 350 350
343 349 354 359 360 366 366 362 362 355 348 351 356 353 354 352 343 341 343 340 339 342 342 346 347 349 350 349 349 349 350 346 348 348 349 350 348 349 347 347 350 348 349 351 350 350 350 350 349
347 350 349 359 364 361 360 359 359 357 355 354 354 358 348 344 341 345 341 338 340 342 341 348 350 351 351 350 348 351 350 347 349 347 346 350 349 345 350 350 349 350 349 350 350 349 350 350 347
349 351 357 361 362 360 358 357 353 358 358 356 354 355 350 347 348 343 341 340 339 342 343 349 350 351 351 351 349 346 349 348 350 349 350 350 350 350 350 347 349 348 348 349 348 349 345 345 346
355 354 363 364 362 360 355 353 353 357 357 355 354 353 353 347 345 342 341 341 340 343 347 348 350 351 350 350 351 350 349 350 350 349 351 346 347 347 347 349 349 348 348 348 348 345 345 346 345
359 355 364 361 363 361 356 351 355 359 357 356 352 356 352 347 345 343 341 342 344 346 347 349 349 350 352 348 348 350 350 349 348 350 349 350 350 348 346 349 349 349 347 347 346 344 345 345 345
354 356 361 361 363 359 356 353 357 358 357 350 349 355 355 347 347 343 341 344 346 346 346 348 352 351 352 351 351 351 351 350 350 347 345 346 349 346 348 346 349 349 348 347 346 343 344 344 344
351 361 363 361 361 361 359 361 357 353 354 353 351 349 348 348 347 347 348 349 349 347 346 351 352 351 349 350 351 351 349 349 349 350 346 347 348 347 347 347 347 349 348 346 346 343 343 344 344
352 361 360 355 356 357 357 358 356 354 354 353 352 348 348 348 347 347 347 346 348 351 349 349 351 348 349 349 351 349 350 349 350 347 348 347 347 344 346 348 348 349 349 349 339 341 342 343 343
351 359 354 354 354 352 357 357 351 354 353 355 353 350 349 347 346 346 346 346 347 349 348 348 348 347 348 349 350 348 349 348 346 347 347 345 345 343 344 347 348 349 344 341 339 340 341 342 343
341 344 349 352 353 352 357 351 353 352 358 350 348 349 348 347 346 346 345 346 347 349 348 346 348 346 348 348 348 347 346 344 347 348 348 343 342 343 342 345 345 345 341 338 338 335 339 341 342
338 339 337 339 352 349 353 355 355 354 354 349 348 349 348 347 346 346 344 345 346 348 348 345 344 344 346 346 344 345 344 343 346 347 347 344 339 339 341 343 343 342 342 340 337 339 339 341 342
334 335 334 333 345 350 355 354 351 352 354 352 349 349 348 346 346 345 344 344 346 346 346 344 340 345 345 345 343 343 344 345 346 347 347 345 343 344 344 343 343 342 340 339 341 341 341 340 342
332 335 328 351 347 352 351 354 353 354 357 356 351 348 347 346 346 345 344 343 343 343 345 345 341 344 344 342 343 344 344 346 348 348 347 346 346 345 344 344 344 343 337 338 337 342 342 343 342
326 323 325 351 357 353 350 359 354 356 357 356 351 349 348 346 346 345 344 342 342 344 345 343 344 343 343 341 341 344 346 347 347 348 347 347 346 345 344 346 345 344 342 340 341 342 342 342 341
324 331 329 328 354 357 352 355 353 355 357 355 352 349 347 346 345 345 345 343 341 343 344 341 344 342 342 343 346 348 348 348 347 348 348 347 347 346 345 345 343 342 342 343 342 342 342 342 343
331 329 326 330 355 358 359 357 353 355 356 355 352 350 348 345 345 345 345 344 342 343 342 341 343 344 344 345 346 348 349 349 349 349 348 347 348 347 346 345 343 342 341 341 343 343 342 342 343
327 326 326 325 324 325 328 349 353 355 355 355 353 350 349 346 344 344 344 344 344 345 343 344 344 346 347 348 348 348 349 347 349 349 349 347 349 348 346 346 344 345 344 343 343 342 343 344 342
326 327 326 326 324 322 332 343 354 354 355 354 354 351 349 348 344 343 342 344 344 345 344 345 344 346 347 348 348 348 348 347 347 349 349 350 350 348 347 348 344 346 346 344 344 342 343 345 342
326 325 326 327 324 345 351 340 357 353 350 348 352 350 348 348 343 343 341 343 344 344 345 345 345 345 347 350 348 348 348 347 348 350 349 351 349 349 348 348 346 347 347 345 343 342 345 343 341
329 324 326 326 321 321 325 320 343 354 353 351 347 348 346 347 342 341 341 343 345 345 345 345 345 345 347 349 347 348 349 346 347 349 348 349 349 350 349 349 346 347 346 345 347 345 344 341 341
326 324 324 324 320 319 320 318 320 351 355 353 351 347 346 344 345 341 341 344 345 345 345 345 346 346 347 350 348 348 348 348 347 348 349 349 350 351 351 349 346 346 349 348 348 343 345 346 345
323 318 314 313 314 319 319 318 318 354 354 353 350 350 347 345 345 344 340 343 345 345 345 345 346 346 347 347 348 347 346 348 348 348 349 350 350 350 351 350 349 348 347 348 347 344 347 346 346
315 315 317 320 319 321 314 318 319 320 325 348 349 348 347 345 344 346 341 340 345 345 345 345 346 346 346 346 346 346 344 347 347 347 348 349 349 349 349 351 351 348 348 349 347 345 346 348 347
314 315 317 323 320 320 315 320 328 326 328 333 344 344 344 345 345 345 345 340 343 344 344 344 344 346 347 346 344 344 344 344 347 347 346 345 349 349 348 349 350 351 349 350 348 347 347 348 349
314 313 313 314 314 317 317 320 319 326 328 328 330 340 342 343 345 345 346 344 339 344 344 344 344 345 346 345 344 343 344 343 345 346 346 346 346 349 350 350 350 351 350 348 350 349 347 346 347
310 310 315 313 321 323 319 320 323 326 326 327 331 331 332 334 344 346 345 345 342 341 344 343 344 344 345 345 344 344 344 343 342 344 346 346 346 348 349 350 350 351 352 351 348 350 349 349 349
311 311 309 309 312 319 321 326 316 316 321 325 328 335 338 341 337 340 345 345 343 340 343 343 344 344 344 345 345 345 344 343 343 342 343 345 346 347 349 350 350 350 352 352 352 348 349 349 350
309 310 308 312 315 311 315 323 313 312 316 323 325 328 338 342 342 334 338 344 344 341 341 343 344 344 344 344 345 345 344 344 344 342 340 341 345 345 348 351 351 350 350 351 352 351 347 347 349

GFSSGP_925_thetae_087.txt.gz
Theta_e
348 345 344 349 361 363 365 363 358 359 355 348 345 345 345 345 352 359 342 341 341 344 346 347 349 351 345 348 345 346 343 343 349 348 346 347 341 339 343 350 349 347 351 352 352 352 352 353 352
347 344 349 356 365 366 366 360 364 359 352 346 347 345 352 353 349 344 341 342 342 345 347 348 347 349 347 348 348 349 349 348 348 344 348 349 345 349 348 347 346 348 350 350 351 352 352 351 352
344 349 356 360 360 366 366 362 363 355 348 349 356 352 355 353 344 341 342 342 345 347 348 350 346 348 349 348 348 348 348 345 345 343 348 349 349 348 349 350 346 349 348 350 351 351 351 349 345
348 351 350 361 364 361 361 361 356 352 355 355 355 357 348 345 342 344 342 343 345 347 348 349 349 351 351 347 348 348 345 345 350 346 345 349 344 348 348 347 350 350 349 350 350 351 351 349 350
349 353 359 362 360 359 359 357 354 359 357 357 355 355 350 347 346 342 343 343 344 346 348 350 349 351 351 349 350 350 345 348 347 346 349 350 349 347 348 346 347 348 349 349 350 349 346 346 346
357 355 366 364 362 359 356 352 353 359 357 354 353 354 353 347 343 342 343 343 345 346 349 350 350 350 351 351 347 349 347 349 346 348 349 346 346 350 350 349 349 349 349 349 348 345 346 345 344
360 361 365 362 362 358 356 351 358 359 358 357 351 357 351 346 342 343 343 344 345 347 350 351 350 352 346 351 349 348 349 347 349 349 347 345 345 346 347 348 348 347 348 348 346 345 345 344 344
356 358 362 360 359 359 356 354 358 358 358 350 350 356 353 346 341 343 345 345 347 349 350 352 350 352 352 352 350 349 351 350 349 347 348 349 345 348 344 345 349 348 348 347 346 345 344 344 344
351 362 363 360 360 359 355 359 357 352 355 353 351 349 346 344 343 344 346 347 349 349 350 349 351 353 353 353 352 351 349 347 348 350 348 348 350 349 348 348 349 348 348 346 345 344 344 344 343
355 363 359 356 355 357 358 360 357 358 357 356 354 349 347 344 343 344 346 348 348 349 349 352 352 352 352 351 352 352 352 351 351 349 349 349 349 349 348 349 350 350 348 348 343 342 343 345 348
354 360 356 354 354 355 359 358 350 356 357 356 355 351 347 343 342 343 345 346 347 348 349 351 352 351 352 353 352 351 348 346 350 348 348 346 347 349 345 346 347 349 347 345 343 343 345 344 346
349 348 351 350 353 354 358 353 353 353 358 353 351 348 345 344 343 344 345 346 347 347 349 351 351 351 352 352 351 351 351 349 350 351 347 345 347 345 345 349 350 345 343 340 338 342 340 342 344
347 343 341 342 350 352 354 354 354 357 353 351 350 347 347 345 344 345 346 346 347 346 349 350 351 351 351 351 351 350 350 348 350 349 346 345 346 346 347 347 347 343 339 339 337 340 342 342 346
338 340 340 336 340 349 355 355 355 353 351 352 351 350 349 348 347 346 346 346 345 346 348 349 350 349 348 350 347 350 350 348 349 349 346 343 343 346 346 343 345 343 340 339 339 342 343 343 345
336 336 333 352 340 352 352 357 355 354 352 354 353 352 350 348 346 346 344 343 343 346 348 349 348 348 347 347 345 348 349 349 350 350 346 345 344 345 344 344 346 342 337 339 339 341 343 346 346
333 329 334 355 350 353 352 360 353 355 355 355 353 350 348 348 346 345 344 343 343 344 347 348 345 347 348 345 344 348 349 349 348 349 346 347 346 346 343 344 347 345 339 338 343 345 346 346 346
331 342 331 353 355 356 356 357 357 356 358 356 353 350 349 349 348 347 347 344 342 344 346 347 347 347 347 344 345 346 345 347 347 347 347 347 347 346 344 346 346 343 342 344 346 346 345 346 346
338 335 330 341 357 357 357 357 356 357 358 358 355 352 349 349 349 348 348 346 343 343 346 346 346 348 343 348 345 349 350 350 349 348 349 346 347 346 344 345 343 342 346 347 347 346 345 346 346
331 333 333 333 340 335 333 335 349 355 358 358 356 353 351 350 347 348 348 347 345 344 346 346 345 347 348 348 348 349 350 350 350 350 348 347 346 346 347 346 344 343 344 347 344 345 347 347 343
331 333 333 329 327 327 330 344 356 357 357 358 356 354 352 350 349 348 348 347 346 345 344 346 346 346 347 349 350 351 351 350 351 350 348 349 347 347 348 346 345 345 347 344 343 343 347 348 344
333 334 331 331 328 348 340 347 358 356 355 356 354 353 351 351 350 349 347 347 347 346 345 345 347 346 346 349 349 349 349 349 349 351 350 350 350 349 347 347 345 347 348 347 345 343 348 347 345
336 329 329 329 330 330 330 333 340 357 359 357 357 355 352 351 350 349 347 347 347 347 346 346 347 348 347 346 349 351 350 350 350 352 352 350 349 350 349 348 345 347 349 347 347 345 345 344 346
334 328 330 330 329 326 325 328 328 353 356 359 358 357 354 351 350 349 348 346 346 347 346 347 348 348 348 347 348 351 351 351 350 352 351 350 349 350 350 349 347 346 349 346 347 346 344 349 347
326 324 322 322 325 329 327 327 328 341 341 337 350 356 354 351 350 348 346 346 346 347 347 347 348 348 347 346 347 349 351 351 351 351 352 353 354 353 351 350 347 345 348 349 348 345 345 348 348
326 328 328 328 329 330 322 326 337 335 335 339 337 349 353 351 350 350 347 345 346 347 347 347 348 349 348 348 349 349 350 349 348 351 351 352 353 354 352 351 350 350 346 347 347 346 347 348 350
328 328 327 330 329 328 322 330 336 332 334 339 342 347 348 351 351 350 348 345 345 347 347 347 347 348 349 348 348 349 349 350 349 350 350 351 352 353 352 348 350 350 348 346 348 350 352 351 351
319 323 320 324 321 327 326 326 328 328 333 337 338 342 343 346 348 350 348 347 345 346 347 348 348 348 349 349 347 348 348 347 348 349 347 349 348 352 350 348 348 350 350 349 348 351 348 348 351
318 316 323 324 329 328 326 331 329 327 329 335 339 342 346 345 346 344 347 347 345 346 347 348 348 348 348 349 349 349 348 346 345 347 347 348 346 346 352 350 350 349 350 350 349 351 350 348 352
318 319 317 322 323 328 328 330 319 324 328 337 339 338 343 348 348 347 344 346 346 345 346 347 347 348 348 349 349 348 348 347 344 346 344 347 346 345 346 349 350 350 349 351 352 351 354 351 349
314 316 317 326 327 322 327 327 321 326 330 333 333 334 337 344 348 347 340 340 347 347 344 346 347 347 347 347 348 349 348 347 347 345 344 345 346 346 346 347 349 352 353 351 352 355 353 353 354

GFSSGP_925_thetae_093.txt.gz
Theta_e
343 343 347 346 365 371 371 368 359 359 356 351 345 344 349 358 360 359 345 343 346 346 346 348 349 351 352 351 349 350 351 351 350 350 349 347 345 349 352 353 351 354 354 354 354 353 352 353 352
348 344 347 361 372 375 372 365 363 357 353 349 347 345 352 358 349 345 343 344 346 345 344 347 348 351 351 351 351 351 352 350 350 351 349 352 351 349 351 353 353 353 353 353 353 353 353 352 353
352 344 360 367 367 372 373 363 360 354 350 349 350 351 357 354 345 345 343 344 345 344 344 348 350 352 351 352 352 351 351 351 352 352 351 349 352 351 351 351 352 352 353 353 352 351 351 353 351
344 353 359 367 368 366 365 361 358 353 354 351 353 359 352 347 344 344 344 344 345 345 347 346 351 352 353 352 352 351 352 351 348 351 351 351 352 351 350 351 352 353 352 353 351 346 349 351 351
352 360 368 367 361 361 360 359 352 355 357 355 353 358 354 344 343 343 344 345 346 347 348 347 351 352 353 353 352 351 351 351 351 351 351 351 351 350 350 351 351 351 352 351 350 350 351 351 350
361 363 369 366 364 360 360 357 359 355 358 355 357 357 354 346 342 344 345 345 345 347 346 348 349 352 353 352 352 351 351 351 351 349 350 351 350 350 350 351 351 350 351 351 349 349 345 347 346
364 366 366 363 364 361 359 356 361 360 357 355 355 360 352 345 342 343 345 345 345 346 348 349 350 351 352 352 352 352 352 351 349 350 349 349 352 351 350 350 350 350 351 350 351 347 346 343 347
361 364 362 360 364 361 356 359 358 360 360 354 354 358 351 344 342 343 344 344 344 347 347 348 349 351 349 351 351 352 351 350 350 351 349 349 346 346 346 345 350 350 349 350 349 343 342 346 340
355 366 367 359 362 359 357 361 357 356 358 355 354 351 344 342 343 344 343 344 346 345 348 348 347 349 350 351 350 349 350 346 345 346 347 349 348 349 348 343 350 350 349 350 345 342 342 340 337
357 366 360 356 356 359 358 358 357 360 358 358 354 347 343 343 344 344 343 344 344 346 347 346 350 348 351 350 352 350 350 351 350 347 351 349 348 347 345 344 349 350 347 341 342 346 347 350 345
355 362 355 353 355 356 357 359 353 361 363 357 353 348 345 344 344 344 343 344 345 346 345 350 350 351 350 348 348 349 347 348 349 348 348 346 345 346 346 347 346 346 347 345 346 349 348 347 342
356 358 352 350 349 355 359 357 358 358 360 355 351 347 345 345 345 344 344 344 345 346 347 350 349 348 351 347 349 347 347 346 345 347 347 348 347 346 345 347 343 344 347 346 348 348 347 345 343
351 353 349 347 349 353 357 356 357 359 356 355 351 346 345 344 343 343 343 344 345 346 346 348 349 351 348 349 348 349 347 348 346 347 346 347 346 346 345 345 344 344 346 346 347 347 348 347 344
339 351 348 346 345 353 355 355 357 357 357 356 351 346 345 344 342 343 344 345 346 346 346 347 350 352 351 351 350 350 350 348 348 347 347 347 345 347 345 345 346 345 346 346 349 350 348 347 343
341 352 349 344 343 350 355 358 361 357 356 355 350 347 345 343 341 343 344 345 346 345 346 347 348 349 351 350 350 351 350 347 349 351 351 352 350 349 348 348 347 345 349 349 349 349 349 343 343
342 349 350 348 343 349 357 363 360 357 357 355 350 347 345 343 342 342 344 345 345 344 347 347 346 349 349 349 349 348 349 350 350 351 350 351 352 352 352 348 350 348 347 346 347 347 346 345 344
340 351 349 350 347 350 359 365 360 357 357 354 351 347 347 345 343 343 343 344 343 344 347 347 346 348 348 350 350 348 351 351 351 351 352 351 351 351 351 349 352 351 345 346 347 347 345 344 342
341 350 348 351 350 350 363 365 361 358 359 357 352 349 348 347 346 342 342 342 341 344 347 347 347 349 349 351 350 348 348 351 351 350 353 351 352 351 351 351 352 352 345 346 349 347 347 345 344
336 345 349 346 348 349 354 359 364 360 358 360 357 352 351 351 346 341 340 340 341 343 347 347 347 350 350 350 347 348 350 352 352 351 355 353 352 352 353 351 351 352 347 350 350 347 350 347 344
335 341 346 345 347 346 352 357 356 360 361 357 359 357 353 350 345 343 342 341 341 342 345 347 348 352 351 349 347 347 350 350 351 352 353 353 352 353 353 351 350 350 350 352 350 350 348 345 346
337 340 343 346 340 340 340 348 352 351 354 360 358 356 352 348 345 347 345 344 343 343 344 347 349 352 353 350 352 352 353 353 352 353 353 354 354 353 354 355 352 352 351 350 351 351 350 348 345
336 336 340 339 340 345 340 347 352 351 353 356 358 358 353 350 346 348 347 347 346 344 343 345 349 351 354 353 352 352 351 350 351 352 353 353 354 353 352 354 355 353 350 352 350 349 350 347 345
332 332 338 337 337 340 340 341 346 352 353 356 356 357 355 352 350 349 348 348 347 345 341 344 349 351 352 354 356 353 354 350 351 351 354 355 355 356 353 353 354 354 354 349 350 354 353 343 347
335 333 336 337 337 337 337 339 347 348 351 349 352 355 355 352 352 349 348 349 348 346 345 343 350 352 353 355 355 356 353 352 352 353 354 353 353 354 353 354 354 354 354 352 352 352 353 353 350
336 336 336 335 337 337 334 334 348 345 344 344 342 353 353 354 353 351 351 350 349 347 346 348 349 353 354 355 356 356 356 353 353 355 353 352 352 354 354 355 354 353 354 353 352 354 354 352 349
335 335 335 335 333 333 332 340 346 344 345 346 347 349 351 352 354 353 351 351 350 349 349 348 353 355 356 355 355 357 357 355 351 351 349 351 350 352 356 355 355 355 354 353 354 354 352 350 351
335 335 332 331 331 331 338 344 341 344 346 348 350 352 353 350 353 354 352 352 351 351 351 350 353 356 357 358 356 357 358 357 352 349 349 353 352 350 356 353 354 354 354 354 355 354 350 352 352
329 333 334 332 335 333 336 343 343 346 347 347 351 356 354 354 353 352 352 353 352 352 351 352 353 356 357 358 358 357 358 358 358 354 352 348 348 352 352 355 352 354 354 355 355 350 354 353 352
329 331 333 332 331 334 337 342 341 345 344 348 351 350 350 350 350 352 351 348 351 352 352 352 354 355 357 358 357 357 357 358 359 357 355 354 351 352 353 354 353 354 354 355 355 353 354 353 353
326 329 332 334 334 331 333 337 339 342 342 348 346 342 342 342 344 345 346 349 351 352 353 354 352 353 354 357 358 357 357 357 357 358 356 355 354 352 352 354 356 357 356 356 357 355 350 354 354

GFSSGP_925_thetae_096.txt.gz
Theta_e
342 344 347 349 363 368 373 369 360 358 354 345 346 351 356 355 356 361 347 348 347 348 350 350 348 349 348 346 351 352 351 350 348 347 345 346 352 352 353 352 351 351 353 354 353 353 353 353 350
348 345 347 361 371 377 375 363 363 357 347 345 345 353 350 352 347 346 346 347 346 347 347 348 349 351 351 350 352 352 351 352 352 347 352 351 349 351 353 354 353 352 350 353 353 353 353 352 341
353 345 358 366 371 373 371 363 358 353 348 346 357 354 347 348 345 345 346 346 345 345 347 349 347 351 352 352 352 352 351 352 352 350 351 352 350 352 352 352 353 353 351 353 352 353 352 347 338
354 348 358 371 370 367 365 361 354 352 348 353 352 354 345 344 344 345 345 344 344 349 348 350 350 352 353 352 352 352 351 348 352 351 352 351 351 350 352 352 353 353 353 351 351 352 350 338 337
351 359 369 369 364 365 361 360 358 356 352 354 354 350 347 345 344 344 344 343 345 348 348 351 350 353 353 353 352 352 352 351 352 352 352 352 351 352 351 352 352 352 352 352 351 353 351 340 342
359 361 370 370 364 362 362 358 355 358 355 355 352 347 346 344 344 344 344 345 349 347 347 350 351 353 353 352 353 351 352 352 351 351 351 351 351 351 351 351 352 352 350 352 352 352 348 339 340
362 367 368 364 364 362 361 357 360 362 354 355 352 352 347 345 344 344 345 348 346 346 348 349 351 353 353 352 352 352 351 351 351 350 351 352 351 351 351 351 351 352 352 352 351 343 341 337 339
359 365 365 361 362 362 358 361 359 361 356 354 351 353 348 345 344 345 345 346 347 348 349 350 351 352 350 353 353 352 351 350 349 348 343 344 349 349 349 347 350 350 352 352 343 340 336 334 341
355 367 369 360 360 360 358 360 355 355 360 356 355 347 343 343 343 345 345 348 348 346 349 348 352 350 350 351 350 350 344 346 343 345 347 348 349 348 349 347 350 346 351 345 341 339 335 336 343
362 367 364 357 357 358 359 354 357 360 361 357 349 344 342 342 343 344 345 346 348 349 348 349 350 350 352 348 351 351 349 350 349 349 348 347 348 345 345 348 347 343 341 342 344 345 345 343 343
360 368 356 356 356 357 359 356 352 360 364 356 349 345 343 343 343 342 345 346 347 348 348 350 348 352 351 350 352 350 351 351 348 349 349 350 347 346 340 341 346 342 345 347 346 348 348 350 347
361 350 352 356 356 356 359 355 358 358 360 355 346 343 344 343 343 342 343 346 345 349 351 349 353 349 350 351 348 350 350 348 348 346 348 346 344 347 345 348 345 349 346 346 335 348 346 344 342
353 350 354 349 354 356 357 357 360 352 352 354 346 345 344 343 342 342 342 345 347 348 351 351 350 349 352 347 350 349 346 347 344 346 346 347 346 345 347 345 344 345 346 348 349 349 347 345 342
346 357 355 346 352 357 358 357 358 355 356 352 347 346 344 343 342 343 344 345 346 349 349 351 352 347 352 349 348 351 347 348 347 347 348 346 346 346 344 346 344 346 349 348 350 346 346 346 343
339 346 352 347 350 357 355 359 360 358 355 353 348 346 344 342 342 344 344 346 345 346 348 351 349 350 353 351 351 349 350 350 347 350 351 350 348 347 347 346 347 348 347 343 346 348 348 345 342
337 346 357 348 346 354 356 366 360 356 355 352 348 346 344 343 342 343 344 346 345 346 347 347 347 350 352 348 351 351 350 350 348 351 352 353 351 351 346 349 348 345 342 348 348 350 344 345 344
337 348 351 350 345 357 357 366 361 357 355 352 349 346 344 343 343 343 344 345 345 347 348 346 348 348 350 345 351 352 351 351 345 347 351 351 352 353 349 350 350 345 347 346 347 344 345 346 342
339 342 349 352 347 355 358 364 361 358 355 354 350 347 346 344 344 343 343 345 344 347 348 347 347 348 350 347 351 351 351 353 352 350 349 351 351 352 351 350 350 352 345 348 347 350 348 346 343
339 342 351 350 349 357 351 348 360 359 355 354 352 348 347 346 344 343 343 343 343 348 348 348 352 348 351 350 348 351 349 351 353 352 352 350 351 352 351 351 351 350 350 348 349 345 347 349 343
336 337 350 349 348 357 352 356 359 359 358 355 352 350 351 350 347 344 343 341 342 348 348 349 354 349 352 348 349 349 351 352 353 351 354 352 352 352 351 351 350 352 351 349 349 351 345 347 344
330 335 350 352 350 352 358 362 346 359 356 357 355 353 351 351 350 344 343 341 342 348 349 350 354 350 351 350 350 354 349 344 354 351 354 354 353 353 354 352 351 349 350 351 351 351 350 351 346
330 334 338 350 349 345 346 360 366 363 358 351 358 357 355 352 350 345 343 342 342 346 348 351 353 351 351 354 350 352 350 347 352 350 354 353 353 353 355 354 355 352 350 351 350 350 350 346 351
332 334 342 344 345 339 340 352 353 354 363 346 353 358 354 350 346 346 345 344 343 345 346 351 352 355 352 354 354 350 351 352 350 353 351 353 354 355 352 354 353 353 349 350 350 349 344 352 348
333 333 333 340 341 340 341 341 353 358 356 353 350 358 354 352 348 347 347 347 347 345 344 350 353 354 356 351 354 353 352 348 349 351 349 353 354 354 353 352 354 353 351 349 351 352 352 353 349
332 335 335 343 340 338 338 342 356 353 350 353 357 356 351 347 350 350 350 349 349 345 343 350 353 355 356 353 354 357 355 354 351 351 352 355 354 354 354 352 355 354 353 351 353 351 354 351 354
332 335 335 341 338 336 335 350 349 346 345 343 350 351 356 346 348 351 352 351 349 348 344 349 355 357 355 357 357 355 355 354 352 351 351 351 350 352 354 351 353 353 352 354 352 351 351 353 349
334 336 334 332 332 333 345 348 345 345 346 348 358 359 357 356 355 347 349 352 349 350 349 350 355 357 357 357 358 359 357 357 355 348 345 350 352 350 353 353 352 353 354 353 352 352 350 351 349
335 333 335 337 338 337 347 350 351 348 357 358 358 357 358 355 356 351 345 346 347 350 348 356 356 358 358 358 359 359 360 358 355 355 351 348 353 351 347 350 354 351 353 354 352 352 351 351 351
332 333 333 334 335 337 350 348 346 350 357 357 353 350 350 351 350 352 346 348 341 352 354 354 358 361 361 361 360 359 360 361 358 358 353 349 352 352 350 349 352 353 352 352 354 352 353 351 350
326 332 332 336 339 336 349 350 344 349 352 349 348 346 344 344 346 346 345 346 349 349 351 351 352 358 360 360 361 361 361 360 361 359 359 356 352 353 353 352 349 354 354 353 352 352 354 352 352

GFSSGP_925_thetae_102.txt.gz
Theta_e
341 336 340 344 360 363 367 365 361 355 353 349 346 348 353 352 354 352 347 347 344 348 347 347 348 350 348 349 347 350 349 349 351 351 351 352 352 352 352 353 353 353 353 353 352 352 352 350 347
340 342 345 354 365 369 367 364 359 352 349 346 347 349 352 354 348 348 348 344 344 346 348 348 345 345 350 350 349 351 349 349 346 350 351 352 352 351 352 353 352 353 353 352 351 351 350 347 347
346 347 351 359 366 368 367 363 355 350 347 346 348 347 351 354 349 348 348 344 346 348 345 341 340 348 350 350 351 351 351 350 351 349 351 351 352 353 352 352 353 353 353 352 351 351 350 349 345
350 349 350 366 370 364 364 363 350 347 346 346 349 353 349 348 347 348 347 345 346 341 344 348 345 351 352 350 351 351 350 350 352 352 351 352 353 353 353 352 352 353 352 351 350 351 345 342 344
352 354 364 367 366 362 360 361 349 351 350 349 348 352 350 346 347 347 347 347 341 346 347 348 348 350 351 351 351 352 351 351 350 351 351 352 352 352 352 353 352 352 352 349 349 344 344 343 344
357 356 368 369 365 362 361 360 350 349 349 349 350 351 348 346 346 346 347 344 340 343 346 351 350 351 351 351 351 351 351 351 351 349 350 351 351 352 352 352 353 353 353 342 340 342 343 344 344
359 362 367 365 364 364 364 358 357 350 349 349 346 352 347 345 345 347 347 343 342 344 347 349 350 351 352 351 351 351 351 351 351 351 351 351 351 352 352 352 353 353 352 340 338 340 342 343 344
357 356 363 360 364 365 361 359 357 358 351 344 345 350 349 344 347 347 346 344 345 348 347 349 350 349 350 350 352 351 350 351 351 351 351 351 351 352 352 349 353 353 351 342 337 337 340 342 343
354 363 365 361 361 364 358 359 355 351 350 346 345 345 343 344 347 346 346 347 349 351 349 348 348 346 351 348 352 350 351 351 348 349 351 348 349 348 347 351 352 352 347 340 336 339 341 343 343
357 356 360 357 357 362 358 358 356 353 356 355 345 342 345 348 346 346 347 347 348 349 350 346 343 347 348 350 348 348 347 344 344 345 347 346 346 343 345 351 351 347 339 336 335 340 341 342 344
352 358 351 355 356 357 356 355 353 352 355 351 346 344 347 346 345 346 347 347 348 349 350 349 350 347 344 345 343 344 345 345 346 346 348 345 343 343 345 347 343 344 343 341 341 343 346 348 346
353 352 351 355 355 355 356 352 349 349 353 347 343 343 346 347 347 347 347 348 349 349 350 350 349 349 348 348 346 348 347 346 347 346 348 346 339 341 341 343 344 344 342 344 344 345 346 342 341
356 356 349 355 353 351 351 355 359 354 353 351 343 343 345 346 347 346 346 348 349 349 351 349 349 350 348 347 348 347 347 346 347 348 345 344 339 340 343 346 347 339 338 342 346 345 342 341 342
345 351 353 355 356 352 358 357 352 353 352 352 343 341 342 346 346 347 347 348 349 350 350 347 346 349 348 347 347 347 347 347 348 347 347 346 341 344 346 346 345 345 346 346 345 343 343 341 341
333 347 352 355 358 357 352 355 357 351 350 348 343 341 339 344 346 347 347 348 350 350 349 348 349 349 347 348 348 349 348 348 347 347 347 344 345 346 347 345 344 345 346 347 347 346 343 341 339
331 351 351 358 359 358 356 359 351 349 352 352 344 342 340 345 347 347 347 349 350 349 348 349 349 348 348 350 349 348 347 347 347 347 347 346 346 346 347 345 344 346 345 346 348 347 347 342 340
324 330 352 361 358 359 357 354 354 352 354 354 349 342 340 346 346 348 348 349 350 350 350 352 348 347 348 351 348 348 348 347 346 345 347 347 346 345 346 348 346 345 346 346 347 346 345 346 342
326 333 341 356 361 357 357 357 354 353 355 357 349 342 340 345 345 346 348 350 351 348 349 350 349 347 350 351 349 348 347 341 343 346 349 349 347 346 348 348 345 346 347 347 346 345 346 348 344
323 326 357 361 358 358 356 354 355 353 354 357 346 341 341 345 343 344 348 350 349 348 347 346 347 347 348 350 350 350 345 344 344 347 349 348 349 348 348 350 345 346 347 347 348 348 348 343 344
322 328 359 356 355 356 358 361 359 356 356 352 345 340 341 343 344 344 347 348 348 349 348 347 347 348 345 349 351 351 350 349 348 349 349 349 350 346 347 347 346 347 346 346 346 348 346 346 346
321 323 354 357 354 354 355 356 358 355 354 348 345 340 341 342 344 343 346 347 346 347 349 349 348 345 344 349 351 352 352 350 349 349 350 349 350 348 350 349 346 349 348 348 346 348 347 348 346
318 321 344 354 357 363 353 355 353 351 356 352 348 344 341 340 342 343 345 346 346 347 349 348 348 346 344 344 350 351 350 350 349 348 349 350 351 350 349 349 348 347 348 348 348 349 348 347 347
321 322 337 350 350 355 358 357 351 352 360 357 354 348 346 342 342 343 344 346 347 347 349 348 347 347 345 346 351 350 349 346 350 348 350 351 352 350 349 347 350 350 349 347 346 349 348 348 348
323 339 341 342 345 351 350 355 358 358 359 358 353 349 349 347 342 341 342 346 347 348 349 349 348 348 347 352 353 350 347 343 348 351 351 352 351 351 352 350 348 349 348 348 347 349 349 349 347
324 324 328 346 353 348 348 353 348 354 356 356 357 355 352 349 349 341 340 347 347 347 350 350 349 348 347 348 352 352 348 348 349 350 352 352 353 351 351 352 352 348 349 347 348 350 350 347 348
324 324 328 338 340 340 345 355 354 348 346 348 349 349 349 349 351 347 344 345 347 347 349 352 351 349 348 346 352 352 351 348 349 352 350 348 348 349 353 352 353 351 350 347 351 349 349 346 346
323 325 323 328 328 339 349 350 345 351 349 347 345 351 352 349 349 347 346 348 347 347 350 350 351 349 348 346 352 351 351 350 350 350 348 347 348 348 350 351 352 353 351 350 351 350 349 348 349
323 326 332 326 334 343 351 352 353 352 362 358 350 353 352 345 348 348 346 346 346 346 349 350 351 352 350 349 351 351 351 351 349 350 349 350 352 352 352 351 347 349 352 352 352 349 348 349 350
327 329 327 325 326 337 353 352 356 359 358 358 356 352 347 345 344 343 345 347 346 347 344 344 348 352 351 351 352 354 350 353 353 348 352 350 353 352 352 351 348 347 351 352 351 351 349 348 349
326 328 325 329 330 343 344 357 352 350 349 349 350 347 347 346 346 346 343 343 348 345 345 340 342 347 351 352 350 352 350 349 349 348 354 354 351 351 351 350 349 348 350 352 350 350 349 350 351

GFSSGP_925_thetae_105.txt.gz
Theta_e
351 340 342 344 358 360 363 362 360 354 350 348 344 346 348 349 354 347 346 346 342 345 346 347 348 351 350 348 343 345 351 351 351 351 352 352 351 351 351 352 351 351 350 351 351 349 347 347 347
342 341 345 353 359 365 366 362 362 352 348 345 347 350 351 354 349 347 346 344 343 345 346 347 348 349 350 349 349 348 347 351 351 351 351 352 352 352 352 353 352 351 350 352 351 350 349 348 348
339 345 350 359 363 365 366 361 353 350 347 347 350 349 352 354 347 346 347 345 346 346 346 347 345 350 350 351 351 349 350 347 350 351 351 352 353 353 353 352 353 353 351 352 351 350 349 349 348
350 349 347 364 369 361 363 359 350 347 347 349 351 354 349 347 347 347 347 346 347 348 346 345 349 351 350 350 351 350 350 351 348 351 351 352 352 353 353 353 353 352 351 351 351 350 349 348 348
351 354 362 365 365 361 357 360 350 351 351 350 349 352 350 347 347 347 347 344 345 344 345 347 350 352 351 351 350 350 350 351 350 351 352 351 352 352 353 353 353 350 351 351 351 349 345 344 345
355 356 364 369 365 361 361 358 349 351 350 350 350 351 348 347 347 347 346 345 340 344 347 349 349 351 351 351 351 351 351 349 351 350 351 348 352 351 353 353 353 352 350 350 349 343 343 343 341
358 362 367 366 364 364 360 356 351 350 350 349 347 351 348 346 346 346 344 338 346 346 348 350 347 351 351 351 351 350 350 349 349 350 350 350 351 352 353 353 353 353 350 349 342 343 342 345 343
356 356 361 362 365 367 356 357 356 355 351 345 344 352 351 345 346 346 346 346 345 347 347 348 349 352 349 351 350 351 349 348 350 350 349 351 352 352 353 350 353 353 351 348 342 342 343 344 343
350 359 362 362 363 363 354 354 354 351 349 346 345 346 345 346 347 347 348 349 348 348 348 348 349 349 348 349 350 350 349 348 349 351 350 350 351 349 349 350 353 352 350 340 339 340 342 343 343
353 356 358 354 355 362 356 354 355 352 351 349 347 344 345 346 346 346 347 348 350 349 350 349 346 349 348 349 349 349 347 347 348 348 347 347 347 347 348 352 352 350 342 338 340 342 342 343 343
353 357 353 352 354 356 355 355 351 353 357 348 348 345 347 346 345 345 344 346 348 349 351 350 344 348 348 349 346 345 343 344 345 345 345 345 344 346 347 347 347 342 339 337 338 340 341 343 344
351 351 353 354 355 357 356 353 352 352 353 347 343 345 346 345 345 345 345 346 346 348 349 346 346 346 346 342 343 345 345 346 345 347 344 343 342 342 343 343 344 344 344 344 345 345 346 344 346
352 355 351 356 354 353 352 354 352 352 351 346 346 347 346 345 345 346 346 346 346 348 349 348 348 346 347 340 345 347 346 346 346 346 346 341 341 341 343 345 343 342 340 342 344 343 340 342 342
349 352 353 355 355 351 356 354 354 350 352 347 348 347 346 346 346 346 346 347 348 348 349 348 349 349 347 345 346 346 345 346 346 345 344 338 339 342 344 344 341 341 344 345 345 344 341 342 342
333 355 354 356 356 355 351 356 357 352 351 347 346 347 346 346 346 345 347 347 348 349 350 348 349 349 347 346 346 346 346 346 346 344 345 345 340 344 345 344 344 344 344 345 346 346 345 341 343
331 347 361 357 358 353 353 359 354 350 352 350 344 346 347 347 346 346 347 348 348 349 349 346 345 347 347 347 347 348 346 346 346 345 346 344 345 345 345 342 343 345 346 346 347 346 344 341 339
321 335 353 361 358 358 354 356 353 351 352 352 343 341 344 346 346 346 347 348 349 349 348 348 347 349 348 348 348 347 346 346 346 347 346 346 345 345 346 344 344 345 345 346 347 345 345 345 342
326 328 348 362 360 360 357 355 354 352 353 355 350 341 344 346 346 347 347 349 349 348 348 350 348 348 349 348 347 347 347 347 345 346 345 347 345 345 346 347 346 343 346 346 345 344 346 348 345
322 325 362 361 354 352 354 356 354 352 354 356 355 339 345 346 346 347 347 349 349 349 347 349 347 347 349 349 348 347 346 343 343 346 347 346 346 346 348 348 345 345 346 346 348 347 347 343 343
322 342 359 357 356 357 353 357 355 353 354 354 354 340 345 344 346 347 348 349 349 349 349 350 348 348 350 349 347 347 347 343 343 346 348 348 348 345 346 348 346 347 345 346 346 347 346 346 345
320 326 355 358 354 355 358 358 357 353 352 353 353 339 344 344 346 347 349 349 348 347 348 349 347 346 348 349 349 349 348 348 344 347 348 348 348 347 345 346 346 347 347 346 346 347 347 347 346
322 319 347 355 353 354 353 358 355 358 357 355 351 341 344 344 343 345 348 348 346 346 346 345 345 346 345 348 349 349 349 349 348 348 349 348 349 348 348 348 347 347 347 346 347 348 347 346 349
321 321 340 352 353 354 359 352 350 357 360 357 353 343 342 344 343 344 346 346 345 347 347 347 346 347 345 347 348 350 350 349 347 347 348 349 350 350 349 348 347 348 347 347 347 348 347 348 349
322 339 342 341 344 350 354 353 355 356 357 355 353 347 342 344 344 343 346 346 344 348 348 348 348 346 346 346 348 349 348 347 349 349 347 349 350 350 350 349 345 347 349 348 346 349 348 348 348
322 333 340 350 350 350 344 352 344 350 351 353 353 349 345 342 344 344 345 346 346 349 348 348 347 347 347 347 351 350 349 346 345 350 349 349 351 351 350 351 348 348 348 346 347 349 349 348 347
319 325 328 344 348 344 345 348 347 348 347 349 351 351 351 350 345 344 344 345 346 348 349 348 348 347 347 348 350 350 351 348 347 349 350 351 351 351 352 350 351 351 346 348 347 347 349 349 347
322 323 321 325 326 344 347 347 346 350 347 352 352 352 353 350 348 347 343 345 346 347 349 351 349 347 347 346 347 350 352 350 348 348 351 349 347 350 350 352 351 352 350 349 348 349 347 349 348
320 321 327 323 330 344 350 353 353 357 354 347 353 351 349 349 349 348 348 346 347 348 349 350 351 349 348 348 347 349 351 350 350 348 349 349 348 347 348 349 352 350 350 350 350 349 350 348 347
327 328 323 322 324 343 351 352 353 355 357 356 353 349 348 349 347 347 347 346 346 348 348 348 349 349 351 350 349 350 352 351 350 350 348 348 349 349 350 351 350 349 348 351 351 351 350 347 347
324 326 324 327 333 337 343 353 351 353 352 351 350 348 346 342 341 342 344 347 346 346 345 344 343 343 347 350 351 350 350 351 351 350 348 349 351 352 351 350 350 350 346 349 352 351 351 351 346

GFSSGP_925_thetae_108.txt.gz
Theta_e
350 337 342 344 355 358 362 360 358 348 344 343 341 342 346 350 353 346 344 345 341 343 346 347 349 350 346 348 350 348 350 350 350 349 351 350 350 350 351 350 351 348 352 348 346 347 349 349 347
345 340 344 353 358 365 364 359 359 351 345 341 346 349 351 354 348 346 345 344 341 345 346 346 348 345 346 343 344 350 351 350 350 350 351 351 349 350 350 351 350 349 351 351 349 349 348 349 350
340 345 349 359 360 363 365 359 353 349 344 345 352 350 351 351 345 345 346 345 343 347 346 347 345 350 344 348 344 343 347 348 350 350 350 350 352 350 352 352 349 351 350 351 350 350 350 350 349
346 348 345 360 362 360 360 355 348 348 348 350 351 354 348 344 345 347 347 345 343 345 346 345 350 351 350 350 344 349 350 347 349 348 349 351 353 351 352 351 352 351 350 349 346 349 349 349 348
350 351 359 364 363 360 357 358 354 350 351 351 349 352 348 347 347 347 347 344 343 347 345 343 350 350 348 349 350 349 349 348 347 349 351 351 353 352 349 352 351 352 351 350 350 348 348 348 351
354 354 362 365 364 359 357 355 350 352 351 349 349 349 351 347 347 348 346 345 345 343 341 348 351 350 349 350 350 350 349 346 350 349 348 351 348 349 349 350 350 351 350 350 349 349 344 345 345
358 360 363 363 364 362 358 353 351 351 350 350 347 351 350 346 347 346 344 343 340 344 345 348 349 351 350 350 349 349 345 347 346 349 351 350 348 348 348 349 351 350 350 350 347 345 344 343 343
355 356 361 362 364 365 356 357 355 351 350 344 344 350 348 345 346 346 345 342 347 347 348 347 351 350 349 348 349 350 345 346 349 346 351 347 350 350 348 348 351 350 350 348 345 343 344 344 344
348 357 360 363 364 360 354 354 354 351 347 346 345 345 344 346 346 345 346 349 348 350 349 347 349 348 349 347 351 346 345 347 350 349 349 350 350 347 347 348 351 351 350 345 342 341 343 342 341
352 355 357 352 356 357 353 353 354 350 350 349 347 345 346 346 346 346 347 347 349 350 349 348 349 345 347 348 349 347 346 349 348 347 348 348 346 347 347 351 351 351 350 345 341 341 342 343 342
351 355 353 355 355 351 355 354 351 352 351 346 349 348 346 346 345 345 346 347 347 347 349 349 347 346 346 347 345 345 344 345 345 344 345 344 344 345 347 347 347 343 341 339 340 340 341 342 344
352 351 352 352 356 357 356 351 352 353 351 344 346 346 346 345 344 343 345 346 347 347 349 349 345 348 346 345 343 344 344 344 344 343 343 342 342 344 344 344 343 342 341 342 344 345 345 345 346
349 352 354 355 356 355 353 353 351 352 349 343 346 345 345 344 344 342 343 344 346 347 347 346 345 346 344 342 344 345 346 345 345 344 340 340 341 343 343 344 343 341 340 344 343 341 340 342 341
344 351 355 355 355 353 354 353 350 349 350 345 347 346 345 344 344 344 345 344 344 345 346 346 345 345 344 340 345 346 346 346 345 344 342 338 340 342 343 342 339 341 345 345 344 343 340 341 342
341 353 355 356 353 355 352 355 357 352 348 346 348 346 345 344 344 344 345 345 344 346 347 346 347 348 347 344 345 345 345 346 343 343 342 338 341 343 343 344 344 344 344 346 347 346 342 341 342
338 351 361 357 355 354 351 360 356 352 351 349 349 347 346 345 345 345 345 345 345 347 348 347 348 347 346 346 345 345 344 345 344 344 344 342 340 343 343 343 344 345 345 345 346 345 343 339 340
320 347 356 361 355 355 354 356 352 351 352 349 348 347 346 346 344 345 346 346 347 347 349 347 348 346 346 347 347 346 345 345 345 345 346 343 344 344 344 343 343 344 343 345 345 344 344 346 344
325 326 352 361 358 358 358 356 354 352 352 351 348 347 347 346 345 345 346 347 347 348 349 346 345 347 347 346 347 346 344 345 345 346 346 345 343 344 345 345 344 344 346 345 345 346 346 347 344
322 354 361 360 353 355 354 352 354 353 352 353 346 343 346 346 345 346 346 347 348 348 348 347 347 347 348 348 347 346 346 346 345 346 345 346 346 345 343 346 345 345 346 346 346 346 344 342 342
333 355 359 357 355 350 352 355 355 353 353 353 353 339 344 344 345 345 347 348 348 348 347 349 348 347 347 348 346 346 346 344 343 345 345 345 346 344 346 347 344 345 345 345 346 346 346 346 345
320 348 356 356 356 352 353 357 357 354 352 352 352 339 343 346 346 345 347 348 348 348 347 348 346 346 347 349 347 347 346 344 343 345 347 347 346 345 346 346 346 345 344 345 345 347 346 346 346
321 322 353 356 350 356 350 358 358 356 355 353 352 341 344 345 346 345 347 348 348 348 348 348 346 346 349 349 348 347 347 347 346 345 347 348 348 347 345 346 345 346 346 345 346 348 347 346 348
321 321 350 350 351 351 358 350 346 356 358 355 353 345 344 344 345 346 347 348 347 348 348 348 348 347 346 349 348 347 348 347 347 347 348 348 348 348 347 348 346 346 347 346 345 347 347 346 348
329 342 341 340 344 351 351 351 353 359 356 354 350 349 344 344 345 345 346 347 347 346 347 347 348 347 345 345 348 348 347 348 347 347 347 348 349 349 349 348 347 346 347 347 346 345 347 347 347
323 336 346 349 350 349 341 352 344 348 352 352 350 348 342 344 344 345 347 347 346 346 346 346 345 346 346 345 347 347 348 348 347 348 347 347 349 350 349 349 348 346 348 347 347 346 348 347 346
322 329 340 348 349 347 345 352 343 347 345 348 347 348 341 344 343 344 346 346 344 347 347 347 347 346 346 346 346 348 348 348 346 345 349 348 348 349 349 350 350 349 350 346 346 346 348 349 347
320 327 324 330 324 344 345 346 344 349 351 350 352 350 347 344 345 345 345 345 345 348 349 347 347 347 346 347 350 351 350 349 347 347 349 349 350 350 350 350 350 350 351 348 349 347 348 349 348
320 318 325 321 330 339 348 351 350 354 353 354 354 354 351 346 345 345 344 345 346 346 345 349 348 347 347 347 347 348 349 348 349 347 347 348 347 347 349 349 349 351 350 350 349 348 350 349 348
326 326 320 321 326 344 349 348 352 353 349 354 353 353 351 348 347 344 344 344 345 345 347 348 349 349 348 347 348 348 348 348 348 349 348 347 347 348 347 348 348 349 348 348 349 349 349 349 348
322 325 322 326 337 336 340 348 352 353 354 349 349 349 347 346 348 347 345 345 346 346 346 345 343 345 347 347 350 349 349 349 349 349 349 347 347 349 349 348 348 350 349 348 348 350 350 350 350

GFSSGP_925_thetae_111.txt.gz
Theta_e
345 341 344 347 359 361 363 362 358 344 343 341 339 342 346 351 353 349 344 345 344 347 349 351 347 350 348 349 349 350 351 348 348 349 350 351 351 351 350 351 352 351 347 350 350 351 350 350 350
344 343 346 354 360 366 363 359 354 342 342 342 344 346 352 356 347 345 346 345 345 347 349 350 348 343 341 347 350 349 351 349 349 350 349 349 347 351 352 352 352 350 347 349 348 349 351 350 350
343 346 354 361 359 364 364 358 355 347 343 346 353 350 351 352 344 344 346 346 347 348 349 351 343 341 341 341 343 349 348 349 347 350 349 349 347 351 352 352 351 352 350 351 351 349 350 350 350
345 350 350 362 360 359 358 352 350 345 344 350 351 354 346 344 344 346 346 346 348 349 350 348 349 347 351 346 348 347 338 344 345 348 349 350 347 348 352 353 352 347 346 344 345 345 350 350 349
352 354 361 363 361 358 356 353 347 349 348 352 350 351 348 347 348 347 347 347 348 348 348 351 350 348 349 350 346 348 348 345 347 347 350 351 348 351 351 352 352 348 347 349 350 350 349 351 350
356 354 362 363 361 359 357 355 351 350 352 350 349 348 350 348 348 348 347 346 346 346 346 351 350 348 348 350 348 350 347 350 348 348 349 347 346 348 351 351 352 351 350 350 351 346 344 345 346
358 359 361 361 362 361 359 354 351 352 351 350 344 349 350 348 347 347 347 347 347 344 348 352 349 351 348 349 348 345 349 349 348 350 347 347 346 346 351 349 351 351 351 349 348 344 343 342 344
355 357 361 362 364 366 356 356 352 350 351 345 343 351 352 346 346 347 347 346 345 346 348 350 352 349 350 350 350 346 346 345 347 350 345 347 346 346 347 349 350 351 350 349 344 343 342 342 345
348 358 361 362 362 362 353 356 351 348 346 346 346 345 345 346 345 346 344 345 348 349 348 350 351 350 350 350 350 349 350 350 347 350 347 347 345 346 350 350 351 351 348 343 341 342 343 342 342
354 359 358 353 356 357 353 353 349 349 351 350 348 346 346 346 345 343 342 346 348 349 349 350 349 349 350 350 346 347 348 349 349 348 348 345 345 347 351 351 351 349 341 341 341 342 343 345 348
351 356 354 356 353 353 352 351 351 350 352 349 350 348 346 345 344 340 343 345 347 349 348 349 350 349 350 350 349 347 349 348 348 346 345 345 346 346 351 349 347 343 338 342 342 343 346 346 347
355 351 352 355 353 350 354 350 352 352 351 345 345 345 345 345 342 340 343 345 347 348 348 349 350 348 349 348 347 347 347 346 345 346 343 344 348 348 348 346 344 339 339 341 344 343 342 343 346
351 352 353 356 351 354 351 351 352 350 346 345 345 345 345 343 340 340 342 345 347 348 348 348 350 349 347 344 347 347 348 346 345 345 342 344 347 346 347 345 346 341 343 344 341 340 341 341 342
342 352 356 355 353 353 353 352 351 350 345 346 346 344 343 342 341 341 342 344 346 347 348 347 349 349 345 343 344 346 348 347 343 342 343 340 343 343 344 345 342 344 345 344 344 341 340 341 344
346 357 355 357 356 356 351 356 354 350 345 346 344 344 344 344 343 342 341 342 344 347 348 347 348 348 343 345 346 347 346 346 344 341 338 339 342 343 344 345 346 344 345 346 346 344 340 344 343
347 352 360 357 356 353 352 361 355 351 347 347 346 346 346 347 346 343 343 343 345 346 349 349 348 349 347 345 346 348 345 344 343 344 340 340 341 343 343 344 345 345 345 346 346 346 345 343 343
335 346 356 362 355 356 354 359 355 352 348 351 349 348 348 347 347 345 345 345 346 348 349 349 350 350 348 344 344 345 344 344 344 344 342 341 342 344 343 343 344 344 345 347 346 346 348 350 348
331 336 355 362 358 357 357 355 352 353 350 351 350 349 349 348 348 347 347 346 347 349 350 350 350 350 347 346 346 345 345 345 344 345 345 344 343 342 343 343 344 344 346 349 350 347 348 345 345
328 343 358 359 356 358 356 353 354 353 352 352 351 350 349 349 347 347 347 347 348 349 350 350 349 349 349 346 348 347 347 345 344 345 345 345 344 344 344 345 344 345 349 348 346 347 349 348 345
356 357 360 358 352 353 354 357 355 354 353 350 350 350 350 349 348 347 347 349 349 350 350 350 349 347 349 348 347 348 346 345 345 345 345 346 346 344 343 346 344 344 348 346 346 345 350 350 346
334 345 358 357 354 351 356 359 359 355 352 352 349 347 347 349 349 349 348 349 349 350 350 350 350 348 349 350 346 346 346 344 344 346 349 347 346 345 345 345 347 343 345 349 346 347 347 350 350
328 331 354 354 351 359 349 360 355 358 356 353 351 348 345 348 349 349 348 349 349 350 350 350 350 348 348 348 350 346 348 348 348 347 350 350 347 347 346 346 346 344 344 347 348 347 348 350 351
327 328 352 350 353 352 352 355 351 356 360 355 353 350 345 346 348 349 348 349 349 350 350 349 350 347 349 349 350 348 346 346 349 348 348 348 347 346 348 347 346 345 348 346 345 346 347 351 352
332 348 350 350 353 343 346 353 356 359 356 355 352 351 349 345 346 347 348 349 349 349 349 349 350 347 346 349 349 348 346 346 350 349 347 347 348 347 348 348 347 347 347 346 348 345 346 348 351
333 338 347 351 353 341 346 355 346 353 352 353 353 352 348 347 346 348 348 349 349 349 349 349 350 351 347 346 349 348 347 347 347 346 350 349 351 351 350 348 348 347 347 347 347 345 348 348 350
341 335 335 340 342 342 351 356 351 352 349 350 350 349 348 347 346 348 348 349 348 348 348 349 349 351 350 348 348 348 347 348 349 349 350 348 350 346 346 346 348 347 346 348 347 348 352 349 350
324 328 331 339 338 345 352 350 349 353 351 352 351 349 348 347 347 348 348 348 348 349 349 349 350 350 349 349 344 346 347 348 347 346 346 347 348 349 348 348 348 349 350 349 347 350 348 350 351
325 325 327 330 347 344 353 354 354 357 357 351 352 351 350 348 347 348 349 348 348 347 346 350 350 350 349 350 346 346 350 349 348 347 347 347 348 349 350 350 349 349 350 350 348 350 350 350 351
325 326 327 330 334 341 350 354 352 355 356 355 354 352 350 348 349 351 348 347 345 346 345 346 351 351 349 349 350 348 351 349 347 348 347 347 347 347 347 348 347 347 347 348 349 349 349 348 353
326 327 331 329 341 346 350 355 353 355 353 354 353 353 350 349 349 348 347 348 348 347 345 346 349 350 351 350 350 348 347 349 348 348 348 347 346 348 349 347 347 348 349 349 348 348 352 351 353

GFSSGP_925_thetae_114.txt.gz
Theta_e
342 343 347 351 365 363 360 360 348 346 343 342 341 343 352 353 353 356 339 341 346 348 348 349 349 351 346 345 350 352 351 350 352 350 350 351 351 351 352 351 350 349 352 352 348 350 350 351 351
343 346 349 357 368 367 363 355 347 345 344 341 344 347 351 356 346 342 342 342 346 347 348 350 348 347 348 347 346 351 350 349 352 351 347 347 350 353 353 351 348 347 348 349 352 351 351 350 350
345 349 359 362 362 366 363 356 346 345 343 348 352 351 353 352 341 341 341 344 346 348 349 349 342 342 343 349 351 348 348 347 351 351 347 347 351 353 352 352 352 351 352 352 349 351 351 351 350
349 351 354 365 362 361 359 358 348 346 346 351 352 356 348 345 342 343 343 345 347 348 349 346 348 347 341 339 341 343 348 349 349 350 348 347 352 353 353 349 346 345 346 345 349 351 351 351 349
352 355 361 364 363 360 357 353 348 347 350 354 352 355 350 344 344 343 345 345 347 348 348 350 350 349 351 347 348 349 346 350 351 352 347 347 350 352 353 350 349 351 351 349 344 351 351 350 348
357 357 364 363 361 359 358 355 350 350 351 352 351 350 351 346 344 344 345 346 346 347 349 350 348 350 351 351 350 348 349 349 351 351 347 346 351 352 353 353 352 351 350 349 343 346 348 348 348
359 361 362 360 361 361 360 355 352 353 352 352 347 350 351 347 346 345 345 345 346 345 348 348 347 349 349 350 350 351 350 351 351 351 348 347 351 352 352 352 352 351 350 349 345 345 344 348 348
356 359 363 361 361 364 357 355 351 352 354 346 345 352 354 348 347 346 346 346 345 345 349 349 348 350 347 350 350 351 350 351 350 349 350 348 347 352 349 345 351 351 350 344 344 343 342 347 344
352 363 363 363 363 362 355 354 351 349 351 347 346 345 347 347 346 346 346 345 344 344 345 349 346 347 349 349 346 347 350 348 349 344 345 349 349 350 352 346 350 347 343 342 343 343 342 346 345
357 361 360 356 357 358 354 352 350 351 353 351 347 346 346 345 344 343 342 343 344 345 346 348 345 347 348 348 350 349 349 347 349 349 349 349 350 349 349 348 344 342 341 341 342 342 346 346 344
353 359 355 357 355 353 353 354 349 352 355 351 351 349 346 344 343 339 341 343 345 347 346 346 346 347 348 349 348 347 347 346 348 350 349 349 349 349 346 346 345 345 345 346 347 348 346 346 345
355 354 354 355 353 350 353 349 353 351 350 347 346 346 345 344 340 339 343 345 346 347 346 347 347 349 349 346 346 344 343 343 344 347 349 349 348 346 345 343 345 346 346 349 348 346 348 346 348
354 353 354 353 350 351 350 354 352 351 347 345 345 344 344 342 339 339 342 344 346 347 347 347 347 349 349 349 345 343 343 342 344 346 348 346 345 346 346 348 346 347 348 346 347 346 347 345 346
344 351 355 352 352 352 353 352 352 350 346 346 345 343 342 341 339 340 342 344 345 346 346 348 347 348 348 350 349 346 344 345 345 345 346 348 346 348 348 347 347 349 348 348 347 348 345 344 345
345 351 355 354 354 353 349 352 355 348 346 345 343 343 343 342 341 341 342 343 345 346 347 348 347 347 349 350 349 344 344 345 345 345 348 349 348 351 349 349 348 348 349 351 348 345 343 341 342
346 348 358 357 354 353 351 361 354 346 343 343 344 344 345 344 342 341 341 343 345 347 348 348 344 347 350 350 348 345 346 345 345 345 346 348 349 350 350 349 348 350 350 347 346 345 344 344 343
345 349 356 362 355 354 355 359 353 349 343 344 345 345 347 348 345 343 342 344 346 348 350 349 347 348 349 351 350 349 348 348 346 346 347 349 349 350 349 348 348 351 349 347 347 348 349 346 346
342 342 357 363 358 355 359 358 354 352 349 346 346 347 348 349 348 345 344 346 346 349 351 350 350 350 350 350 351 349 349 349 347 346 347 350 350 350 349 349 350 350 348 347 349 352 349 347 348
336 337 356 357 358 359 358 355 358 354 351 348 347 348 348 348 348 347 346 346 348 349 350 351 351 351 351 350 348 348 348 349 349 349 351 351 350 351 352 349 348 349 349 352 353 350 350 346 348
339 340 356 358 359 358 359 358 356 355 351 350 349 348 348 348 347 349 348 348 349 351 351 351 351 352 352 351 350 349 349 349 349 350 351 351 350 352 350 352 349 350 349 353 354 354 347 346 350
348 347 353 355 356 354 356 362 361 355 352 349 348 349 348 347 349 350 349 349 349 351 352 352 352 352 352 351 352 351 351 351 350 350 350 351 352 351 351 351 350 349 351 350 352 352 353 346 350
337 337 349 357 356 360 356 360 362 359 357 353 349 349 348 347 346 348 349 349 349 350 352 352 352 354 351 352 351 351 350 350 349 349 350 350 351 351 350 352 349 349 349 352 352 351 352 356 347
333 336 346 350 349 354 355 350 358 360 361 356 352 348 346 345 345 347 348 349 349 350 351 352 353 354 352 352 350 350 349 349 349 350 352 351 353 352 350 352 350 350 348 353 353 354 354 351 350
329 338 342 343 347 346 348 351 361 363 360 358 353 351 346 345 344 345 345 348 350 349 350 351 352 354 353 354 352 351 351 350 351 351 352 351 350 350 351 352 352 351 352 353 352 353 355 354 354
334 341 344 343 345 345 342 344 349 351 351 354 354 351 350 345 343 345 347 348 350 350 350 350 352 353 353 353 353 352 350 350 349 351 350 349 350 350 352 352 353 351 352 354 354 354 355 355 353
333 339 340 345 346 344 348 347 349 347 348 349 352 351 350 348 344 345 347 349 351 350 351 351 353 354 353 353 352 353 352 350 349 349 352 351 351 349 351 351 350 353 353 353 354 352 351 353 353
331 336 336 338 339 342 346 347 350 351 352 351 352 352 351 350 347 346 347 348 351 351 352 352 353 354 353 352 353 353 352 350 348 351 350 352 354 351 351 350 351 352 351 352 354 351 352 354 354
327 333 338 337 343 344 346 346 354 358 355 353 352 353 351 349 348 348 347 349 351 350 353 352 353 354 353 352 352 351 352 352 350 349 349 353 355 355 353 352 351 353 352 354 353 351 353 354 353
326 328 330 332 334 340 343 345 354 359 356 355 353 350 350 350 348 349 349 351 351 352 352 352 354 353 352 350 351 350 351 351 352 352 353 351 353 355 353 354 353 353 353 353 353 353 352 354 352
325 326 328 332 337 336 342 359 354 355 356 353 354 352 350 351 348 350 352 352 353 352 350 347 352 352 353 352 353 353 351 352 351 352 353 354 354 355 356 355 355 353 352 354 352 352 350 353 353

GFSSGP_925_thetae_117.txt.gz
Theta_e
340 345 348 352 365 367 359 353 346 345 344 341 342 347 354 354 353 353 341 345 347 348 349 350 349 352 352 352 352 352 353 353 352 348 351 352 353 352 353 352 352 352 350 351 351 352 352 351 351
346 346 351 361 370 370 358 347 347 345 343 344 346 349 351 351 342 342 343 346 346 346 346 349 348 351 351 352 352 352 353 352 349 350 348 353 354 352 349 350 351 349 352 352 352 350 351 351 351
347 350 361 365 362 368 358 348 348 344 344 348 351 352 351 345 342 342 344 346 346 349 351 349 345 350 352 351 352 352 352 353 352 352 347 352 353 353 353 353 352 352 350 352 352 352 351 351 351
349 353 357 366 363 361 353 347 347 345 351 352 353 356 345 342 342 341 343 346 348 350 346 343 341 345 345 345 350 351 352 352 352 350 347 353 354 351 349 349 345 348 345 352 352 352 351 350 349
352 356 363 367 363 360 353 346 346 351 354 353 353 352 346 343 341 342 344 345 347 347 347 345 352 349 350 351 350 350 352 352 352 352 353 354 354 351 352 351 352 352 350 351 351 350 349 349 348
356 359 365 366 365 361 357 349 347 351 354 354 353 350 350 342 341 342 344 346 347 347 349 348 349 351 351 352 352 350 352 352 352 352 352 350 353 353 352 352 351 351 350 350 350 350 348 348 346
361 362 364 362 365 363 361 354 350 352 353 352 347 353 347 343 342 343 344 346 346 349 349 346 348 350 351 352 352 351 352 352 352 351 352 353 352 353 352 352 352 351 351 350 350 350 349 347 334
358 361 362 359 362 367 358 355 353 352 353 347 347 352 350 344 343 345 344 345 345 346 347 347 348 349 348 349 352 351 352 351 351 351 350 352 352 348 349 344 352 351 350 350 349 343 343 339 334
352 365 365 363 362 363 356 356 353 352 351 349 349 347 345 345 345 345 345 344 343 345 347 347 348 350 347 348 348 348 351 351 344 345 348 348 349 349 350 345 348 345 345 344 343 345 346 339 340
358 365 363 358 359 359 356 354 354 355 353 352 349 347 345 345 345 345 346 343 342 343 346 346 345 345 348 347 349 347 349 348 349 349 350 350 349 349 346 345 342 340 343 344 346 347 347 349 347
354 361 356 358 357 355 354 352 352 355 357 351 353 349 345 344 344 343 342 341 343 343 345 346 346 349 348 348 348 346 346 347 348 349 349 350 348 348 343 347 348 348 348 350 349 349 347 344 341
356 353 358 358 354 354 354 352 354 352 354 349 349 346 344 344 342 341 342 343 343 345 345 344 346 348 348 347 346 344 342 343 345 347 349 350 348 345 344 345 346 346 347 348 346 344 346 344 345
354 353 357 356 349 350 349 354 353 354 348 348 347 345 343 342 340 341 342 343 344 344 345 345 346 348 348 346 342 342 341 343 345 347 348 347 345 346 345 347 346 345 347 347 345 344 345 344 345
351 354 355 352 354 352 354 354 352 348 346 347 346 343 342 341 340 342 343 344 344 345 345 345 347 348 351 350 344 344 344 342 345 346 347 346 346 347 348 347 346 345 349 349 346 348 343 344 344
347 357 356 354 353 354 349 351 353 348 346 347 344 342 341 340 340 342 343 344 344 345 346 346 346 348 352 351 345 344 342 343 344 346 349 349 348 352 349 348 347 346 346 351 346 345 343 342 341
350 353 363 356 353 352 351 354 354 346 346 345 342 341 341 341 341 341 343 343 344 346 346 346 344 347 350 349 344 342 343 342 343 346 347 350 352 351 351 348 347 344 347 344 344 343 342 343 343
349 352 365 361 354 353 355 356 354 346 344 342 342 343 344 343 342 341 342 343 345 347 347 346 345 347 349 349 349 345 347 343 344 344 346 350 350 352 349 347 347 353 346 344 345 343 346 346 343
347 349 359 363 357 354 356 358 353 351 344 343 343 344 344 344 344 342 342 344 345 348 348 348 347 349 350 350 350 347 345 345 343 345 349 350 349 350 351 348 347 353 345 348 348 351 346 345 347
341 344 360 361 359 356 357 358 353 350 348 346 343 344 345 345 344 342 345 345 345 346 350 352 351 351 350 350 349 349 348 345 344 346 349 351 349 350 351 349 348 349 350 349 351 352 349 345 347
339 342 365 359 357 354 358 360 354 345 346 351 344 344 345 345 346 345 346 345 345 346 348 351 353 352 353 350 350 348 348 348 348 349 347 348 349 351 351 350 347 349 349 350 352 354 349 345 348
339 346 360 362 359 354 357 363 360 348 343 345 348 346 346 348 348 347 347 346 348 347 347 349 354 353 354 352 354 352 350 350 349 351 350 351 349 349 352 351 353 348 353 348 354 349 352 345 347
341 347 354 357 364 366 357 369 364 360 350 349 349 347 346 347 345 349 348 346 348 347 349 348 352 354 353 353 351 351 351 350 349 349 349 350 351 350 350 350 352 352 351 354 351 351 352 351 345
338 336 350 356 355 361 359 359 366 361 352 350 349 349 348 346 348 347 347 348 346 347 348 349 350 353 352 352 352 351 352 350 348 350 354 351 353 351 350 352 351 351 350 351 355 354 355 351 352
334 335 344 348 349 360 355 353 370 360 354 349 352 349 348 348 344 346 346 347 348 346 348 349 350 353 354 353 352 353 353 352 352 353 352 349 352 351 351 351 352 353 352 354 353 354 355 357 355
334 336 348 351 349 349 352 348 359 358 354 354 351 349 346 344 345 345 346 347 350 346 346 348 351 354 353 353 353 353 353 354 352 354 352 348 347 349 351 353 354 353 354 355 355 355 356 355 356
336 339 349 353 346 347 345 345 356 353 353 353 350 351 347 346 345 344 347 349 347 348 345 347 353 354 354 351 352 353 353 352 351 353 351 349 348 349 355 353 353 354 353 354 355 354 352 352 354
335 340 342 344 343 346 352 356 352 349 351 353 354 352 349 347 344 343 345 347 347 348 349 347 353 354 353 353 353 353 353 352 352 353 355 352 354 350 353 352 352 353 354 354 355 353 352 356 355
328 334 340 342 346 344 351 354 356 355 352 352 353 354 352 351 351 343 347 347 350 350 350 350 353 354 352 352 354 353 352 352 351 353 353 353 355 354 353 353 352 353 353 353 354 351 352 352 353
327 329 334 338 338 341 342 352 356 355 354 352 352 353 353 353 352 352 345 349 350 351 354 352 353 355 353 350 351 351 350 350 352 352 352 353 356 358 356 355 353 353 353 353 354 355 356 355 353
327 326 332 338 342 337 336 351 357 354 352 353 352 354 353 352 351 348 348 348 353 354 354 353 355 355 353 351 353 352 351 350 350 350 353 353 355 355 356 355 355 354 354 355 355 353 349 352 352

GFSSGP_925_thetae_123.txt.gz
Theta_e
335 337 345 350 365 363 364 344 340 353 352 346 345 348 349 350 349 356 348 348 350 350 350 351 350 351 352 351 351 349 351 350 350 348 351 349 351 351 351 351 352 352 353 352 352 352 348 343 346
335 341 347 356 367 366 358 345 347 355 351 344 344 344 348 352 348 347 347 350 347 351 350 350 350 350 352 351 350 349 351 352 352 351 350 351 352 349 353 352 352 350 349 352 352 351 347 347 346
334 342 355 359 362 364 356 346 346 353 347 344 345 344 348 351 347 346 347 348 350 350 346 350 348 349 351 351 349 349 350 352 352 350 346 347 347 352 352 352 353 353 352 352 352 345 339 345 344
341 352 356 361 364 361 356 344 351 346 343 343 344 348 347 346 347 347 348 349 349 346 349 349 350 352 352 351 352 351 350 352 352 352 352 353 352 352 351 351 352 353 353 350 351 339 337 343 346
345 355 362 365 359 357 358 349 351 352 347 345 344 348 352 347 347 350 349 348 345 344 345 347 347 346 351 350 352 351 350 351 351 351 351 349 351 351 352 352 353 351 351 349 348 333 341 344 344
354 356 364 366 358 355 354 354 353 353 346 346 346 348 351 349 349 349 347 345 344 349 343 349 350 348 346 352 352 351 353 352 351 351 351 350 350 350 350 352 352 351 348 336 328 330 339 343 343
357 359 363 361 357 357 361 354 354 347 346 346 343 346 346 347 346 347 346 345 349 349 348 346 351 352 348 350 352 352 352 352 352 349 347 348 348 351 352 352 352 343 337 331 327 329 338 342 341
357 358 363 361 358 362 359 356 353 347 348 343 342 345 352 348 347 347 347 348 349 349 348 349 349 348 347 350 353 352 351 352 351 347 346 346 349 352 349 344 342 341 337 330 328 337 339 340 340
354 359 366 363 362 360 359 358 354 350 347 344 343 343 347 348 348 349 346 341 348 349 349 348 348 351 347 350 352 351 347 346 351 346 344 342 344 347 343 342 344 345 340 332 334 335 335 336 336
356 359 364 358 358 362 358 358 356 352 352 346 343 345 346 346 349 348 347 346 346 348 349 348 350 348 346 345 345 344 344 345 345 345 349 350 348 344 342 342 343 345 345 345 342 341 342 344 339
356 361 358 360 356 357 358 357 355 354 353 346 344 344 346 345 345 347 348 345 345 347 348 348 350 348 346 346 345 348 348 348 350 349 349 350 349 345 341 344 345 345 341 349 348 348 346 344 348
358 357 358 358 355 355 357 353 357 356 352 344 342 341 345 345 341 342 346 346 347 347 347 348 347 347 349 348 348 349 348 348 348 349 346 345 344 343 343 338 346 347 346 348 347 347 344 343 346
358 360 356 354 351 353 353 356 356 356 348 344 343 343 344 344 343 345 346 345 341 346 348 349 347 348 349 348 346 348 348 347 347 348 345 346 349 346 345 346 345 337 345 347 346 346 345 345 345
356 357 354 352 352 352 356 357 355 354 348 345 343 341 341 343 341 346 346 344 346 349 348 348 349 347 346 348 348 347 346 348 347 347 347 350 348 340 343 346 338 345 346 346 344 345 343 342 345
354 358 354 354 354 356 351 356 356 351 347 346 343 341 339 338 343 346 347 347 348 348 347 347 347 346 344 345 343 344 346 346 341 346 349 346 348 350 345 343 342 345 348 341 341 342 344 344 345
358 357 361 355 354 353 353 359 352 349 347 345 342 341 340 340 343 345 346 346 346 346 345 344 345 348 342 345 344 343 345 343 346 348 351 348 347 347 346 345 349 350 351 351 345 344 344 342 344
359 361 362 357 353 353 355 355 353 351 347 344 341 340 340 342 342 345 346 345 346 345 347 350 347 341 343 346 347 346 348 345 347 346 351 350 348 345 344 346 349 350 348 349 348 349 348 344 345
358 359 360 362 355 354 354 354 352 350 347 343 340 340 340 342 341 344 346 346 345 347 347 350 345 342 347 349 347 348 345 346 345 347 344 350 347 345 344 346 347 349 344 348 345 351 351 345 346
346 355 361 359 355 355 355 353 351 349 351 342 340 340 340 340 341 345 347 347 347 346 348 348 346 343 349 347 346 346 345 350 347 348 348 350 349 340 348 348 344 345 348 352 350 351 352 341 347
352 357 361 358 355 353 355 355 354 352 349 348 341 340 340 340 340 343 347 349 347 348 348 348 348 347 346 346 346 346 347 348 350 347 351 348 349 348 351 350 344 347 349 348 349 351 354 350 344
353 359 357 359 355 350 353 355 354 350 347 346 343 344 339 341 341 345 349 348 347 348 348 349 347 348 345 347 346 348 350 347 350 349 347 350 349 349 352 352 350 349 351 349 353 354 354 355 354
352 355 353 357 353 358 352 361 356 352 350 347 343 347 345 341 341 344 348 350 349 347 345 349 348 348 348 342 347 348 349 348 349 348 344 348 345 349 352 351 353 346 347 349 353 354 351 354 355
355 345 357 355 355 355 355 360 357 353 353 350 344 347 345 342 345 343 345 352 352 347 347 349 348 349 348 348 345 347 348 347 345 348 350 349 349 348 349 350 349 345 340 351 353 354 351 353 354
348 353 353 353 352 357 355 358 360 354 354 350 343 345 346 345 343 344 343 349 353 353 354 353 349 348 350 350 349 347 348 350 347 348 350 350 349 347 349 351 348 349 351 352 353 354 351 354 354
349 348 354 356 358 354 350 352 353 351 349 349 342 342 346 345 343 344 343 344 347 353 356 355 352 352 352 349 349 349 350 349 349 349 350 349 349 349 347 352 350 351 349 352 351 354 349 353 353
332 342 347 359 360 361 352 359 353 351 352 349 340 341 346 346 342 344 345 346 348 348 357 357 353 353 351 350 350 350 350 349 346 348 351 352 349 349 348 350 351 351 351 348 353 353 352 351 352
327 338 337 346 355 355 359 356 358 355 355 351 346 344 347 346 344 344 345 344 348 349 353 355 353 351 351 352 353 352 351 350 351 351 352 352 351 350 351 348 350 352 350 352 353 353 350 350 355
328 330 333 330 354 361 358 359 359 361 354 349 345 345 346 344 343 344 344 343 348 351 352 355 352 351 351 354 351 350 351 352 352 353 353 353 351 351 350 350 352 353 352 353 353 352 353 352 353
326 327 328 327 334 343 353 355 357 355 354 350 349 346 343 344 345 344 344 347 347 350 354 356 353 353 353 353 351 352 351 350 352 353 349 353 352 354 353 352 353 349 354 353 351 349 351 351 353
325 324 326 329 330 333 343 350 353 351 342 348 348 346 346 347 346 348 347 346 346 353 355 357 354 351 351 355 351 350 352 353 352 353 353 351 353 352 353 351 351 353 353 352 351 353 352 353 350

GFSSGP_925_thetae_129.txt.gz
Theta_e
340 340 345 349 355 354 356 354 348 347 348 344 343 347 349 350 345 345 343 344 344 346 348 349 350 350 350 350 350 351 351 351 350 351 351 351 351 351 351 351 348 349 350 351 351 351 352 351 351
336 340 348 351 357 358 362 350 350 346 345 344 346 348 351 353 349 347 347 346 346 348 348 349 349 350 350 350 351 350 351 351 351 351 351 351 352 352 350 351 349 348 351 352 352 351 351 350 348
338 350 352 355 358 358 359 349 348 347 344 346 349 348 351 351 348 347 347 348 348 349 349 349 348 348 349 350 350 351 351 351 350 351 352 351 353 352 350 351 352 350 351 351 352 351 350 350 349
347 350 353 358 362 357 357 347 345 348 347 347 349 352 348 348 348 349 347 348 348 348 348 350 350 349 351 351 351 351 351 352 352 351 352 352 353 353 351 352 352 351 351 351 352 350 349 350 347
342 354 358 359 359 356 353 347 346 350 350 349 347 352 350 347 348 348 349 348 347 348 347 350 349 348 349 349 351 352 349 350 351 350 350 352 351 350 352 353 352 350 349 348 347 344 345 348 346
354 355 359 360 357 356 355 346 349 352 350 350 351 352 351 348 348 350 348 348 346 348 350 350 348 349 349 350 347 349 350 350 349 350 352 352 353 352 352 350 349 349 347 346 344 343 343 345 346
355 358 360 357 360 359 357 350 350 352 350 350 348 354 350 348 349 349 345 344 344 347 349 348 350 351 350 351 347 349 352 352 350 349 350 352 353 352 352 351 350 347 345 341 343 343 342 341 345
354 357 357 355 360 360 355 352 350 350 351 347 347 354 353 346 347 347 347 348 349 345 340 342 349 350 350 350 352 351 352 351 349 350 352 353 352 352 349 348 350 349 343 338 340 340 340 342 346
353 360 358 356 357 356 353 350 349 346 350 348 347 349 347 345 344 345 345 344 346 347 349 346 347 349 351 350 352 348 351 351 348 347 344 346 346 345 342 343 344 338 338 337 339 340 340 341 340
350 356 357 353 352 354 355 353 347 350 350 351 350 347 345 344 345 348 348 348 347 350 349 348 343 347 350 350 350 351 350 349 341 341 342 343 344 344 344 345 345 343 337 336 336 336 337 341 345
353 359 353 352 349 353 354 351 345 348 354 350 351 348 345 344 346 347 348 348 346 343 348 345 346 346 349 349 347 347 345 343 341 343 344 345 343 343 344 344 345 343 345 347 346 346 344 344 345
358 358 353 356 349 351 357 352 347 346 351 347 348 346 345 345 344 346 346 347 348 344 345 347 346 347 347 345 344 341 342 345 347 348 347 342 342 341 340 343 345 346 346 346 346 344 345 345 344
357 357 353 355 354 353 354 355 351 351 348 347 347 347 346 345 343 344 345 347 348 347 348 348 346 344 342 342 344 347 348 348 348 348 346 344 341 342 343 344 343 342 346 346 345 345 345 342 340
356 355 352 352 354 354 356 355 354 346 348 349 348 348 347 345 344 343 345 346 347 347 347 348 347 343 343 345 346 347 347 348 348 346 345 344 340 343 345 342 341 344 348 346 344 345 344 344 341
350 356 354 352 352 355 353 357 356 350 348 349 348 348 347 346 345 344 345 346 346 347 347 347 346 346 345 343 345 346 346 347 347 346 345 345 346 341 344 342 343 346 347 344 342 343 344 344 344
356 354 357 353 354 353 351 354 354 349 349 349 348 347 346 346 345 344 345 345 345 346 347 346 346 346 346 346 346 343 345 345 346 346 345 344 343 340 344 346 346 347 348 347 344 344 344 344 344
347 358 358 357 353 353 354 354 354 351 347 348 347 345 345 346 345 345 344 345 346 346 347 347 347 347 345 345 347 344 345 345 345 347 346 345 347 342 345 343 348 346 349 350 350 347 344 342 344
347 354 357 358 354 352 352 355 353 351 351 343 345 346 346 346 345 345 344 344 345 346 348 347 347 345 345 345 345 346 346 342 344 346 345 346 345 344 343 345 346 349 350 350 352 352 345 342 344
339 350 356 357 354 353 353 354 351 351 349 343 339 345 346 346 344 345 345 345 347 347 348 348 347 344 345 345 346 345 345 342 344 346 347 346 343 341 341 344 345 348 348 351 352 348 343 345 345
325 340 355 353 351 352 352 355 353 351 350 345 337 345 346 345 345 345 345 346 346 344 346 346 345 343 346 344 347 344 344 344 345 347 347 346 344 343 347 343 343 347 348 350 351 349 345 351 350
333 351 354 355 347 350 353 353 355 351 349 346 344 343 345 346 345 344 344 345 345 344 345 347 343 343 346 346 346 346 346 345 346 346 348 347 346 347 348 348 346 346 349 350 350 352 352 346 339
332 350 346 346 349 358 351 354 352 352 350 346 343 341 343 345 344 343 344 345 345 345 347 347 342 344 347 345 345 346 347 347 347 347 347 347 348 348 348 349 348 347 348 350 351 351 351 351 344
347 347 347 350 355 355 356 355 350 351 352 348 343 342 340 345 345 344 344 345 346 346 347 348 343 345 346 346 344 345 346 344 345 347 346 348 347 349 349 349 348 346 343 349 350 351 350 349 349
347 347 351 350 352 356 351 355 356 354 350 347 341 342 341 344 344 344 344 345 346 347 347 347 345 345 344 344 344 345 345 345 346 346 348 345 347 346 348 348 348 346 344 348 350 349 350 351 349
335 336 349 350 355 356 351 356 352 347 344 344 343 341 341 341 344 344 344 344 346 347 348 347 346 346 345 342 343 345 346 346 346 347 347 347 346 347 347 348 349 348 345 349 350 349 351 350 351
337 336 345 353 354 356 352 357 348 343 342 342 343 340 342 339 344 345 345 345 345 347 348 347 347 346 346 345 342 345 346 346 346 346 345 347 347 347 347 347 349 349 348 347 350 349 350 350 350
341 341 337 349 349 353 353 349 347 345 346 347 342 341 344 341 346 346 346 346 345 346 348 348 347 347 346 346 346 343 346 346 348 348 347 347 347 348 349 347 347 350 349 348 348 349 350 349 351
331 330 339 338 352 352 355 347 345 352 356 350 347 341 342 343 344 345 346 347 347 345 347 349 346 347 346 345 348 347 345 346 347 348 347 348 349 349 350 349 348 350 350 350 349 351 350 350 351
321 323 323 329 337 349 356 350 343 344 353 350 345 342 341 343 341 342 344 348 349 348 349 350 350 348 346 347 347 348 345 347 348 346 346 346 348 349 348 349 348 349 350 350 351 350 350 351 350
321 323 321 324 327 336 343 335 348 349 349 347 345 340 340 344 342 342 342 344 347 350 351 351 351 350 347 346 349 348 347 349 349 350 350 349 351 351 350 350 350 350 350 351 350 349 351 349 349

GFSSGP_925_thetae_132.txt.gz
Theta_e
339 342 345 349 354 350 354 353 346 347 346 344 343 346 350 351 346 340 342 342 341 342 348 347 347 350 348 350 349 350 350 350 349 349 351 350 351 348 346 345 348 347 350 351 351 352 352 351 347
337 339 347 349 355 357 357 349 348 345 343 342 346 348 351 353 347 344 345 344 341 346 348 348 348 350 349 349 349 351 350 350 351 351 346 350 349 350 351 351 351 346 346 346 346 346 345 345 346
338 348 350 354 357 358 356 349 349 345 343 347 350 348 351 351 344 345 346 344 345 346 348 347 347 347 348 350 350 349 352 350 350 351 351 349 350 350 348 351 350 346 346 345 348 347 345 346 350
345 348 350 358 361 357 357 348 347 347 347 348 348 352 348 345 346 348 346 345 346 347 348 347 347 348 351 351 350 351 350 346 347 350 351 351 348 348 351 350 352 351 351 348 345 344 346 350 351
345 352 354 358 359 356 354 346 347 350 349 349 348 352 350 348 347 347 347 347 346 347 349 350 348 349 351 351 351 351 351 350 351 349 346 351 351 351 350 351 350 349 349 344 345 345 345 345 350
354 354 357 360 359 356 354 348 351 351 350 349 350 351 350 348 347 349 347 348 347 347 348 347 349 347 351 351 352 349 350 351 350 350 349 349 350 349 350 349 349 348 348 344 343 343 345 348 349
356 356 359 359 360 357 356 350 351 351 350 350 348 350 350 347 349 348 348 347 347 351 350 349 348 350 347 351 352 351 349 348 347 349 348 347 345 348 350 350 348 346 347 345 343 342 341 345 346
354 354 356 356 360 358 352 350 350 349 352 345 344 349 351 347 349 348 349 348 349 351 348 347 348 350 347 348 351 352 351 347 348 350 349 349 351 350 346 345 349 347 346 345 342 340 341 344 346
350 358 358 356 357 357 353 351 349 348 349 348 348 345 346 347 348 347 348 349 350 348 344 348 348 348 348 347 350 351 351 345 346 351 349 349 346 345 343 342 346 342 340 339 340 339 339 338 340
349 357 356 352 352 354 352 354 351 351 352 351 349 345 345 345 346 347 347 347 345 346 348 345 349 349 348 351 349 349 345 345 345 346 344 343 344 345 346 345 341 339 338 338 337 336 338 343 346
346 357 354 352 351 350 352 353 347 351 353 349 350 346 344 344 345 344 344 344 344 349 349 345 345 350 349 349 349 347 344 342 341 341 342 342 343 343 343 342 342 344 345 345 346 346 344 343 343
356 355 351 353 350 352 355 351 348 349 351 346 346 344 344 344 345 346 346 345 343 348 348 345 347 348 349 347 346 346 343 341 344 345 343 342 342 341 341 343 344 344 344 345 345 345 345 345 343
353 355 352 354 350 352 353 354 352 348 348 346 345 344 344 344 345 346 346 346 344 344 346 345 345 346 345 344 343 341 343 346 347 345 343 341 341 342 343 341 341 344 346 345 344 344 343 341 340
354 353 352 352 352 351 353 354 351 348 347 348 347 345 344 344 343 345 345 347 346 344 346 346 343 343 342 342 344 346 347 347 347 344 341 342 340 343 343 342 343 344 345 343 343 343 344 342 340
351 355 353 351 352 354 354 359 355 349 348 350 348 346 345 344 342 343 345 346 346 346 347 346 345 342 342 344 345 346 346 346 345 345 344 343 345 342 344 341 345 347 345 342 342 343 344 344 343
354 351 355 352 353 352 352 362 354 350 350 350 349 349 347 345 343 343 345 346 346 346 346 347 346 342 343 345 344 345 346 345 344 344 344 344 343 342 343 345 347 347 348 346 345 345 343 343 344
344 355 356 356 352 352 352 354 352 350 350 350 349 348 348 346 344 343 345 346 345 346 346 346 346 345 345 344 344 344 345 345 344 345 346 344 344 344 344 345 346 349 350 350 349 344 342 343 344
344 352 356 357 355 353 354 351 353 351 351 350 349 348 346 346 345 343 345 345 345 346 346 346 346 346 346 346 346 343 344 344 344 344 345 346 344 344 344 345 346 349 349 351 350 346 342 342 344
341 349 355 356 352 354 353 355 354 351 351 349 348 346 344 346 344 344 344 344 345 345 346 347 347 345 344 344 346 346 346 344 343 345 345 345 343 341 342 344 346 348 350 352 350 346 343 344 347
325 346 355 352 350 350 354 354 353 351 351 346 347 345 344 344 342 344 344 343 345 345 346 347 347 345 345 344 344 344 345 343 341 345 345 345 343 344 343 342 345 345 349 351 351 345 346 344 346
333 345 353 351 349 346 351 350 355 352 350 346 340 344 344 344 344 344 344 344 344 345 346 348 347 343 345 344 344 344 344 344 345 346 347 345 343 345 347 342 345 346 349 349 351 350 350 344 341
338 345 345 349 346 348 350 357 351 354 352 347 344 342 344 344 343 343 343 344 344 345 345 347 346 345 346 343 343 344 344 345 345 346 347 347 347 347 346 347 347 346 348 350 349 350 349 350 344
332 344 345 347 353 352 352 355 347 353 355 351 344 341 343 344 343 343 343 344 344 344 343 345 346 345 346 345 345 344 344 343 344 346 347 347 346 347 348 348 348 346 345 349 349 349 349 348 348
346 348 346 344 350 353 349 351 349 354 353 351 344 342 341 343 343 343 343 344 344 344 344 345 346 344 346 345 345 344 344 344 344 346 346 346 348 347 348 349 347 345 343 347 349 347 349 349 348
336 335 342 343 350 355 348 355 352 345 346 350 346 342 340 342 343 343 342 344 344 345 345 346 347 344 346 345 344 344 344 344 343 345 346 346 345 346 347 347 348 347 345 345 348 347 348 349 349
335 329 336 346 351 350 351 353 347 342 342 344 344 341 340 341 343 343 343 344 344 346 346 346 347 344 345 344 344 344 344 344 344 345 345 346 346 345 346 346 347 348 348 347 349 348 348 348 349
338 340 335 347 347 351 351 348 343 341 341 342 342 341 341 340 344 343 343 343 344 346 346 346 346 345 345 345 343 343 345 345 345 345 346 346 345 347 347 347 346 347 349 348 347 350 348 348 348
333 331 340 339 353 353 351 348 349 345 346 343 343 342 341 340 342 343 344 344 344 345 346 346 346 346 346 346 345 342 344 345 345 346 347 346 345 347 348 348 348 347 349 349 349 348 349 348 348
321 325 324 332 337 348 352 349 343 341 349 350 349 345 340 340 341 344 344 344 344 344 346 346 346 346 346 346 345 346 344 345 346 347 347 346 347 348 348 346 348 349 348 350 350 349 350 349 350
320 322 319 325 326 337 343 332 344 346 348 348 344 341 339 341 342 344 345 345 345 344 345 347 347 346 345 345 345 344 347 346 346 347 347 346 346 346 348 347 348 349 347 349 349 350 351 350 350

GFSSGP_925_thetae_135.txt.gz
Theta_e
344 349 345 350 360 357 359 353 347 347 347 343 342 346 348 351 346 349 343 344 345 346 350 349 346 347 350 349 348 351 351 351 350 350 350 351 345 345 345 349 351 351 351 351 352 350 346 345 345
344 342 348 352 360 361 359 350 350 345 344 344 347 348 350 353 346 344 346 346 346 348 349 350 346 347 350 346 350 348 351 351 351 346 351 350 351 351 351 348 344 344 344 345 345 346 345 344 346
339 343 350 358 361 363 359 350 348 346 345 348 351 349 351 349 343 344 346 347 348 350 350 351 349 350 349 349 351 349 350 351 351 351 347 350 349 350 351 348 344 344 345 342 343 343 349 350 353
347 351 353 360 360 357 353 350 347 347 348 348 348 352 347 344 343 347 347 348 348 349 350 349 350 349 351 350 348 350 348 349 349 349 351 346 350 351 351 351 350 351 344 344 343 345 352 352 351
349 354 359 360 358 354 348 348 346 349 350 350 348 350 348 349 348 347 347 348 348 349 350 351 349 351 350 350 351 349 347 351 348 348 352 351 350 351 351 350 349 349 344 345 347 351 350 350 349
357 356 360 361 357 354 353 349 350 351 350 349 347 346 350 349 347 347 347 348 348 350 351 351 348 350 351 352 350 351 350 347 346 350 348 347 348 350 349 348 348 349 349 348 345 344 350 350 347
358 358 361 359 357 355 356 351 351 351 350 349 344 348 351 347 347 348 348 348 349 350 350 351 350 352 352 352 351 348 347 348 348 345 348 350 348 350 349 348 347 348 348 344 342 342 344 345 346
356 354 357 356 359 356 353 351 349 350 352 345 343 350 351 347 350 349 348 349 350 350 351 351 352 351 351 352 351 348 350 351 347 345 344 346 350 349 348 347 347 347 344 342 341 342 342 344 345
351 358 360 358 356 355 351 352 350 348 346 347 348 344 344 347 348 348 349 349 351 350 349 349 350 351 348 348 352 347 346 348 348 347 344 344 347 348 348 343 348 347 343 341 339 339 340 342 344
352 359 355 352 351 353 352 352 351 349 351 351 349 347 347 347 347 347 345 345 349 349 346 349 349 349 350 351 351 347 345 346 347 345 344 347 345 346 345 342 341 339 339 338 338 339 343 347 349
343 356 353 352 349 350 352 352 348 348 352 349 347 348 347 346 346 344 343 346 345 345 345 347 349 350 351 351 349 347 349 348 345 343 344 344 344 342 343 343 343 344 345 345 347 347 348 349 348
346 354 351 352 350 351 352 352 351 347 349 344 343 344 345 346 343 343 344 343 343 349 348 346 349 349 351 351 350 349 347 346 346 346 343 342 344 341 342 342 344 345 345 345 344 346 344 348 346
343 356 354 351 351 352 349 352 352 349 348 345 345 345 346 346 345 342 340 341 343 347 348 346 349 349 350 346 349 347 345 347 346 344 342 341 342 342 341 342 344 346 345 345 344 344 343 340 343
355 354 354 351 352 352 352 353 349 349 348 348 347 348 347 347 344 344 344 345 344 345 347 347 348 349 348 347 340 345 346 346 345 343 342 341 341 343 343 342 345 345 344 343 343 344 343 342 344
352 356 354 354 352 354 350 353 353 349 349 349 349 348 347 346 345 346 345 346 344 345 347 347 347 348 346 345 345 348 346 345 344 341 342 344 345 342 341 344 347 346 344 342 343 344 344 346 344
355 354 357 354 354 352 351 353 350 348 351 351 350 349 348 347 346 346 345 347 347 346 348 348 345 346 346 345 345 346 346 346 343 343 344 344 343 342 344 347 346 348 347 346 345 344 346 347 347
350 357 358 358 352 352 353 357 353 349 351 350 351 350 349 348 346 345 345 347 347 347 348 348 348 346 346 345 345 346 345 344 344 344 344 344 341 344 344 346 347 349 351 353 350 343 346 347 348
352 354 355 359 354 352 355 352 352 351 352 350 351 350 350 349 348 346 345 346 347 347 348 348 348 348 344 346 345 345 345 344 343 344 345 345 343 344 345 345 347 348 354 356 353 343 343 345 346
343 351 356 354 343 348 347 353 352 351 352 351 350 350 350 349 347 346 345 346 347 347 348 349 348 346 347 347 348 347 347 344 343 345 345 345 344 343 343 344 347 348 352 350 348 344 345 349 349
341 345 355 351 345 344 348 349 353 352 352 351 350 350 349 348 348 347 345 346 347 347 348 347 349 346 346 346 348 347 347 346 344 345 345 344 341 342 342 342 345 347 354 351 345 345 352 346 343
329 337 352 348 346 348 344 355 356 353 351 349 349 349 348 348 348 348 347 346 346 347 348 349 349 346 345 345 345 345 345 345 344 346 347 347 344 344 346 341 345 345 351 355 352 353 352 348 343
333 335 348 345 345 346 347 352 352 356 354 351 349 346 348 347 347 346 346 347 347 347 348 348 349 347 346 345 347 344 346 347 346 348 348 347 343 346 348 346 345 346 349 350 351 351 351 351 351
338 344 345 345 351 349 349 350 350 353 357 353 350 347 345 346 347 347 346 346 346 346 346 348 349 349 346 345 345 345 347 346 348 348 346 348 347 347 348 347 347 345 348 349 349 350 348 350 353
344 344 343 346 352 353 350 351 353 356 356 355 350 348 344 345 346 346 346 346 347 346 346 347 349 348 345 345 344 344 346 347 348 349 350 349 350 350 347 347 347 345 344 348 349 347 348 348 349
345 341 348 349 351 351 347 353 351 347 348 350 352 350 345 344 346 347 347 346 346 346 346 347 348 349 347 346 347 346 345 344 343 344 348 349 349 349 348 348 347 349 345 345 348 348 348 349 353
341 333 337 346 350 348 349 352 343 344 343 345 347 348 345 344 346 347 346 346 347 347 347 347 348 349 348 348 345 344 344 347 346 346 348 349 348 348 346 346 345 346 347 346 348 351 352 348 352
343 342 336 343 347 350 350 346 341 341 341 345 348 347 346 344 345 347 346 346 346 347 347 348 349 350 348 348 347 345 344 345 347 344 343 348 347 349 345 346 346 346 347 348 347 351 350 349 348
340 338 344 347 345 345 352 347 340 344 345 345 346 347 346 346 344 346 346 346 346 347 347 348 348 350 349 347 347 346 346 344 344 344 345 346 345 346 347 347 347 348 346 348 348 351 351 350 352
334 339 335 337 343 344 349 346 348 352 351 346 344 345 345 346 346 347 346 346 347 347 347 348 349 349 349 348 348 347 346 346 345 347 345 346 347 345 346 347 348 350 349 347 349 350 353 353 354
323 329 332 336 334 341 347 340 347 348 349 350 350 348 345 344 344 346 345 346 346 347 348 349 349 349 349 349 349 349 347 346 347 348 346 347 347 347 347 348 346 348 350 351 347 351 352 353 353

GFSSGP_925_thetae_138.txt.gz
Theta_e
344 351 348 352 365 354 352 350 347 349 348 345 344 345 349 350 350 356 344 344 345 346 347 349 346 350 350 346 348 350 350 350 351 351 351 350 346 345 351 352 351 351 352 350 345 345 345 348 352
348 347 350 353 362 355 356 349 349 347 346 346 347 347 348 352 345 346 346 345 345 347 347 349 348 349 351 351 350 352 352 349 350 350 351 351 352 349 348 349 349 346 345 344 344 344 344 344 348
344 345 353 360 356 357 356 350 347 347 346 350 352 350 350 349 345 346 345 345 347 348 348 350 349 350 351 352 351 352 352 351 351 350 351 351 352 352 347 348 348 345 348 348 346 345 343 347 348
348 353 356 361 358 358 353 349 347 347 349 349 349 352 346 344 346 346 345 346 347 348 349 349 350 352 351 352 351 351 352 351 350 350 350 352 352 352 349 352 350 343 341 338 343 346 349 348 351
351 354 359 361 359 354 350 347 346 350 350 351 349 349 349 347 346 345 346 345 346 349 349 350 350 352 351 351 351 349 351 350 351 352 350 351 353 351 350 351 348 344 343 344 352 351 350 350 351
358 355 357 361 360 355 352 348 348 350 352 350 348 348 351 346 345 345 345 344 345 348 349 349 348 350 351 352 352 351 351 349 350 350 347 350 350 350 349 350 350 345 346 346 345 345 350 344 338
358 360 361 357 360 359 357 350 351 352 351 350 345 349 350 345 345 345 345 344 346 347 349 350 350 351 352 349 351 352 347 351 351 350 352 352 350 349 348 349 350 345 344 346 344 345 346 346 345
358 355 358 358 359 359 355 351 349 350 353 345 345 350 351 346 345 345 345 345 345 347 349 351 351 349 349 348 352 351 349 351 350 351 351 341 344 339 341 341 348 345 347 342 342 340 343 348 345
351 361 361 356 357 356 353 353 351 348 350 346 347 344 344 346 346 345 346 346 348 346 346 346 350 350 350 350 347 351 351 349 344 341 343 345 344 346 347 343 348 343 342 340 340 340 345 347 345
353 361 358 352 352 354 353 352 351 350 350 351 346 344 345 347 346 345 346 347 348 345 344 345 344 348 348 348 351 350 347 347 345 347 349 347 349 347 346 344 340 339 338 338 340 343 348 347 345
347 358 354 353 347 349 353 351 349 349 350 349 350 349 346 345 345 344 344 345 346 344 341 343 345 349 349 348 347 348 346 343 347 351 349 350 347 348 347 346 347 350 349 349 349 350 346 346 342
348 353 352 350 348 350 353 350 351 346 348 345 346 345 345 345 344 343 342 345 345 343 343 343 346 350 349 347 346 346 346 343 346 350 350 349 347 349 348 348 349 350 350 351 348 347 349 347 344
344 352 352 352 350 351 350 354 353 349 347 342 343 343 344 344 343 342 343 342 342 345 345 344 347 349 350 348 346 346 344 343 348 349 349 348 348 349 347 350 350 352 349 348 347 345 344 344 343
351 353 353 351 352 349 351 353 351 350 344 343 343 346 347 346 344 344 342 341 342 344 345 344 347 348 350 348 348 347 347 347 348 348 348 349 348 349 348 350 350 350 349 348 348 345 346 346 345
352 355 355 354 354 354 348 351 352 349 346 347 346 347 346 346 345 344 343 343 342 344 345 346 346 346 349 347 347 348 347 346 347 346 350 351 351 349 351 351 350 350 351 351 350 347 347 345 345
351 353 358 355 354 353 350 356 351 349 350 348 348 347 348 347 346 346 345 345 344 344 346 346 343 345 347 347 350 347 347 346 347 347 348 350 350 351 351 350 351 355 352 350 347 345 345 346 346
350 352 355 359 354 354 351 354 350 349 350 349 349 348 348 348 347 346 346 346 346 346 347 346 345 345 346 351 350 349 350 347 347 349 349 351 348 351 351 349 353 357 354 352 348 348 345 348 348
348 351 353 361 355 353 352 355 350 349 350 348 349 348 348 348 348 347 346 346 347 347 348 347 347 346 349 349 351 349 348 347 348 349 349 351 350 351 352 350 355 355 353 353 350 350 350 350 351
344 344 351 354 353 351 352 353 352 350 351 350 349 349 348 348 346 347 346 346 347 347 347 348 348 349 349 349 348 347 346 347 348 349 352 352 350 350 352 349 353 354 354 357 355 351 353 351 355
343 344 350 347 345 347 351 352 354 351 350 349 349 349 349 348 347 347 347 347 347 348 348 348 348 348 348 349 348 347 348 346 347 350 351 350 348 349 351 351 352 357 354 357 355 355 352 351 353
334 337 345 345 348 344 344 354 354 352 350 349 348 347 347 348 347 348 348 347 347 348 349 347 348 349 348 349 349 351 350 349 347 350 349 349 350 350 352 350 353 354 356 355 358 358 359 350 350
334 332 340 343 346 343 344 353 347 354 353 353 351 350 347 347 347 347 347 348 348 348 349 348 350 349 349 350 350 349 346 346 345 347 348 350 349 351 352 353 352 354 353 358 357 356 356 359 353
334 336 341 342 345 344 348 349 353 354 359 355 352 351 348 347 346 347 347 347 347 348 348 348 351 350 347 347 350 347 346 347 347 347 351 349 352 353 351 353 353 351 351 356 356 358 357 355 354
336 340 343 345 345 345 345 348 347 357 353 355 352 350 350 346 345 345 345 346 348 347 348 348 350 350 349 350 347 347 345 348 346 348 349 348 348 349 352 352 353 353 353 354 354 356 357 358 357
337 341 346 345 345 344 344 350 343 344 349 350 351 350 349 348 345 345 347 347 348 348 348 347 349 351 352 350 348 348 349 348 350 350 349 348 348 347 349 353 353 351 353 354 355 356 356 355 355
332 335 335 338 339 342 344 348 345 342 342 347 347 349 347 349 345 345 346 347 348 348 348 348 349 351 351 351 351 351 348 348 345 346 345 347 347 347 346 352 353 353 353 353 354 352 352 353 353
335 338 332 336 339 340 340 342 341 340 343 345 345 349 348 348 346 345 345 347 348 348 348 348 349 351 351 350 351 351 348 347 349 348 350 348 349 348 349 351 351 351 353 354 353 350 353 354 353
339 336 336 334 347 341 343 344 342 341 346 343 346 346 349 348 346 345 346 347 347 348 349 350 350 352 352 349 350 350 350 351 351 348 349 349 350 351 350 352 352 353 353 353 355 351 352 354 352
335 338 337 341 347 344 341 340 346 346 352 348 344 346 348 349 348 346 346 346 347 347 348 350 350 352 352 352 349 349 350 350 351 350 351 351 351 349 352 352 351 351 352 353 354 352 353 354 353
332 334 336 337 338 336 336 336 350 353 350 349 342 343 345 346 347 346 345 346 347 348 349 350 350 351 352 351 351 351 351 351 349 349 350 351 353 354 355 352 351 351 351 352 352 352 350 353 353